[[{"header":{"parameterUnit":"m.s-1","parameterCategory":1,"la1":30.6,"la2":29.2853,"lo1":-89.7004,"lo2":-87.6739,"dy":0.0162,"dx":0.0183,"nx":112,"ny":82,"refTime":"2023-04-27T00:00:00:Z","depth":0,"parameterNumber":2,"parameterNumberName":"U-component_of_WINDS"},"data":[0.0,0.0,0.0,0.0,0.0,0.0,0.0,0.0,0.0,0.0,0.0,0.0,0.0,0.0,0.0,0.0,0.0,0.0,0.0,0.0,0.0,0.0,0.0,0.0,0.0,0.0,0.0,0.0,0.0,0.0,0.0,0.0,0.0,0.0,0.0,0.0,0.0,0.0,0.0,0.0,0.0,0.0,0.0,0.0,0.0,0.0,0.0,0.0,0.0,0.0,0.0,0.0,0.0,0.0,0.0,0.0,0.0,0.0,0.0,0.0,0.0,0.0,0.0,0.0,0.0,0.0,0.0,0.0,0.0,0.0,0.0,0.0,0.0,0.0,0.0,0.0,0.0,0.0,0.0,0.0,0.0,0.0,0.0,0.0,0.0,0.0,0.0,0.0,0.0,0.0,3.533,3.4779,3.484,3.5059,3.5449,3.336,3.2564,3.3866,0.0,0.0,0.0,0.0,0.0,0.0,0.0,0.0,0.0,0.0,0.0,0.0,0.0,0.0,0.0,0.0,0.0,0.0,0.0,0.0,0.0,0.0,0.0,0.0,0.0,0.0,0.0,0.0,0.0,0.0,0.0,0.0,0.0,0.0,0.0,0.0,0.0,0.0,0.0,0.0,0.0,0.0,0.0,0.0,0.0,0.0,0.0,0.0,0.0,0.0,0.0,0.0,0.0,0.0,0.0,0.0,0.0,0.0,0.0,0.0,0.0,0.0,0.0,0.0,0.0,0.0,0.0,0.0,0.0,0.0,0.0,0.0,0.0,0.0,0.0,0.0,0.0,0.0,0.0,0.0,0.0,0.0,0.0,0.0,0.0,0.0,0.0,0.0,0.0,0.0,0.0,0.0,0.0,0.0,0.0,0.0,0.0,0.0,0.0,0.0,0.0,0.0,0.0,0.0,3.4647,3.526,3.5599,3.584,3.5918,3.32,3.2279,3.4148,0.0,0.0,0.0,0.0,0.0,0.0,0.0,0.0,0.0,0.0,0.0,0.0,0.0,0.0,0.0,0.0,0.0,0.0,0.0,0.0,0.0,0.0,0.0,0.0,0.0,0.0,0.0,0.0,0.0,0.0,0.0,0.0,0.0,0.0,0.0,0.0,0.0,0.0,0.0,0.0,0.0,0.0,0.0,0.0,0.0,0.0,0.0,0.0,0.0,0.0,0.0,0.0,0.0,0.0,0.0,0.0,0.0,0.0,0.0,0.0,0.0,0.0,0.0,0.0,0.0,0.0,0.0,0.0,0.0,0.0,0.0,0.0,0.0,0.0,0.0,0.0,0.0,0.0,0.0,0.0,0.0,0.0,0.0,0.0,0.0,0.0,0.0,0.0,0.0,0.0,0.0,0.0,0.0,0.0,0.0,0.0,0.0,0.0,0.0,0.0,0.0,0.0,0.0,3.4149,3.4686,3.5343,3.5762,3.6016,3.6016,3.2892,3.1672,3.3591,3.1622,0.0,0.0,0.0,0.0,0.0,0.0,0.0,0.0,0.0,0.0,0.0,0.0,0.0,0.0,0.0,0.0,0.0,0.0,0.0,0.0,0.0,0.0,0.0,0.0,0.0,0.0,0.0,0.0,0.0,0.0,0.0,0.0,0.0,0.0,0.0,0.0,0.0,0.0,0.0,0.0,0.0,0.0,0.0,0.0,0.0,0.0,0.0,0.0,0.0,0.0,0.0,0.0,0.0,0.0,0.0,0.0,0.0,0.0,0.0,0.0,0.0,0.0,0.0,0.0,0.0,0.0,0.0,0.0,0.0,0.0,0.0,0.0,0.0,0.0,0.0,0.0,0.0,0.0,0.0,0.0,0.0,0.0,0.0,0.0,0.0,0.0,0.0,0.0,0.0,0.0,0.0,0.0,0.0,0.0,0.0,0.0,0.0,0.0,0.0,0.0,0.0,0.0,3.4318,3.4893,3.514,3.5491,3.5568,3.5316,3.2123,3.0915,3.2924,3.0034,0.0,0.0,0.0,0.0,0.0,0.0,0.0,0.0,0.0,0.0,0.0,0.0,0.0,0.0,0.0,0.0,0.0,0.0,0.0,0.0,0.0,0.0,0.0,0.0,0.0,0.0,0.0,0.0,0.0,0.0,0.0,0.0,0.0,0.0,0.0,0.0,0.0,0.0,0.0,0.0,0.0,0.0,0.0,0.0,0.0,0.0,0.0,0.0,0.0,0.0,0.0,0.0,0.0,0.0,0.0,0.0,0.0,0.0,0.0,0.0,0.0,0.0,0.0,0.0,0.0,0.0,0.0,0.0,0.0,0.0,0.0,0.0,0.0,0.0,0.0,0.0,0.0,0.0,0.0,0.0,0.0,0.0,0.0,0.0,0.0,0.0,0.0,0.0,0.0,0.0,0.0,0.0,0.0,0.0,0.0,0.0,0.0,0.0,0.0,0.0,0.0,0.0,3.4534,3.4758,3.4432,3.4793,3.4614,3.3539,3.0865,3.0153,3.2129,2.9044,0.0,0.0,0.0,0.0,0.0,0.0,0.0,0.0,0.0,0.0,0.0,0.0,0.0,0.0,0.0,0.0,0.0,0.0,0.0,0.0,0.0,0.0,0.0,0.0,0.0,0.0,0.0,0.0,0.0,0.0,0.0,0.0,0.0,0.0,0.0,0.0,0.0,0.0,0.0,0.0,0.0,0.0,0.0,0.0,0.0,0.0,0.0,0.0,0.0,0.0,0.0,0.0,0.0,0.0,0.0,0.0,0.0,0.0,0.0,0.0,0.0,0.0,0.0,0.0,0.0,0.0,0.0,0.0,0.0,0.0,0.0,0.0,0.0,0.0,0.0,0.0,0.0,0.0,0.0,0.0,0.0,0.0,0.0,0.0,0.0,0.0,0.0,0.0,0.0,0.0,0.0,0.0,0.0,0.0,0.0,0.0,0.0,0.0,0.0,0.0,0.0,0.0,3.4466,3.5023,3.4408,3.4733,3.4335,3.2843,3.0578,2.9808,3.1016,0.0,0.0,0.0,0.0,0.0,0.0,0.0,0.0,0.0,0.0,0.0,0.0,0.0,0.0,0.0,0.0,0.0,0.0,0.0,0.0,0.0,0.0,0.0,0.0,0.0,0.0,0.0,0.0,0.0,0.0,0.0,0.0,0.0,0.0,0.0,0.0,0.0,0.0,0.0,0.0,0.0,0.0,0.0,0.0,0.0,0.0,0.0,0.0,0.0,0.0,0.0,0.0,0.0,0.0,0.0,0.0,0.0,0.0,0.0,0.0,0.0,0.0,0.0,0.0,0.0,0.0,0.0,0.0,0.0,0.0,0.0,0.0,0.0,0.0,0.0,0.0,0.0,0.0,0.0,0.0,0.0,0.0,0.0,0.0,0.0,0.0,0.0,0.0,0.0,0.0,0.0,0.0,0.0,0.0,0.0,0.0,0.0,0.0,0.0,0.0,0.0,0.0,3.3566,3.4697,3.5247,3.4544,3.4019,3.3168,3.1868,2.9524,2.8771,3.0243,0.0,0.0,0.0,0.0,0.0,0.0,0.0,0.0,0.0,0.0,0.0,0.0,0.0,0.0,0.0,0.0,0.0,0.0,0.0,0.0,0.0,0.0,0.0,0.0,0.0,0.0,0.0,0.0,0.0,0.0,0.0,0.0,0.0,0.0,0.0,0.0,0.0,0.0,0.0,0.0,0.0,0.0,0.0,0.0,0.0,0.0,0.0,0.0,0.0,0.0,0.0,0.0,0.0,0.0,0.0,0.0,0.0,0.0,0.0,0.0,0.0,0.0,0.0,0.0,0.0,0.0,0.0,0.0,0.0,0.0,0.0,0.0,0.0,0.0,0.0,0.0,0.0,0.0,0.0,0.0,0.0,0.0,0.0,0.0,0.0,0.0,0.0,0.0,0.0,0.0,0.0,0.0,0.0,0.0,0.0,0.0,0.0,0.0,0.0,0.0,0.0,0.0,3.4796,3.5271,3.5247,3.4422,3.256,3.104,3.0276,2.7715,2.7123,0.0,0.0,0.0,0.0,0.0,0.0,0.0,0.0,0.0,0.0,0.0,0.0,0.0,0.0,0.0,0.0,0.0,0.0,0.0,0.0,0.0,0.0,0.0,0.0,0.0,0.0,0.0,0.0,0.0,0.0,0.0,0.0,0.0,0.0,0.0,0.0,0.0,0.0,0.0,0.0,0.0,0.0,0.0,0.0,0.0,0.0,0.0,0.0,0.0,0.0,0.0,0.0,0.0,0.0,0.0,0.0,0.0,0.0,0.0,0.0,0.0,0.0,0.0,0.0,0.0,0.0,0.0,0.0,0.0,0.0,0.0,0.0,0.0,0.0,0.0,0.0,0.0,0.0,0.0,0.0,0.0,0.0,0.0,0.0,0.0,0.0,0.0,0.0,0.0,0.0,0.0,0.0,0.0,0.0,0.0,0.0,0.0,0.0,0.0,0.0,0.0,0.0,0.0,3.3292,3.416,3.454,3.3664,3.2492,3.1285,2.9824,2.8162,2.7509,2.8183,0.0,0.0,0.0,0.0,0.0,0.0,0.0,0.0,0.0,0.0,0.0,0.0,0.0,0.0,0.0,0.0,0.0,0.0,0.0,0.0,0.0,0.0,0.0,0.0,0.0,0.0,0.0,0.0,0.0,0.0,0.0,0.0,0.0,0.0,0.0,0.0,0.0,0.0,0.0,0.0,0.0,0.0,0.0,0.0,0.0,0.0,0.0,0.0,0.0,0.0,0.0,0.0,0.0,0.0,0.0,0.0,0.0,0.0,0.0,0.0,0.0,0.0,0.0,0.0,0.0,0.0,0.0,0.0,0.0,0.0,0.0,0.0,0.0,0.0,0.0,0.0,0.0,0.0,0.0,0.0,0.0,0.0,0.0,0.0,0.0,0.0,0.0,0.0,0.0,0.0,0.0,0.0,0.0,0.0,0.0,0.0,0.0,0.0,0.0,0.0,0.0,0.0,3.2773,3.3721,3.3968,3.2923,3.1582,3.0253,2.8856,2.7451,2.6982,2.7529,0.0,0.0,0.0,0.0,0.0,0.0,0.0,0.0,0.0,0.0,0.0,0.0,0.0,0.0,0.0,0.0,0.0,0.0,0.0,0.0,0.0,0.0,0.0,0.0,0.0,0.0,0.0,0.0,0.0,0.0,0.0,0.0,0.0,0.0,0.0,0.0,0.0,0.0,0.0,0.0,0.0,0.0,0.0,0.0,0.0,0.0,0.0,0.0,0.0,0.0,0.0,0.0,0.0,0.0,0.0,0.0,0.0,0.0,0.0,0.0,0.0,0.0,0.0,0.0,0.0,0.0,0.0,0.0,0.0,0.0,0.0,0.0,0.0,0.0,0.0,0.0,0.0,0.0,0.0,0.0,0.0,0.0,0.0,0.0,0.0,0.0,0.0,0.0,0.0,0.0,0.0,0.0,0.0,0.0,0.0,0.0,0.0,0.0,0.0,0.0,0.0,0.0,3.2873,3.3513,3.3447,3.216,2.9885,2.8374,2.7605,2.6056,2.5827,2.7509,0.0,0.0,0.0,0.0,0.0,0.0,0.0,0.0,0.0,0.0,0.0,0.0,0.0,0.0,0.0,0.0,0.0,0.0,0.0,0.0,0.0,0.0,0.0,0.0,0.0,0.0,0.0,0.0,0.0,0.0,0.0,0.0,0.0,0.0,0.0,0.0,0.0,0.0,0.0,0.0,0.0,0.0,0.0,0.0,0.0,0.0,0.0,0.0,0.0,0.0,0.0,0.0,0.0,0.0,0.0,0.0,0.0,0.0,0.0,0.0,4.0833,0.0,0.0,0.0,0.0,0.0,0.0,0.0,0.0,0.0,0.0,0.0,0.0,0.0,0.0,0.0,0.0,0.0,0.0,0.0,0.0,0.0,0.0,0.0,0.0,0.0,0.0,0.0,0.0,0.0,0.0,0.0,0.0,0.0,0.0,0.0,0.0,0.0,0.0,0.0,0.0,0.0,3.2397,3.1949,3.1593,3.1494,2.8968,2.7449,2.7605,2.6373,2.6033,2.701,2.752,0.0,0.0,0.0,0.0,0.0,0.0,0.0,0.0,0.0,0.0,0.0,0.0,0.0,0.0,0.0,0.0,0.0,0.0,0.0,0.0,0.0,0.0,0.0,0.0,0.0,0.0,0.0,0.0,0.0,0.0,0.0,0.0,0.0,0.0,0.0,0.0,0.0,0.0,0.0,0.0,0.0,0.0,0.0,0.0,0.0,0.0,0.0,0.0,0.0,0.0,0.0,0.0,0.0,0.0,0.0,0.0,0.0,0.0,0.0,0.0,4.1822,0.0,0.0,0.0,0.0,0.0,0.0,0.0,0.0,0.0,0.0,0.0,0.0,0.0,0.0,0.0,0.0,0.0,0.0,0.0,0.0,0.0,0.0,0.0,0.0,0.0,0.0,0.0,0.0,0.0,0.0,0.0,0.0,0.0,0.0,0.0,0.0,0.0,0.0,0.0,0.0,3.1954,3.1396,3.083,3.0252,2.8132,2.6517,2.6201,2.5594,2.5489,2.6011,2.6634,0.0,0.0,0.0,0.0,0.0,0.0,0.0,0.0,0.0,0.0,0.0,0.0,0.0,0.0,0.0,0.0,0.0,0.0,0.0,0.0,0.0,0.0,0.0,0.0,0.0,0.0,0.0,0.0,0.0,0.0,0.0,0.0,0.0,0.0,0.0,0.0,0.0,0.0,0.0,0.0,0.0,0.0,0.0,0.0,0.0,0.0,0.0,0.0,0.0,0.0,0.0,0.0,0.0,4.3575,4.3541,4.4474,4.2824,4.2646,4.3641,4.4599,4.4647,4.3932,4.2493,0.0,0.0,0.0,0.0,0.0,0.0,0.0,0.0,0.0,0.0,0.0,0.0,0.0,0.0,0.0,0.0,0.0,0.0,0.0,0.0,0.0,0.0,0.0,0.0,3.6145,3.5876,3.6621,0.0,0.0,0.0,0.0,0.0,0.0,0.0,0.0,0.0,0.0,0.0,3.1315,3.0738,2.9937,2.8541,2.6969,2.5409,2.4652,2.4492,2.4652,2.513,2.5665,2.5997,0.0,0.0,0.0,0.0,0.0,0.0,0.0,0.0,0.0,0.0,0.0,0.0,0.0,0.0,0.0,0.0,0.0,0.0,0.0,0.0,0.0,0.0,0.0,0.0,0.0,0.0,0.0,0.0,0.0,0.0,0.0,0.0,4.4789,4.5659,0.0,0.0,0.0,0.0,0.0,0.0,0.0,0.0,0.0,0.0,0.0,0.0,0.0,4.6369,4.6104,4.5245,4.4934,4.5253,4.4645,4.4701,4.5267,4.5395,4.5606,4.5715,4.5693,0.0,4.4167,4.3398,0.0,0.0,0.0,0.0,0.0,0.0,0.0,0.0,0.0,0.0,0.0,0.0,0.0,0.0,0.0,0.0,0.0,0.0,0.0,0.0,0.0,0.0,3.7565,3.6891,3.6274,3.5956,0.0,3.6125,3.5251,3.5694,3.5858,3.546,0.0,0.0,0.0,0.0,0.0,0.0,3.0232,2.8276,2.6867,2.6751,2.5066,2.416,2.4492,2.4492,2.4652,2.513,2.5126,2.554,2.6295,2.6059,0.0,0.0,0.0,0.0,0.0,0.0,0.0,0.0,0.0,0.0,0.0,0.0,0.0,0.0,0.0,0.0,0.0,0.0,0.0,0.0,0.0,0.0,0.0,0.0,0.0,0.0,0.0,0.0,0.0,4.4248,4.4727,4.6083,4.6289,4.6784,0.0,0.0,0.0,0.0,0.0,0.0,0.0,0.0,0.0,4.6916,4.6412,4.5816,4.5126,4.5092,4.4936,4.4688,4.4497,4.4754,4.564,4.5432,4.5568,4.5889,4.606,4.5764,4.5019,4.4531,4.3916,4.3229,0.0,0.0,0.0,0.0,3.8733,3.871,3.8587,3.8986,3.9631,3.9414,0.0,0.0,0.0,0.0,0.0,0.0,0.0,0.0,0.0,0.0,3.6777,3.6821,3.6589,3.6638,3.7536,3.7103,3.6626,0.0,3.6402,3.5634,3.3984,3.307,0.0,0.0,0.0,2.8774,2.8997,2.7415,2.6459,2.6621,2.5072,2.4009,2.4024,2.4307,2.4331,2.4332,2.4652,2.4984,2.5323,2.567,2.5458,0.0,0.0,0.0,0.0,0.0,0.0,0.0,0.0,0.0,0.0,0.0,0.0,0.0,0.0,0.0,0.0,0.0,0.0,0.0,0.0,0.0,0.0,0.0,0.0,0.0,0.0,0.0,0.0,4.4249,4.4752,4.6189,4.633,4.6627,0.0,0.0,0.0,0.0,0.0,0.0,4.6281,4.6615,4.6723,4.6605,4.6283,4.5693,4.4814,4.5333,4.5369,4.495,4.4973,4.5563,4.6374,4.6014,4.5894,4.6231,4.654,4.6307,4.5804,4.5718,4.4839,4.3549,4.3373,4.208,4.0357,3.9887,3.9614,3.9343,3.9261,3.9733,4.049,4.0468,4.025,3.9913,3.952,0.0,0.0,0.0,0.0,3.6001,3.5728,3.5886,3.629,3.667,3.6887,3.7091,3.7881,3.7672,3.7508,0.0,3.717,3.6295,3.4527,3.3087,0.0,2.9711,0.0,2.747,2.7734,2.6547,2.5766,2.599,2.4962,2.4057,2.3864,2.4021,2.4057,2.3852,2.4172,2.4332,2.4492,2.5276,2.4946,2.3585,0.0,0.0,0.0,0.0,0.0,0.0,0.0,0.0,0.0,0.0,0.0,0.0,0.0,0.0,0.0,0.0,0.0,0.0,0.0,0.0,0.0,0.0,0.0,0.0,0.0,0.0,0.0,0.0,0.0,4.4965,4.5055,0.0,0.0,0.0,0.0,4.6679,4.6949,4.6812,4.6409,4.7171,4.7452,4.7108,4.6887,4.6657,4.6634,4.642,4.6456,4.6789,4.7242,4.766,4.8308,4.8286,4.7995,4.7726,4.7726,4.7163,4.6379,4.6698,4.5825,4.425,4.3187,4.1953,4.0636,3.918,3.9091,3.9826,4.0199,4.0821,4.1605,4.2064,4.1352,4.0091,3.8911,3.7731,0.0,0.0,3.6496,3.6215,3.579,3.6479,3.7213,3.6922,3.711,3.7428,3.7958,3.7285,3.7068,0.0,3.8681,3.8111,3.5896,0.0,3.3211,3.0927,2.8098,2.6331,2.6346,2.4972,2.3988,2.4,2.3852,2.3852,2.384,2.3852,2.3852,2.384,2.384,2.4012,2.4492,2.497,2.4554,2.3387,2.4048,0.0,0.0,0.0,0.0,0.0,0.0,0.0,0.0,0.0,0.0,0.0,0.0,0.0,0.0,0.0,0.0,0.0,0.0,0.0,0.0,0.0,0.0,0.0,0.0,0.0,0.0,0.0,0.0,4.5411,4.6129,0.0,4.6491,4.6428,4.6204,4.59,4.6575,4.6803,4.648,4.6824,4.7218,4.7213,4.6466,4.6275,4.6439,4.6472,4.6577,4.6758,4.7073,4.7467,4.7648,4.7648,4.7355,4.7038,4.7332,4.6655,4.5444,4.6007,4.56,4.431,4.3481,4.2702,4.2122,4.1517,4.1374,4.1366,4.1538,4.1778,4.2042,4.2207,4.2207,4.1775,4.0163,3.9039,3.8151,3.7467,3.6873,3.6624,3.6502,3.6844,3.7444,3.7595,3.7707,3.7933,3.8254,3.7568,3.684,3.7239,3.6309,3.4977,3.3251,3.1271,2.9428,2.7968,2.5943,2.4612,2.4612,2.4277,2.4094,2.4094,2.4251,2.4275,2.4106,2.4094,2.4021,2.3852,2.384,2.4012,2.4492,2.3828,2.2889,2.1958,2.1166,2.1308,0.0,0.0,0.0,0.0,0.0,0.0,0.0,0.0,0.0,0.0,0.0,0.0,0.0,0.0,0.0,0.0,0.0,0.0,0.0,0.0,0.0,0.0,0.0,0.0,0.0,0.0,4.574,4.5414,4.6471,4.6778,4.5665,4.6035,4.6138,4.5527,4.6418,4.6884,4.6703,4.6908,4.7019,4.7037,4.6487,4.6366,4.6653,4.6825,4.7006,4.7006,4.7355,4.7659,4.7648,4.7659,4.6992,4.5941,4.6558,4.5777,4.4113,4.4823,4.4741,4.4142,4.3552,4.3004,4.2642,4.2647,4.2479,4.2328,4.2476,4.258,4.2704,4.2256,4.2338,4.2228,4.0733,3.9479,3.8629,3.8046,3.7369,3.6874,3.7044,3.7228,3.7736,3.7889,3.8154,3.8056,3.7736,3.7073,3.6146,3.4813,3.3939,3.328,3.2488,2.9897,2.794,2.7435,2.5855,2.482,2.5031,2.4905,2.4713,2.4944,2.4814,2.4516,2.4263,2.4642,2.4713,2.4136,2.4611,2.474,2.4097,2.4065,2.3092,2.1612,2.0671,2.0756,2.18,0.0,0.0,0.0,0.0,0.0,0.0,0.0,0.0,0.0,0.0,0.0,0.0,0.0,0.0,0.0,0.0,0.0,0.0,0.0,0.0,0.0,0.0,0.0,4.4456,4.5669,4.6119,4.4784,4.5758,4.5809,4.4015,4.4796,4.5506,4.58,4.6727,4.7256,4.7091,4.7242,4.7235,4.6566,4.6882,4.7153,4.7153,4.7603,4.7817,4.7817,4.8316,4.8441,4.8423,4.8464,4.7075,4.4645,4.5653,4.4788,4.2799,4.3,4.3177,4.3594,4.3569,4.307,4.2309,4.2323,4.2282,4.2351,4.2679,4.3159,4.333,4.2042,4.1762,4.1503,4.02,3.8968,3.8098,3.8471,3.7704,3.6986,3.7294,3.7773,3.8079,3.8079,3.8223,3.8062,3.6386,3.6009,3.4931,3.0923,3.1771,3.3264,3.3406,3.1042,2.9065,2.9323,2.7663,0.0,2.7332,2.6257,2.5786,2.6451,2.5431,2.4608,2.4251,2.573,2.5955,2.4527,2.6199,2.607,2.3469,2.5428,2.5073,2.2149,2.2563,2.1827,2.007,0.0,0.0,0.0,0.0,0.0,0.0,0.0,0.0,0.0,0.0,0.0,0.0,0.0,0.0,0.0,0.0,0.0,0.0,0.0,0.0,0.0,0.0,4.5935,4.5892,4.6627,4.691,4.649,4.6988,4.7141,4.6035,4.6265,4.6443,4.6721,4.7038,4.7287,4.7286,4.6473,4.5954,4.612,4.5764,4.5811,4.6069,4.7298,4.7894,4.7894,4.8327,4.8475,4.8487,4.8112,4.7273,4.6048,4.6087,4.5053,4.3333,4.3439,4.3341,4.3143,4.283,4.2778,4.2812,4.2861,4.2922,4.3055,4.1946,4.2042,4.2697,4.2365,4.162,4.0608,3.9311,3.8775,3.8242,3.7458,3.755,3.7696,3.7851,3.8071,3.8467,3.8467,3.7557,3.6622,3.6022,3.4323,3.2251,3.0437,2.9229,2.8345,2.7574,2.5962,2.4946,2.5052,2.4486,2.4214,2.4429,2.4662,2.4711,2.4718,2.5677,2.5677,2.428,2.5611,2.5941,2.4801,2.4271,2.3852,2.3798,2.1827,2.0048,1.8312,2.0021,2.0484,0.0,0.0,0.0,0.0,0.0,0.0,0.0,0.0,0.0,0.0,0.0,0.0,0.0,0.0,0.0,0.0,0.0,0.0,0.0,0.0,0.0,0.0,4.628,4.686,4.7292,4.7537,4.7268,4.6542,4.698,4.7019,4.6307,4.6344,4.6558,4.6847,4.6921,4.6999,4.7443,4.6524,4.6029,4.591,4.637,4.6407,4.602,4.7489,4.8239,4.8239,4.8463,4.8591,4.8539,4.7947,4.686,4.5574,4.5325,4.4267,4.2784,4.3268,4.3331,0.0,0.0,0.0,0.0,0.0,4.3461,4.3351,4.196,4.1759,4.1896,4.0913,4.0116,3.9287,3.7958,3.7274,3.6827,3.6085,3.6138,3.6581,3.7057,3.762,3.7859,3.7625,3.6794,3.5713,3.4246,3.2523,3.0729,2.8536,2.7094,0.0,2.4338,2.3944,2.4087,2.4323,2.4419,2.446,2.4856,2.4717,2.4723,2.4803,2.5665,2.5816,2.4644,2.5527,0.0,0.0,0.0,2.3212,2.3442,2.0591,0.0,0.0,0.0,2.0934,2.023,2.1377,0.0,0.0,1.9562,1.9923,0.0,0.0,0.0,0.0,0.0,0.0,0.0,0.0,0.0,0.0,0.0,0.0,0.0,0.0,0.0,0.0,4.6909,4.7482,4.8545,4.824,4.7374,4.6119,4.6357,4.6357,4.5544,4.5937,4.6348,4.669,4.6808,4.7071,4.7418,0.0,0.0,0.0,0.0,4.7677,4.6263,4.7786,4.849,4.8513,4.8652,4.8652,4.858,4.7794,4.6357,4.4184,4.4279,4.33,4.192,4.2704,4.3359,4.3607,4.3259,4.34,4.3695,4.3467,4.3522,4.3366,4.2067,0.0,0.0,3.8786,3.7928,3.7674,3.662,3.563,3.4965,3.5143,3.5026,3.5027,3.5851,3.6479,3.6732,3.5922,3.5781,3.4949,3.1512,3.0914,3.0044,2.6146,2.5491,2.4983,2.2976,2.3864,2.4882,2.5473,2.5594,2.5812,2.6489,2.5635,2.5119,2.5763,0.0,0.0,2.4723,2.5464,2.5296,2.3762,2.3495,2.3016,2.2169,2.0491,2.0561,2.2373,2.2475,2.1685,2.0231,2.0252,1.925,1.7607,2.0087,2.0769,0.0,0.0,0.0,0.0,0.0,0.0,0.0,0.0,0.0,0.0,0.0,0.0,0.0,0.0,0.0,4.7668,4.8084,4.8567,4.8922,4.8305,4.7795,4.7522,4.7589,4.7514,4.7181,4.716,4.7357,4.7882,4.7837,4.8056,4.8605,4.7408,4.6736,4.6501,4.6513,4.6109,4.5586,4.6947,4.7925,4.8208,0.0,0.0,4.8145,4.7597,4.6463,4.476,4.4401,4.3968,4.331,4.3569,4.3557,4.3751,4.3522,4.3587,4.338,4.2031,4.248,4.325,4.0616,4.0196,4.0441,3.8904,3.7721,3.6957,3.7188,3.6955,0.0,3.733,3.7613,3.7521,3.6344,3.6093,3.5835,3.4229,3.2968,3.1692,3.0969,2.9692,2.8153,2.5822,2.5477,2.4782,2.2944,2.2965,2.3127,2.3258,2.3348,2.3359,2.3567,2.4187,2.4544,2.4555,2.6279,2.6226,2.3313,2.4384,2.4288,2.1953,2.1251,2.0143,1.8618,1.8148,1.8172,1.8685,1.8685,1.8533,1.8225,1.838,1.8271,1.7843,1.813,1.8356,0.0,0.0,0.0,0.0,0.0,0.0,0.0,0.0,0.0,0.0,0.0,4.4969,0.0,0.0,4.6637,4.7656,4.8015,4.8332,4.8737,4.8155,4.7724,4.7724,4.7724,4.7749,4.7793,4.7837,4.7924,4.8143,4.8165,4.8187,4.8187,4.7737,4.7098,4.6323,4.7098,4.7028,4.6381,4.7759,4.8379,4.82,4.8357,4.8042,4.7209,4.6426,4.5744,4.4975,4.4295,4.3897,4.3738,4.3738,4.3699,4.3699,4.3715,4.3583,4.3126,4.2314,4.2147,4.2112,3.9987,3.9241,3.896,3.7773,3.7042,3.6724,3.7045,3.6787,3.6563,3.6746,3.6105,3.5394,3.4993,3.4566,3.3941,3.285,3.205,3.1121,3.0142,2.9385,2.8194,2.6007,2.5602,2.5051,2.3042,2.2686,2.2686,2.2686,2.2686,2.2729,2.2848,2.3664,2.408,2.4091,2.5954,2.5906,2.3087,2.2327,2.1104,1.9357,1.8888,1.844,1.79,1.7827,1.7819,1.7908,1.7908,1.7908,1.7908,1.7997,1.8046,1.8046,1.7949,1.7957,0.0,0.0,0.0,0.0,0.0,0.0,0.0,0.0,4.6081,4.5962,4.5633,4.5413,4.5719,4.5948,4.6547,4.7774,4.7973,4.8216,4.899,4.8344,4.7946,4.8034,4.7881,4.799,4.8536,4.858,4.8558,4.8471,4.8536,4.8339,4.7793,4.8208,4.7887,4.6641,4.7954,4.8142,4.7328,4.8364,4.8543,4.7877,4.7877,4.7265,4.6247,4.5472,4.5007,4.4906,4.4,4.366,4.366,4.366,4.3718,4.3652,4.3719,4.3479,4.298,4.2801,4.2152,4.1062,3.9634,3.867,3.7862,3.6523,3.642,3.6742,3.6742,3.6552,3.625,3.6035,3.4644,3.3276,3.3753,3.2977,3.2041,3.1307,3.1267,3.1034,2.9433,2.9232,2.8706,2.6425,2.5981,2.5204,2.3064,2.2718,2.2751,2.2751,2.2751,2.2837,2.3085,2.3677,2.4129,2.4341,2.5144,2.5023,2.2713,1.9952,1.8026,1.7312,1.7297,1.7537,1.8086,1.8249,1.8241,1.8282,1.8282,1.8282,1.8282,1.8249,1.8225,1.8225,1.8225,1.8208,4.4172,4.215,0.0,4.4299,4.4506,4.4765,0.0,0.0,4.8509,4.7706,4.8234,4.8449,4.747,4.8004,4.8743,4.9306,4.9237,4.9508,5.0457,4.9844,4.9541,4.9956,4.9257,4.9104,4.9978,5.0065,4.9912,4.9497,4.9847,4.9672,4.8798,4.9213,4.9197,4.8609,4.7971,4.7526,4.6979,4.6353,4.6108,4.6384,4.6384,4.6322,4.6229,4.578,4.5146,4.4386,4.3935,4.3739,4.3739,4.3739,4.3758,4.3758,4.3672,4.3475,4.2994,4.2209,4.1853,4.1426,3.8915,3.8114,3.7862,3.6523,3.642,3.6742,3.7205,3.7539,3.7824,3.8135,3.7144,3.5763,3.4212,3.2778,3.13,2.9631,2.9406,2.9246,2.9045,2.9072,2.8456,2.6389,2.5981,2.5204,2.3064,2.2869,2.3009,2.3009,2.3009,2.3095,2.3332,2.4252,2.5114,2.5148,2.4796,2.3262,2.0079,1.786,1.6722,1.7091,1.7535,1.7717,1.7881,1.8311,1.8501,1.8663,1.8663,1.8663,1.8663,1.8501,1.842,1.842,1.842,1.833,4.4831,0.0,0.0,0.0,4.6239,4.6528,4.7354,4.7882,4.8076,4.7761,4.7934,4.7941,4.7716,4.7757,4.8229,0.0,4.9224,4.9524,4.9981,4.9789,4.9585,4.9497,4.8861,4.863,4.9167,4.9808,4.9848,4.8951,4.9763,5.0131,4.9737,4.9912,4.9611,4.893,4.8584,4.8138,4.7689,4.7132,4.666,4.6311,4.6045,4.5494,4.4773,4.4594,4.4304,4.3984,4.3789,4.3711,4.3711,4.3711,4.3711,4.3672,4.2915,4.2414,4.2318,4.1592,4.0922,4.0018,3.8326,3.7294,3.6772,3.631,3.6563,3.7205,3.7365,3.7347,3.7182,3.7362,3.5625,3.3613,3.295,3.1584,3.0189,2.9689,2.9553,2.9553,2.9553,2.9553,2.8876,2.6484,2.617,2.5618,2.3304,2.3095,2.33,2.344,2.3343,2.351,2.3928,2.4767,2.5116,2.4657,2.3365,2.1499,1.9055,1.7098,1.618,1.6731,1.7255,1.768,1.8231,1.8761,1.8907,1.8874,1.8874,1.8826,1.8728,1.8647,1.8615,1.8615,1.8615,1.8566,4.5368,0.0,0.0,4.7452,4.7961,4.8183,4.7981,4.814,4.8255,4.7804,4.7953,4.8066,4.8004,4.7931,4.8315,4.9179,4.9508,4.967,4.9898,4.9803,4.9487,4.9004,4.8372,4.8004,4.7531,4.8941,4.9638,4.8864,4.9964,5.0415,5.0131,5.0045,4.9739,4.8847,4.8333,4.7921,4.7441,4.68,4.6304,4.5637,4.5317,4.4727,4.3887,4.3887,4.3887,4.3887,4.3769,4.3711,4.3711,4.3711,4.3468,4.3002,4.2201,4.1518,4.1166,4.0433,3.969,3.8831,3.749,3.6563,3.6097,3.6258,3.6724,3.7383,3.699,3.6713,3.6464,3.6055,3.3997,3.1929,3.199,3.0909,2.9659,2.986,2.9913,2.9913,2.9913,2.9913,2.923,2.6778,2.6484,2.5938,2.3567,2.3343,2.3548,2.372,2.3835,2.3857,2.3903,2.3989,2.3641,2.2964,2.1386,1.9924,1.8301,1.6709,1.6154,1.6897,1.7486,1.7932,1.8449,1.9058,1.9216,1.9134,1.9126,1.9094,1.9021,1.8964,1.8915,1.8874,1.8874,1.8842,0.0,0.0,4.4623,4.8506,4.9296,4.9377,5.0008,5.0248,5.0095,4.8838,4.9762,5.0186,4.8452,4.9372,5.0131,5.024,5.0218,5.0371,5.0939,5.0218,4.9385,4.8803,4.8439,4.7358,0.0,4.7401,4.9252,5.0191,5.0699,5.0633,4.9694,4.9704,4.9294,4.8358,4.6681,4.5488,4.5066,4.4245,4.375,4.375,4.373,4.3945,4.4375,4.4375,4.4375,4.4355,4.3906,4.3711,4.3711,4.3711,4.2963,4.1777,4.1758,4.1021,3.9813,3.8563,3.8095,3.788,3.6541,3.6097,3.6097,3.6581,3.7045,3.7258,3.6147,3.6102,3.6169,3.4838,3.3319,3.2033,3.2048,3.1077,2.99,2.9913,2.9913,2.9913,2.9913,2.9913,2.9283,2.7201,2.6616,2.5997,2.3785,2.358,2.3741,2.3752,2.4288,2.4151,2.232,2.1395,2.0526,1.9355,1.8883,1.8309,1.7242,1.6807,1.6897,1.765,1.8251,1.8449,1.8457,1.9058,1.9329,1.9492,1.9492,1.9581,1.976,1.9573,1.9402,1.924,1.924,1.9142,4.5227,0.0,4.8007,4.9236,4.9576,4.9572,4.9285,4.9333,4.9296,4.8477,4.9246,4.977,4.8806,4.8638,4.901,5.0179,4.9034,4.858,5.0301,4.9006,4.7927,4.7987,4.7064,0.0,0.0,0.0,0.0,4.8445,5.014,5.0905,5.0198,5.0164,4.9512,4.8017,4.7034,4.6156,4.5509,4.4621,4.416,4.416,4.3848,4.3789,4.3945,4.3945,4.3945,4.3926,4.3769,4.338,4.2902,4.2902,4.2137,4.0934,4.0253,3.9522,3.8436,3.748,3.7119,3.7067,3.6379,3.6097,3.597,3.5375,3.5589,3.5673,3.4693,3.3938,3.3459,3.3052,3.1771,3.0629,3.0629,3.0191,2.9913,2.9913,2.9913,2.9967,3.0167,3.0207,2.9572,2.7472,2.7015,2.6446,2.4059,2.3828,2.3666,2.2327,2.2963,2.3458,2.332,2.2202,2.0941,1.9354,1.8986,1.819,1.6682,1.6323,1.6623,1.707,1.7665,1.8061,1.8457,1.9163,1.9451,1.9508,1.963,1.9727,1.9792,1.9727,1.967,1.9613,1.9613,1.8761,4.6605,4.8652,5.0431,5.0832,5.0859,5.0475,4.9378,4.9052,4.8755,4.8274,4.8832,4.9119,4.8404,4.8246,4.8401,4.9322,4.8444,4.7998,4.9601,4.8441,4.7369,4.7377,4.6948,4.6934,0.0,0.0,0.0,4.8024,4.9203,4.9875,4.9372,4.925,4.8619,4.7551,4.6815,4.6253,4.5449,4.4746,4.4316,4.4141,4.3848,4.3789,4.3945,4.3945,4.3791,4.3654,4.2867,4.196,4.0998,4.0159,3.9556,3.8883,3.838,3.7497,3.6634,3.5974,3.5477,3.4913,3.5245,3.5539,3.5525,3.4382,3.4295,3.4375,3.3352,3.258,3.1728,3.1331,3.0452,2.9375,2.9554,2.9734,2.9761,2.9853,2.9893,3.0154,3.0448,3.0515,3.0096,2.8244,2.7536,2.673,2.4956,2.4247,2.3662,2.2072,2.1981,2.1916,2.155,2.065,1.9552,1.8442,1.8074,1.7614,1.6374,1.6398,1.6474,1.6871,1.7717,1.8153,1.8551,1.9316,1.9646,1.9711,1.9825,1.9922,1.9979,1.9979,1.9946,1.989,1.9057,1.7785,4.8774,5.0518,5.1474,5.2892,5.2721,5.1849,5.0389,4.9538,4.8776,4.832,4.8543,4.8411,0.0,0.0,4.8396,4.8193,4.8332,4.8635,4.8808,4.8316,4.7721,0.0,0.0,0.0,0.0,0.0,0.0,4.854,0.0,4.7912,4.739,4.7006,4.6918,4.6917,4.6181,4.5469,4.5058,4.4629,4.418,4.3604,4.3584,4.3818,4.4078,4.4058,4.3759,4.3109,4.0875,3.9394,3.8451,3.6341,3.5773,3.6182,3.6182,3.5443,3.4292,3.4292,3.312,3.1881,3.3106,3.4207,3.4646,3.3275,3.312,3.3367,3.2322,3.1728,3.1099,3.0177,2.9195,2.8655,2.9028,2.9208,2.9273,2.956,3.0003,3.0461,3.0755,3.0808,3.0439,2.9512,2.8162,2.7045,2.6133,2.4855,2.3757,2.3054,2.1385,1.9648,1.7848,1.6947,1.6592,1.6748,1.6503,1.6388,1.6524,1.6661,1.6885,1.6892,1.8029,1.8722,1.873,1.9501,1.989,2.006,2.0076,2.0158,2.032,2.032,2.0239,2.0076,1.7775,1.6446,4.681,4.931,5.1939,5.1208,5.1063,5.0928,4.9469,4.9328,4.9472,4.9407,4.8762,4.8305,0.0,0.0,0.0,4.8785,4.7212,0.0,4.846,4.7869,0.0,0.0,0.0,4.852,4.8225,4.7986,0.0,0.0,4.8222,4.8273,4.7108,4.7423,4.7249,4.6442,4.6013,4.5625,4.5508,4.4766,4.3799,4.2571,4.2273,4.1476,4.0454,3.96,3.9025,3.8812,3.7514,3.6329,3.5629,3.641,3.5478,3.3611,3.5178,3.4283,3.2267,3.2678,3.2407,3.1888,3.0775,3.1512,3.2981,3.2032,3.1931,3.183,3.0751,3.0136,2.9793,2.9528,2.9015,2.8706,2.9261,2.9495,2.9755,3.0425,3.0675,3.0755,3.1049,3.1116,3.0556,2.8855,2.6758,2.5461,2.5086,2.3662,2.2097,2.0809,1.9544,1.856,1.9009,1.7588,1.6748,1.6904,1.6754,1.6653,1.6686,1.6625,1.6897,1.782,1.7948,1.8567,1.9509,1.9898,2.0011,2.0052,2.0182,2.0279,2.032,2.032,2.0296,2.0255,1.7934,1.6028,4.9358,5.1174,5.2961,5.1244,5.0838,5.0591,4.9209,4.936,4.9628,4.9339,4.8938,0.0,0.0,0.0,0.0,0.0,0.0,0.0,4.7957,4.7774,4.7621,0.0,4.8263,0.0,4.9102,4.8571,4.7805,0.0,4.7247,4.7061,4.6274,4.6566,4.6535,4.625,4.6074,4.5859,4.5683,4.4319,4.3214,4.2024,4.1096,3.9861,3.8451,3.7865,3.7125,3.6156,0.0,3.3649,3.2815,3.2999,3.2412,3.1845,3.2776,3.2322,3.0993,3.1161,3.0862,2.9972,2.9283,2.9891,3.0803,3.0328,3.0533,3.056,2.986,2.9195,2.9041,2.9338,2.8821,2.8534,2.9546,2.9795,2.9873,3.0544,3.0796,3.1062,3.1356,3.1423,3.0805,2.8601,2.7605,2.6398,2.4208,2.3405,2.2283,1.9817,1.8823,1.8391,1.8343,1.7418,1.6883,1.6971,1.6842,1.6748,1.6748,1.6537,1.6639,1.7334,1.7931,1.8368,1.9088,1.9878,2.0174,2.0166,2.0263,2.032,2.032,2.032,2.032,2.032,1.6944,1.4838,5.337,5.3896,5.3668,5.2081,5.1174,5.0342,4.9078,4.9251,4.9576,4.8658,0.0,4.8626,4.7325,0.0,4.6813,4.6831,0.0,4.7707,4.7255,4.7766,4.8273,4.8428,4.838,4.8509,4.9338,4.8937,4.8067,4.6979,4.5937,4.5428,4.5492,4.5449,4.5732,4.6191,4.6308,4.5939,4.5396,4.3715,4.2287,4.1473,3.963,3.8213,3.716,3.6852,3.5792,3.4199,3.212,3.0937,3.0188,2.8549,2.8666,3.0162,3.0239,3.0159,3.0016,3.0016,2.892,2.7658,2.8528,2.8881,2.8843,2.8744,2.9195,2.9747,2.9414,2.9067,2.877,2.9404,2.9116,2.8628,2.9831,3.0095,3.0173,3.0661,3.0914,3.1356,3.161,3.1664,3.0838,2.8913,2.9264,2.8572,2.3962,2.392,2.3197,1.9549,1.8602,1.8108,1.7154,1.6978,1.6978,1.6978,1.6863,1.6788,1.6809,1.6666,1.6592,1.6612,1.7754,1.844,1.844,1.9615,2.0111,2.0111,2.032,2.032,2.032,2.032,2.0111,1.9686,1.5469,1.3364,5.2115,5.2493,5.3036,5.24,5.0927,4.9562,4.8915,4.8868,0.0,0.0,0.0,4.8001,4.8089,4.7763,0.0,4.7172,0.0,0.0,0.0,0.0,4.8614,0.0,0.0,0.0,0.0,0.0,0.0,0.0,0.0,4.5637,4.5609,4.5967,4.6121,4.6289,4.6308,4.553,4.383,4.3144,4.132,3.8298,3.6719,3.5287,3.3902,3.1696,3.0657,3.0227,2.878,0.0,2.8104,2.9235,2.9218,2.8334,2.9704,2.9376,2.8297,2.8297,2.8111,2.7715,2.8039,2.8515,2.9026,2.9467,2.9734,2.9967,3.0207,2.9911,2.9404,2.9886,2.9595,2.9288,3.0142,3.0408,3.0674,3.1341,3.1597,3.161,3.1664,3.1093,3.037,3.0177,2.966,2.8386,2.5992,2.3987,2.212,1.9979,1.784,1.6701,1.6971,1.6978,1.6978,1.6978,1.6958,1.6985,1.7107,1.6985,1.7161,1.7706,1.7825,1.8186,1.8604,1.9261,1.9702,1.9702,2.0111,2.032,2.032,2.032,1.9261,1.7363,1.4838,1.252,5.2159,5.2634,5.3359,5.1667,5.0406,4.9294,4.8229,0.0,0.0,0.0,4.8121,4.7903,4.8042,0.0,0.0,0.0,0.0,0.0,0.0,0.0,0.0,0.0,0.0,0.0,0.0,0.0,0.0,0.0,0.0,4.5451,4.5898,4.6191,4.6308,4.6308,4.5392,4.4296,4.3389,4.1209,3.9043,3.6837,3.5018,3.337,3.1637,3.0084,2.9068,2.8545,2.7719,2.8016,2.8893,2.8732,2.9143,2.9407,2.9093,2.852,2.8017,2.8017,2.812,2.8172,2.8581,2.9098,2.9611,3.0066,3.014,3.0167,2.9937,2.99,2.9886,3.0186,3.0194,3.0376,3.1041,3.131,3.135,3.1864,3.1784,3.1664,3.1664,3.1402,3.0959,3.0715,3.0191,2.8836,2.5956,2.3702,2.1577,1.9552,1.7336,1.6341,1.6978,1.7046,1.7087,1.7087,1.7087,1.7148,1.7297,1.7249,1.7422,1.7621,1.7763,1.7896,1.823,1.8649,1.9067,1.9067,1.9694,1.9694,1.9477,1.8843,1.7789,1.6308,1.3359,1.1253,5.3176,5.3383,5.3383,5.136,5.0158,4.8951,4.7671,4.7617,0.0,0.0,4.7518,4.7669,4.7498,0.0,0.0,0.0,0.0,0.0,0.0,0.0,0.0,0.0,0.0,0.0,0.0,0.0,0.0,0.0,0.0,0.0,4.6327,4.6308,4.6114,4.5744,4.4118,4.3033,4.212,3.8843,3.6653,3.5539,3.3525,3.165,3.0115,2.9646,2.8805,2.7799,2.7534,2.8404,2.9888,2.8015,2.8789,3.0647,2.8642,2.7968,2.821,2.827,2.8351,2.8556,2.9292,2.9627,2.9935,3.0517,3.0595,3.0555,3.0241,3.0228,3.049,3.0857,3.1028,3.1363,3.1832,3.2051,3.2011,3.2011,3.1837,3.169,3.1744,3.1944,3.1938,3.1283,3.0872,2.9379,2.5987,2.3875,2.1509,1.9052,1.7384,1.6775,1.6815,1.7127,1.7216,1.7283,1.7263,1.7304,1.7453,1.7467,1.7405,1.7249,1.7669,1.7798,1.7615,1.8222,1.8432,1.8432,1.9067,1.9067,1.885,1.737,1.6308,1.5469,1.1882,0.9984,5.4988,5.4234,5.2687,5.2736,5.0681,4.8501,4.7545,0.0,0.0,4.6021,4.6746,4.7303,4.6594,4.7073,4.7189,0.0,0.0,4.6834,0.0,0.0,0.0,0.0,0.0,0.0,0.0,0.0,0.0,0.0,0.0,0.0,4.6289,4.6308,4.5568,4.3745,4.3567,4.1761,3.8127,3.6822,3.5368,3.3351,3.146,3.0319,3.0115,2.8888,2.8053,2.7799,2.7534,2.8299,0.0,2.7733,2.8366,3.0171,2.8488,2.7968,2.8234,2.8487,2.8572,2.8739,2.967,2.9886,2.9909,3.1086,3.137,3.1196,3.1463,3.157,3.1704,3.2265,3.2064,3.1744,3.2024,3.1904,3.1704,3.1704,3.169,3.1744,3.2011,3.2078,3.2265,3.2602,3.1534,2.9839,2.7828,2.5625,2.2968,1.9261,1.8432,1.786,1.6524,1.6976,1.7297,1.7575,1.748,1.746,1.7616,1.7629,1.7561,1.7412,1.7399,1.7277,1.6992,1.7601,1.7811,1.7811,1.8432,1.885,1.9493,1.7161,1.5469,1.3785,1.1253,0.9141,5.1109,5.1982,5.2845,5.1678,5.0164,4.8546,4.7097,0.0,0.0,4.5682,4.5391,4.5247,4.5299,4.5321,4.5356,4.5077,4.5552,0.0,0.0,0.0,0.0,0.0,0.0,0.0,0.0,0.0,0.0,0.0,0.0,0.0,4.6191,4.6308,4.5197,4.264,4.1366,3.9175,3.5881,3.4233,3.2758,3.127,3.0509,2.9746,2.9184,2.8691,2.8306,2.8029,2.7775,2.9257,0.0,2.8377,2.8966,3.1599,2.8789,2.7872,2.8005,2.865,2.8938,2.9317,3.0075,3.0609,3.1198,3.1699,3.2091,3.2238,3.1998,3.2051,3.2251,3.2478,3.2505,3.2478,3.2599,3.2412,3.2104,3.1757,3.1797,3.1957,3.2078,3.2385,3.2496,3.1733,3.0289,2.8652,2.6646,2.4096,2.1778,1.961,1.8579,1.7967,1.6976,1.7143,1.7514,1.7629,1.7595,1.7616,1.7772,1.7772,1.7717,1.7568,1.7555,1.7467,1.7256,1.7456,1.7621,1.753,1.7953,1.7735,1.6459,1.4963,1.2864,1.0574,0.9025,0.7295,4.8755,5.0826,5.2697,5.085,4.9538,4.852,0.0,0.0,0.0,4.4931,4.415,4.369,4.3936,4.3666,4.3453,4.3687,4.4349,4.5246,4.6351,0.0,0.0,0.0,0.0,0.0,0.0,0.0,0.0,0.0,0.0,0.0,4.6172,4.5392,4.3727,4.1169,3.9704,3.7328,3.3844,3.2002,3.0903,3.0128,2.9746,2.9382,2.9085,2.8686,2.8654,2.8652,2.8001,2.9453,0.0,2.8587,2.9061,3.1907,2.8871,2.7811,2.7848,2.8765,2.923,2.9583,3.0687,3.133,3.1952,3.2398,3.2652,3.2799,3.2559,3.2572,3.2692,3.2772,3.2826,3.2826,3.2746,3.2505,3.2198,3.1877,3.1957,3.2144,3.2318,3.2692,3.2604,3.0877,2.9427,2.7962,2.6078,2.3503,2.1387,1.9844,1.9061,1.8265,1.7249,1.727,1.7663,1.7704,1.7717,1.7758,1.786,1.786,1.7806,1.7663,1.765,1.7582,1.7426,1.7419,1.7372,1.7263,1.769,1.6829,1.4463,1.3165,1.1051,0.8508,0.7168,0.5843,5.0009,5.1325,5.155,5.0568,4.9073,4.7683,0.0,0.0,0.0,4.3579,4.3363,4.3148,4.262,4.2186,4.2102,4.2484,4.2957,4.3865,4.5459,0.0,0.0,0.0,0.0,0.0,0.0,0.0,0.0,0.0,0.0,0.0,4.6308,4.353,4.0988,3.9175,3.8977,3.6606,3.1853,3.07,3.0128,3.0128,2.8992,2.9052,3.0116,2.9034,2.9028,2.9535,2.836,2.8693,0.0,2.8092,2.8551,3.0037,2.845,2.7811,2.7872,2.8987,2.9202,2.9317,3.1385,3.1803,3.1477,3.2921,3.3013,3.2652,3.3227,3.32,3.3026,3.332,3.2986,3.2478,3.2185,3.1891,3.1744,3.2024,3.2104,3.2265,3.2839,3.2973,3.2656,3.1328,2.9545,2.7918,2.6303,2.4657,2.259,1.9887,2.0038,1.9577,1.6961,1.7114,1.7704,1.7846,1.786,1.786,1.786,1.786,1.7806,1.7663,1.765,1.7582,1.7426,1.7419,1.7419,1.7419,1.7419,1.6543,1.4792,1.2413,1.0465,0.8505,0.6335,0.479,4.5161,4.7023,4.8518,4.7545,4.6841,4.6248,4.5286,0.0,0.0,4.2739,4.1915,4.1177,4.0686,4.0619,4.0821,4.1482,4.209,4.2983,0.0,0.0,0.0,0.0,0.0,0.0,0.0,0.0,0.0,0.0,0.0,0.0,4.3402,4.2443,4.0593,3.803,3.6005,3.3253,2.9579,2.9196,2.8992,2.8992,2.8812,2.9311,3.0542,2.9295,2.9221,3.0441,2.8716,2.9112,3.0661,2.8476,2.8736,3.0082,2.8463,2.7811,2.7836,2.8943,2.981,3.0611,3.1736,3.2456,3.2841,3.332,3.3293,3.3173,3.336,3.3213,3.304,3.3334,3.3133,3.2826,3.2732,3.2492,3.2291,3.2385,3.2559,3.2746,3.2933,3.2337,3.1076,2.9533,2.7918,2.6345,2.4448,2.3729,2.3106,2.1272,2.0726,2.0182,1.8632,1.8135,1.7812,1.786,1.786,1.786,1.786,1.786,1.7846,1.7792,1.7792,1.7772,1.7724,1.7724,1.767,1.7582,1.6032,1.4277,1.2525,1.0121,0.7926,0.6392,0.485,0.416,0.0,4.435,4.6192,4.5425,4.4746,0.0,0.0,0.0,0.0,0.0,4.1239,4.0616,3.9586,3.966,3.9947,3.9864,4.0918,4.1845,0.0,0.0,0.0,0.0,0.0,0.0,0.0,0.0,0.0,0.0,0.0,0.0,4.196,4.0231,3.8213,3.5805,3.3959,3.157,2.862,2.862,2.862,2.862,2.862,2.9311,3.0527,2.9282,2.926,3.0556,2.8831,2.8894,0.0,2.8565,2.85,2.9275,2.8269,2.8029,2.8302,2.9243,3.0064,3.0882,3.1996,3.2719,3.312,3.3334,3.3414,3.3374,3.3146,3.304,3.3013,3.32,3.304,3.2812,3.2812,3.2679,3.2572,3.2679,3.2853,3.2815,3.2311,3.1667,3.0189,2.7825,2.6614,2.526,2.3189,2.3327,2.3117,2.1882,2.1334,2.0555,1.9581,1.8424,1.786,1.786,1.786,1.786,1.786,1.786,1.786,1.786,1.786,1.786,1.786,1.786,1.7826,1.7738,1.529,1.3072,1.1095,0.7774,0.578,0.4671,0.3785,0.3754,0.0,0.0,0.0,0.0,0.0,0.0,0.0,0.0,0.0,0.0,0.0,0.0,0.0,3.9378,3.9504,3.824,3.9602,4.068,0.0,0.0,0.0,0.0,0.0,0.0,0.0,0.0,0.0,0.0,0.0,0.0,4.1511,3.6928,3.3988,3.2675,3.2675,3.1394,2.862,2.862,2.8548,2.8569,2.8548,2.9144,3.017,2.9141,2.917,0.0,2.8792,2.8234,2.8234,2.8234,2.8222,2.821,2.8222,2.8391,2.8812,2.9758,3.0166,3.0523,3.2274,3.2799,3.2692,3.3213,3.3387,3.3307,3.2746,3.2786,3.3,3.2986,3.2786,3.2585,3.2599,3.2599,3.2652,3.2933,3.2828,3.2497,3.134,3.0797,2.964,2.6141,2.537,2.4823,2.2938,2.2983,2.2992,2.1951,2.1441,2.0682,1.9612,1.8438,1.786,1.786,1.786,1.786,1.786,1.786,1.786,1.786,1.786,1.786,1.786,1.786,1.786,1.7632,1.5185,1.2515,1.0289,0.5826,0.3589,0.3589,0.3589,0.3572,3.5636,0.0,4.0774,4.0194,4.0073,0.0,0.0,0.0,0.0,0.0,0.0,0.0,0.0,0.0,4.022,3.9244,4.0005,4.0813,0.0,0.0,0.0,0.0,0.0,0.0,0.0,0.0,0.0,0.0,0.0,3.8977,3.639,3.4534,3.2312,2.9733,2.9542,2.9363,2.862,2.862,2.8867,2.9177,2.8719,2.9595,3.1236,2.9356,2.9273,3.0629,2.9098,2.8524,2.8524,2.8524,2.8403,2.8222,2.8439,2.8752,2.9375,2.9937,3.0728,3.1881,3.2456,3.2893,3.32,3.3106,3.3227,3.3347,3.2986,3.308,3.3267,3.304,3.2933,3.2933,3.3146,3.304,3.2946,3.324,3.2046,3.0932,3.1012,2.8677,2.6709,2.5985,2.4657,2.3802,2.3796,2.3621,2.3295,2.2735,2.1816,2.0722,1.9777,1.8494,1.786,1.786,1.786,1.786,1.786,1.786,1.786,1.786,1.786,1.786,1.786,1.786,1.6969,1.5185,1.0957,0.7611,0.5377,0.4035,0.3589,0.3589,0.3589,0.3572,3.3776,3.5756,3.7892,3.8144,3.8166,3.8319,0.0,0.0,0.0,0.0,0.0,0.0,0.0,0.0,0.0,0.0,3.9795,0.0,0.0,0.0,0.0,0.0,0.0,0.0,0.0,0.0,0.0,0.0,0.0,3.6791,3.4735,3.2703,3.0661,2.862,2.862,2.862,2.862,2.862,2.9009,2.983,2.9059,2.9409,3.098,2.9286,2.913,2.9806,2.9515,2.911,2.8727,2.9116,2.885,2.8403,2.8752,2.927,2.9742,3.0179,3.1166,3.1972,3.2403,3.2839,3.3213,3.3187,3.32,3.3187,3.3026,3.3187,3.3347,3.3066,3.2973,3.3013,3.3173,3.32,3.3213,3.3374,3.1782,3.025,3.0011,2.7372,2.5081,2.4555,2.3741,2.3126,2.3449,2.3548,2.3647,2.29,2.1958,2.0841,1.9838,1.853,1.786,1.786,1.786,1.786,1.786,1.786,1.786,1.786,1.786,1.786,1.786,1.6741,1.452,1.118,0.8507,0.605,0.3589,0.3589,0.3589,0.3589,0.3589,0.358,3.3094,3.4253,3.5535,3.6952,3.6657,3.6447,0.0,0.0,0.0,0.0,0.0,0.0,0.0,0.0,0.0,0.0,0.0,0.0,0.0,0.0,0.0,0.0,0.0,0.0,0.0,0.0,0.0,0.0,0.0,3.4764,3.4003,3.1421,2.9567,2.862,2.862,2.862,2.862,2.862,2.9059,3.0014,2.911,2.9192,3.0057,2.8976,2.862,2.8703,0.0,0.0,2.8654,2.9488,2.9356,2.8681,2.9295,2.9623,2.9954,3.0728,3.132,3.1894,3.239,3.2772,3.3013,3.3267,3.3213,3.304,3.2986,3.3187,3.336,3.312,3.304,3.304,3.304,3.3227,3.3227,3.3052,3.1426,2.9501,2.8268,2.6098,2.4074,2.3027,2.289,2.2927,2.2742,2.3532,2.3806,2.2329,2.1839,2.0945,1.9625,1.853,1.786,1.786,1.786,1.786,1.786,1.786,1.786,1.786,1.786,1.7639,1.7424,1.4958,1.1621,0.7393,0.6943,0.5603,0.3589,0.3589,0.3589,0.3589,0.3589,0.3589,3.1366,3.1989,3.335,3.6082,3.5402,3.4918,3.8109,0.0,0.0,0.0,0.0,0.0,0.0,0.0,0.0,0.0,0.0,0.0,0.0,0.0,0.0,0.0,0.0,0.0,0.0,0.0,0.0,0.0,0.0,0.0,3.0864,2.9554,2.8812,2.862,2.862,2.862,2.862,2.862,2.897,2.9536,2.8837,2.892,2.9425,2.8888,2.862,2.8608,0.0,2.8662,2.8596,2.8802,2.8809,2.897,2.92,2.9763,3.0392,3.0776,3.1335,3.2045,3.2732,3.2946,3.2986,3.3026,3.3187,3.3293,3.3053,3.3187,3.34,3.336,3.3347,3.3347,3.3347,3.3374,3.3066,3.1247,2.9422,2.751,2.5821,2.3908,2.2596,2.3458,2.3204,2.3408,2.4458,2.4532,2.3648,2.2063,2.1473,2.0513,1.8522,1.8088,1.786,1.786,1.786,1.786,1.786,1.786,1.786,1.786,1.786,1.6969,1.4958,1.2511,1.0066,0.7169,0.5157,0.4039,0.3589,0.3589,0.3589,0.3589,0.3589,0.3589,3.0743,3.0898,3.1858,3.5898,3.5179,3.4812,3.9489,0.0,0.0,0.0,0.0,0.0,0.0,0.0,0.0,0.0,0.0,0.0,0.0,0.0,0.0,0.0,0.0,0.0,0.0,0.0,0.0,0.0,0.0,0.0,3.1033,2.9492,2.862,2.862,2.862,2.862,2.862,2.862,2.9021,2.9873,2.9072,2.897,2.9761,2.8938,2.862,2.8548,0.0,2.9103,2.8715,2.9248,2.9205,2.8813,2.9504,3.006,3.0357,3.1231,3.1838,3.2185,3.2772,3.2879,3.2799,3.3106,3.32,3.3187,3.32,3.3307,3.3414,3.3414,3.3414,3.3414,3.3414,3.2501,3.1579,3.0957,2.8246,2.5589,2.5371,2.3645,2.2489,2.324,2.3779,2.4226,2.456,2.4864,2.418,2.1972,2.1425,2.0513,1.8295,1.786,1.786,1.786,1.786,1.786,1.786,1.786,1.786,1.786,1.6741,1.4958,1.2511,1.0066,0.7611,0.5383,0.4264,0.3589,0.3589,0.3589,0.3589,0.3589,0.3589,0.3589,3.0195,3.0039,3.0691,3.4735,0.0,3.4593,4.0695,0.0,0.0,0.0,0.0,0.0,0.0,0.0,0.0,0.0,0.0,0.0,0.0,0.0,0.0,0.0,0.0,0.0,0.0,0.0,0.0,0.0,0.0,0.0,3.1128,2.9455,2.862,2.862,2.862,2.862,2.862,2.862,2.8955,2.9836,2.8992,2.9115,2.9877,2.903,2.862,2.8715,2.9402,2.9257,2.8581,2.9419,2.9283,2.8812,2.9567,3.0166,3.0434,3.1561,3.1998,3.2078,3.2599,3.2625,3.2532,3.312,3.316,3.3026,3.332,3.3414,3.3414,3.3414,3.3213,3.2812,3.2812,3.1731,3.0419,2.9879,2.7006,2.4594,2.4759,2.3584,2.2736,2.3286,2.4093,2.4758,2.467,2.5142,2.4421,2.1864,2.1384,2.0513,1.8295,1.786,1.786,1.786,1.786,1.786,1.786,1.786,1.786,1.786,1.564,1.3177,1.073,0.8507,0.605,0.3589,0.3589,0.3589,0.3589,0.3589,0.3589,0.3589,0.3589,0.3589,2.9148,2.9112,2.9573,3.1879,0.0,0.0,4.0781,0.0,0.0,0.0,0.0,0.0,0.0,0.0,0.0,0.0,0.0,0.0,0.0,0.0,0.0,0.0,0.0,0.0,0.0,0.0,0.0,0.0,0.0,0.0,2.8955,2.8608,2.862,2.862,2.862,2.862,2.862,2.862,2.8548,2.8784,2.8548,2.8548,2.8784,2.856,2.862,2.8608,2.863,2.8509,2.8222,2.8241,2.8802,2.9375,2.9375,3.0101,3.1268,3.1606,3.1704,3.1744,3.2051,3.2144,3.2225,3.2812,3.3,3.3026,3.332,3.3414,3.3414,3.3414,3.2397,3.1189,3.1189,3.0999,3.0047,2.6752,2.5341,2.4518,2.2561,2.2489,2.2822,2.3637,2.4164,2.4845,2.5273,2.5326,2.4275,2.1864,2.1384,2.0513,1.8295,1.786,1.786,1.786,1.786,1.786,1.786,1.786,1.786,1.786,1.564,1.3177,1.073,0.8507,0.605,0.3589,0.3589,0.3589,0.3589,0.3589,0.3589,0.3589,0.3589,0.3589,2.8745,2.8708,2.921,3.2938,0.0,0.0,0.0,0.0,0.0,0.0,0.0,0.0,0.0,0.0,0.0,0.0,0.0,0.0,0.0,0.0,0.0,0.0,0.0,0.0,0.0,0.0,0.0,0.0,0.0,0.0,2.9671,2.9098,2.862,2.862,2.862,2.862,2.862,2.862,2.862,2.862,2.862,2.862,2.862,2.862,2.862,2.8608,2.8439,2.8294,2.8198,2.8588,2.8851,2.914,3.0077,3.0777,3.1633,3.1704,3.1664,3.1717,3.1998,3.2104,3.2198,3.2786,3.2973,3.3026,3.332,3.3414,3.3414,3.3414,3.2325,3.1185,3.1024,2.9256,2.7133,2.5766,2.4394,2.3,2.277,2.3101,2.3655,2.4299,2.513,2.5592,2.5553,2.543,2.4393,2.1864,2.1384,2.0513,1.8295,1.786,1.786,1.786,1.786,1.786,1.786,1.786,1.7197,1.585,1.3404,1.1621,1.073,0.6943,0.4485,0.3589,0.3589,0.3589,0.3589,0.3589,0.3589,0.3589,0.3589,0.3589,2.814,2.8122,0.0,0.0,0.0,0.0,0.0,0.0,0.0,0.0,0.0,0.0,0.0,0.0,0.0,0.0,0.0,0.0,0.0,0.0,0.0,0.0,0.0,0.0,0.0,0.0,0.0,0.0,0.0,0.0,0.0,2.9085,2.862,2.862,2.862,2.862,2.862,2.862,2.862,2.862,2.862,2.862,2.862,2.862,2.8572,2.8487,2.8379,2.8198,2.7968,2.8515,2.8966,2.9382,3.0609,3.1297,3.1664,3.1664,3.1664,3.1704,3.1891,3.1971,3.2064,3.2652,3.2839,3.2919,3.3293,3.3414,3.3227,3.2904,3.1642,3.0322,2.9829,2.7655,2.547,2.4774,2.3408,2.2458,2.2796,2.3568,2.4138,2.4767,2.5375,2.5827,2.5553,2.5458,2.4393,2.1864,2.1384,2.0513,1.8295,1.786,1.786,1.786,1.786,1.786,1.786,1.786,1.6969,1.452,1.2071,1.0281,0.9616,0.5826,0.3589,0.3589,0.3589,0.3589,0.3589,0.3589,0.3589,0.3589,0.3589,0.3589,2.709,2.709,0.0,0.0,0.0,0.0,0.0,0.0,0.0,0.0,0.0,0.0,0.0,0.0,0.0,0.0,0.0,0.0,0.0,0.0,0.0,0.0,0.0,0.0,0.0,0.0,0.0,0.0,0.0,0.0,0.0,2.862,2.862,2.862,2.862,2.862,2.862,2.862,2.862,2.862,2.862,2.862,2.862,2.862,2.8463,2.8222,2.85,2.8162,2.7461,2.7993,2.8765,2.9746,3.1178,3.1664,3.1664,3.1664,3.1664,3.1664,3.1664,3.1677,3.177,3.2358,3.2545,3.2652,3.324,3.3414,3.3066,3.1717,3.0141,2.8354,2.7144,2.6143,2.5249,2.3583,2.3001,2.2855,2.2855,2.3591,2.4366,2.4557,2.5059,2.5506,2.5506,2.5336,2.4256,2.1864,2.1384,2.0513,1.8295,1.786,1.786,1.786,1.786,1.786,1.786,1.786,1.6962,1.452,1.2071,0.9616,0.7393,0.4933,0.3589,0.3589,0.3589,0.3589,0.3589,0.3589,0.3589,0.3589,0.3589,0.3589,2.9367,0.0,0.0,0.0,0.0,0.0,0.0,0.0,0.0,0.0,0.0,0.0,0.0,0.0,0.0,0.0,0.0,0.0,0.0,0.0,0.0,0.0,0.0,0.0,0.0,0.0,0.0,0.0,0.0,0.0,0.0,2.862,2.862,2.862,2.862,2.862,2.862,2.862,2.862,2.862,2.862,2.862,2.862,2.862,2.8463,2.821,2.8294,2.8089,2.7727,2.8818,2.9835,3.0596,3.1447,3.1664,3.1664,3.1664,3.1664,3.1664,3.1664,3.1797,3.2038,3.2425,3.2679,3.2919,3.3293,3.2325,3.1259,3.1346,2.9032,2.6682,2.6766,2.5427,2.4252,2.3554,2.3521,2.3747,2.3891,2.4117,2.4539,2.5041,2.5273,2.5458,2.5326,2.4578,2.3365,2.1636,2.0733,1.9632,1.8088,1.786,1.786,1.786,1.786,1.786,1.786,1.786,1.6077,1.2071,1.118,0.9616,0.7393,0.4933,0.3589,0.3589,0.3589,0.3589,0.3589,0.3589,0.3589,0.3589,0.3589,0.3589,3.005,0.0,0.0,0.0,0.0,0.0,0.0,0.0,0.0,0.0,0.0,0.0,0.0,0.0,0.0,0.0,0.0,0.0,0.0,0.0,0.0,0.0,0.0,0.0,0.0,0.0,0.0,0.0,0.0,0.0,0.0,2.862,2.862,2.862,2.862,2.862,2.862,2.862,2.862,2.862,2.8512,2.8512,2.862,2.862,2.8463,2.8198,2.8089,2.8205,2.8356,2.9269,3.0075,3.0916,3.1487,3.1664,3.1664,3.1664,3.1664,3.1664,3.1664,3.1864,3.2144,3.2452,3.2746,3.3026,3.332,3.2174,3.0769,3.0478,2.839,2.6296,2.5972,2.5029,2.4053,2.3837,2.3983,2.4174,2.4393,2.4698,2.4957,2.5496,2.543,2.5354,2.5232,2.409,2.2923,2.1636,2.0065,1.875,1.8088,1.786,1.786,1.786,1.786,1.786,1.786,1.6969,1.473,1.0957,0.9839,0.8284,0.5826,0.4485,0.3589,0.3589,0.3589,0.3589,0.3589,0.3589,0.3589,0.3589,0.3589,0.3589,0.0,0.0,0.0,0.0,0.0,0.0,0.0,0.0,0.0,0.0,0.0,0.0,0.0,0.0,0.0,0.0,0.0,0.0,0.0,0.0,0.0,0.0,0.0,0.0,0.0,0.0,0.0,0.0,0.0,0.0,0.0,2.862,2.862,2.862,2.862,2.862,2.862,2.862,2.862,2.862,2.8343,2.8331,2.8584,2.8584,2.8439,2.8186,2.792,2.8156,2.8979,2.9558,3.0101,3.0916,3.1474,3.1664,3.1664,3.1664,3.1664,3.1664,3.1664,3.1877,3.2185,3.2452,3.2759,3.3066,3.316,3.2225,3.0648,2.9457,2.779,2.6317,2.526,2.4882,2.4674,2.4265,2.4183,2.4375,2.4566,2.4911,2.5279,2.5458,2.5336,2.5203,2.5184,2.4063,2.2668,2.14,1.9177,1.786,1.786,1.786,1.786,1.786,1.786,1.786,1.786,1.5622,1.3177,1.0953,0.8507,0.605,0.3589,0.3589,0.3589,0.3589,0.3589,0.3589,0.3589,0.3589,0.3589,0.3589,0.3589,0.3589,0.0,0.0,0.0,0.0,0.0,0.0,0.0,0.0,0.0,0.0,0.0,0.0,0.0,0.0,0.0,0.0,0.0,0.0,0.0,0.0,0.0,0.0,0.0,0.0,0.0,0.0,0.0,0.0,0.0,0.0,2.862,2.862,2.862,2.862,2.862,2.862,2.862,2.862,2.862,2.862,2.8343,2.8234,2.8294,2.8294,2.8258,2.8186,2.792,2.7956,2.8411,2.957,3.0077,3.0319,3.1284,3.1664,3.1664,3.1664,3.1664,3.1664,3.1664,3.2011,3.2465,3.2519,3.2893,3.3173,3.2023,3.0442,2.882,2.7811,2.6022,2.4402,2.4825,2.4882,2.4929,2.488,2.4945,2.5048,2.5245,2.5477,2.5402,2.5279,2.5232,2.5156,2.4986,2.3207,2.1213,1.8964,1.8295,1.786,1.786,1.786,1.786,1.786,1.786,1.786,1.786,1.5622,1.3177,1.0953,0.8507,0.605,0.3589,0.3589,0.3589,0.3589,0.3589,0.3589,0.3589,0.3589,0.3589,0.3589,0.3589,0.3604,0.0,0.0,0.0,0.0,0.0,0.0,0.0,0.0,0.0,0.0,0.0,0.0,0.0,0.0,0.0,0.0,0.0,0.0,0.0,0.0,0.0,0.0,0.0,0.0,0.0,0.0,0.0,0.0,0.0,2.862,2.862,2.862,2.862,2.862,2.862,2.862,2.862,2.8487,2.8427,2.8415,2.8017,2.7824,2.7836,2.7956,2.7944,2.7836,2.7944,2.8193,2.8429,2.9582,3.0319,3.0522,3.1284,3.1664,3.1664,3.1664,3.1664,3.169,3.1824,3.2171,3.2572,3.2706,3.2537,3.2213,3.1538,2.9573,2.7578,2.7079,2.5703,2.4316,2.4854,2.4958,2.508,2.5307,2.543,2.5534,2.5629,2.5657,2.56,2.5383,2.5279,2.5137,2.492,2.2909,2.0513,1.8302,1.786,1.786,1.786,1.786,1.786,1.786,1.786,1.7424,1.6305,1.4065,1.1621,0.9174,0.6719,0.4933,0.3589,0.3589,0.3589,0.3589,0.3589,0.3589,0.3589,0.3589,0.3589,0.3589,0.3589,0.3607,0.0,0.0,0.0,0.0,0.0,0.0,0.0,0.0,0.0,0.0,0.0,0.0,0.0,0.0,0.0,0.0,0.0,0.0,0.0,0.0,0.0,0.0,0.0,0.0,0.0,0.0,0.0,0.0,0.0,2.8572,2.862,2.862,2.8596,2.8548,2.8548,2.8524,2.8487,2.8246,2.8137,2.8125,2.7655,2.7425,2.7425,2.7642,2.763,2.7449,2.792,2.8393,2.8619,2.9709,3.0331,3.0916,3.1487,3.1664,3.1664,3.1664,3.1664,3.1717,3.1998,3.2291,3.2599,3.2485,3.1918,3.1117,3.06,2.8808,2.6803,2.6673,2.5762,2.4835,2.4835,2.5033,2.5279,2.543,2.5676,2.5874,2.5874,2.5855,2.578,2.56,2.5383,2.4926,2.4493,2.2699,2.0513,1.8302,1.786,1.786,1.786,1.786,1.786,1.786,1.786,1.6969,1.452,1.2061,0.9616,0.7393,0.4933,0.3589,0.3589,0.3589,0.3589,0.3589,0.3589,0.3589,0.3589,0.3589,0.3589,0.3589,0.3596,0.3614,0.0,0.0,0.0,0.0,0.0,0.0,0.0,0.0,0.0,0.0,0.0,0.0,0.0,0.0,0.0,0.0,0.0,0.0,0.0,0.0,0.0,0.0,0.0,0.0,0.0,0.0,0.0,0.0,2.8391,2.8367,2.8608,2.862,2.8512,2.827,2.8258,2.8149,2.792,2.7884,2.786,2.786,2.757,2.7425,2.7425,2.7461,2.7449,2.7437,2.7739,2.8221,2.8619,2.9709,3.0331,3.0916,3.1487,3.1664,3.1664,3.1664,3.1664,3.1717,3.1998,3.2291,3.239,3.1285,3.0989,3.0514,2.8071,2.6839,2.619,2.5108,2.4814,2.4627,2.4627,2.5033,2.543,2.5279,2.5676,2.6082,2.6082,2.595,2.5827,2.578,2.5477,2.4486,2.2303,2.1612,2.0513,1.8302,1.786,1.786,1.786,1.786,1.786,1.786,1.786,1.6969,1.452,1.2061,0.9616,0.7393,0.4933,0.3589,0.3589,0.3589,0.3589,0.3589,0.3589,0.3589,0.3589,0.3589,0.3589,0.3589,0.3618,0.3645,0.0,0.0,0.0,0.0,0.0,0.0,0.0,0.0,0.0,0.0,0.0,0.0,0.0,0.0,0.0,0.0,0.0,0.0,0.0,0.0,0.0,0.0,0.0,0.0,0.0,0.0,0.0,0.0,2.8137,2.8101,2.8379,2.8246,2.8113,2.7993,2.798,2.7932,2.7811,2.7667,2.7522,2.7377,2.7401,2.7425,2.7425,2.757,2.7642,2.7655,2.792,2.8417,2.883,2.9772,3.0331,3.0916,3.1487,3.1664,3.1664,3.1664,3.1664,3.173,3.2198,3.1841,3.1227,3.0864,2.976,2.8164,2.6932,2.598,2.521,2.4566,2.44,2.44,2.44,2.4778,2.5137,2.5062,2.5506,2.595,2.595,2.5978,2.5931,2.5704,2.4957,2.3595,2.1636,2.0945,1.9838,1.8095,1.786,1.786,1.786,1.786,1.786,1.786,1.6741,1.4958,1.2511,1.0066,0.7834,0.5383,0.4264,0.3589,0.3589,0.3589,0.3589,0.3589,0.3589,0.3589,0.3589,0.3589,0.3589,0.3589,0.3621,0.3652,0.0,0.0,0.0,0.0,0.0,0.0,0.0,0.0,0.0,0.0,0.0,0.0,0.0,0.0,0.0,0.0,0.0,0.0,0.0,0.0,0.0,0.0,0.0,0.0,0.0,0.0,0.0,0.0,2.786,2.7824,2.8089,2.792,2.7787,2.7715,2.7715,2.7679,2.7618,2.7413,2.7256,2.7135,2.7329,2.7486,2.763,2.7824,2.7956,2.8029,2.8338,2.8777,2.918,3.0013,3.0713,3.1107,3.1474,3.1664,3.1664,3.1664,3.1717,3.1851,3.197,3.1202,3.0157,2.9819,2.8257,2.6358,2.6005,2.5062,2.4117,2.4173,2.4183,2.4202,2.4249,2.457,2.4901,2.4958,2.5354,2.578,2.5874,2.6025,2.6025,2.5657,2.453,2.2992,2.1702,2.0324,1.9192,1.8088,1.786,1.786,1.786,1.786,1.786,1.786,1.5844,1.3399,1.0957,0.8501,0.6274,0.3814,0.3589,0.3589,0.3589,0.3589,0.3589,0.3589,0.3589,0.3589,0.3589,0.3589,0.3594,0.3604,0.3632,0.3663,0.0,0.0,0.0,0.0,0.0,0.0,0.0,0.0,0.0,0.0,0.0,0.0,0.0,0.0,0.0,0.0,0.0,0.0,0.0,0.0,0.0,0.0,0.0,0.0,0.0,0.0,0.0,0.0,2.7594,2.7558,2.7824,2.7824,2.7703,2.7449,2.7437,2.7329,2.7075,2.7051,2.7172,2.7401,2.7413,2.7679,2.8162,2.8174,2.8331,2.8572,2.8901,2.9155,2.9733,3.0596,3.1093,3.1664,3.1664,3.1664,3.1664,3.1664,3.1837,3.1925,3.067,3.0342,2.9991,2.724,2.6313,2.5954,2.4516,2.3824,2.371,2.3918,2.3975,2.4022,2.4211,2.457,2.4929,2.5137,2.5354,2.5629,2.6025,2.6129,2.6054,2.5855,2.4731,2.3405,2.1874,2.0606,1.9192,1.8088,1.786,1.786,1.786,1.786,1.786,1.786,1.5844,1.3399,1.0957,0.8501,0.6274,0.3814,0.3589,0.3589,0.3589,0.3589,0.3589,0.3589,0.3589,0.3589,0.3589,0.3589,0.3604,0.3636,0.3663,0.3694,0.0,0.0,0.0,0.0,0.0,0.0,0.0,0.0,0.0,0.0,0.0,0.0,0.0,0.0,0.0,0.0,0.0,0.0,0.0,0.0,0.0,0.0,0.0,0.0,0.0,0.0,0.0,0.0,0.0,2.741,2.7498,2.7624,2.741,2.7148,2.7172,2.7123,2.7027,2.7027,2.716,2.7425,2.7594,2.786,2.821,2.8391,2.8715,2.9184,2.9455,2.9798,2.9988,3.0674,3.1297,3.1664,3.1664,3.1664,3.1664,3.1664,3.1851,3.1952,3.067,2.955,2.86,2.6627,2.5275,2.4471,2.3937,2.3701,2.3653,2.3729,2.3748,2.3805,2.4013,2.4277,2.4608,2.508,2.5354,2.5581,2.5874,2.5931,2.5903,2.5855,2.4082,2.2528,2.1891,1.9958,1.8302,1.7867,1.786,1.786,1.786,1.786,1.786,1.786,1.4292,1.1621,1.073,0.7166,0.4485,0.3589,0.3589,0.3589,0.3589,0.3589,0.3589,0.3589,0.3589,0.3589,0.3589,0.3589,0.3604,0.3636,0.3667,0.3699,2.9674,0.0,0.0,0.0,0.0,0.0,0.0,0.0,0.0,0.0,0.0,0.0,0.0,0.0,0.0,0.0,0.0,0.0,0.0,0.0,0.0,0.0,0.0,0.0,0.0,0.0,0.0,0.0,0.0,0.0,2.7232,2.731,2.7308,2.7003,2.7027,2.7027,2.7027,2.7208,2.7342,2.7597,2.7877,2.8283,2.8642,2.8642,2.8906,2.9305,2.9861,3.0128,3.0319,3.0903,3.1297,3.1664,3.1664,3.1664,3.1664,3.1664,3.1521,3.0894,2.9505,2.8004,2.6681,2.543,2.4245,2.3428,2.3635,2.3635,2.3635,2.3635,2.3635,2.3701,2.3994,2.4268,2.458,2.5005,2.526,2.5458,2.5676,2.5827,2.5931,2.5931,2.3892,2.1879,2.1749,1.9545,1.786,1.786,1.786,1.786,1.786,1.786,1.7632,1.6741,1.3177,1.0281,0.9616,0.5826,0.3589,0.3589,0.3589,0.3589,0.3589,0.3589,0.3589,0.3589,0.3589,0.3589,0.3589,0.3589,0.3611,0.3652,0.367,0.3701,0.0,0.0,0.0,0.0,0.0,0.0,0.0,0.0,0.0,0.0,0.0,0.0,0.0,0.0,0.0,0.0,0.0,0.0,0.0,0.0,0.0,0.0,0.0,0.0,0.0,0.0,0.0,0.0,2.6991,2.6991,2.7027,2.7027,2.7027,2.7027,2.7027,2.7027,2.7027,2.7558,2.7863,2.8136,2.8421,2.8743,2.9327,2.8735,2.8876,2.9327,2.9873,3.0509,3.0903,3.1474,3.1664,3.1664,3.1664,3.1664,3.1664,3.1664,3.0664,2.8974,2.7367,2.568,2.4235,2.3211,2.2806,2.2806,2.3428,2.3635,2.3635,2.3635,2.3635,2.3729,2.4154,2.457,2.4882,2.4882,2.5062,2.526,2.5458,2.5827,2.6129,2.6129,2.398,2.2145,2.192,1.9841,1.7867,1.786,1.786,1.786,1.786,1.786,1.6969,1.452,1.2061,0.9839,0.7393,0.4933,0.3589,0.3589,0.3589,0.3589,0.3589,0.3589,0.3589,0.3589,0.3589,0.3589,0.3589,0.3589,0.3621,0.3681,0.3684,0.3716,2.8545,0.0,0.0,0.0,0.0,0.0,0.0,0.0,0.0,0.0,0.0,0.0,0.0,0.0,0.0,0.0,0.0,0.0,0.0,0.0,0.0,0.0,0.0,0.0,0.0,0.0,0.0,0.0,2.7159,2.7195,2.6979,2.7027,2.7027,2.7027,2.7027,2.7027,2.7027,2.7558,2.7876,2.8161,2.8603,2.8926,2.9314,2.9093,2.9454,2.9883,3.0259,3.0603,3.1155,3.1343,3.1476,3.165,3.1436,3.1476,3.1664,3.1664,3.0664,2.8974,2.7367,2.568,2.4235,2.3211,2.2806,2.2806,2.3428,2.3635,2.3635,2.3635,2.3635,2.3729,2.4154,2.457,2.4882,2.4882,2.5156,2.543,2.5506,2.5827,2.6129,2.6129,2.465,2.3044,2.2153,2.0294,1.8743,1.8088,1.786,1.786,1.786,1.786,1.6969,1.452,1.2061,0.9839,0.7393,0.4933,0.3589,0.3589,0.3589,0.3589,0.3589,0.3589,0.3589,0.3589,0.3589,0.3589,0.3589,0.3611,0.3643,0.3681,0.3726,0.3754,2.8939,2.9008,0.0,0.0,0.0,0.0,2.9128,3.1396,0.0,0.0,0.0,0.0,0.0,0.0,0.0,0.0,0.0,0.0,0.0,0.0,0.0,0.0,0.0,0.0,0.0,2.7027,2.7027,2.7027,2.7159,2.7234,2.6991,2.7027,2.7027,2.7027,2.7027,2.7027,2.7027,2.7752,2.8189,2.8364,2.8843,2.9286,2.952,2.9384,2.9543,2.99,3.0134,3.0424,3.0862,3.0862,3.1102,3.1463,3.1289,3.133,3.1517,3.1757,3.0173,2.7775,2.6882,2.4952,2.259,2.2184,2.2184,2.2599,2.3014,2.3428,2.3635,2.3635,2.3757,2.3956,2.4202,2.457,2.4882,2.4882,2.5137,2.5402,2.5477,2.578,2.6007,2.6007,2.4822,2.3466,2.2046,2.0684,1.9192,1.8088,1.786,1.786,1.786,1.786,1.6514,1.3177,1.1621,0.939,0.605,0.4485,0.3589,0.3589,0.3589,0.3589,0.3589,0.3589,0.3589,0.3589,0.3589,0.3604,0.3628,0.3632,0.3656,0.3701,0.375,0.3772,2.9168,2.9185,2.9316,2.9316,0.0,0.0,2.8707,3.1449,0.0,0.0,0.0,0.0,0.0,0.0,0.0,0.0,0.0,0.0,0.0,0.0,0.0,0.0,0.0,0.0,2.7027,2.7027,2.7027,2.7027,2.7027,2.7027,2.7027,2.7027,2.7027,2.7027,2.7027,2.7027,2.7027,2.7933,2.8474,2.8487,2.9287,2.9818,2.994,2.9533,2.9495,2.994,2.9952,3.0241,3.0354,3.0354,3.0702,3.1223,3.1196,3.1223,3.1343,3.1891,2.9518,2.5997,2.6232,2.3622,2.032,2.0945,2.157,2.1977,2.2599,2.3221,2.3428,2.3635,2.3937,2.4258,2.4258,2.457,2.4882,2.4882,2.5062,2.5279,2.5458,2.5704,2.5855,2.5808,2.4731,2.3431,2.1899,2.0614,1.9405,1.8088,1.786,1.786,1.786,1.786,1.6077,1.1172,1.073,0.8724,0.4039,0.3589,0.3589,0.3589,0.3589,0.3589,0.3589,0.3589,0.3589,0.3589,0.3589,0.3621,0.3681,0.3652,0.367,0.3733,0.3757,0.3772,0.0,0.0,0.0,0.0,0.0,0.0,2.7458,2.7344,2.7785,0.0,0.0,0.0,0.0,0.0,0.0,0.0,0.0,0.0,0.0,0.0,0.0,0.0,0.0,0.0,2.7027,2.7027,2.7027,2.7027,2.7027,2.7027,2.7027,2.7027,2.7027,2.7027,2.7027,2.7027,2.7027,2.7933,2.8474,2.8474,2.944,2.9787,2.9913,2.9853,2.984,2.994,3.0106,3.0408,3.0354,3.0354,3.0702,3.1209,3.0969,3.1169,3.1623,3.1971,2.9518,2.5997,2.6232,2.3622,2.032,2.0945,2.1362,2.157,2.2599,2.2806,2.3014,2.3428,2.3937,2.4258,2.4258,2.457,2.4882,2.4882,2.5184,2.5458,2.5506,2.5808,2.5978,2.5629,2.532,2.4334,2.2121,2.1285,2.0278,1.8295,1.786,1.786,1.786,1.786,1.6077,1.1172,1.073,0.8724,0.4039,0.3589,0.3589,0.3589,0.3589,0.3589,0.3589,0.3589,0.3589,0.3589,0.3589,0.3621,0.3681,0.3674,0.3701,0.3764,0.3768,0.3772,0.0,0.0,0.0,2.7146,0.0,0.0,0.0,2.5841,2.6509,0.0,0.0,0.0,0.0,0.0,0.0,0.0,0.0,0.0,0.0,0.0,0.0,0.0,0.0,0.0,2.7194,2.7135,2.6966,2.7194,2.7135,2.6966,2.7194,2.7135,2.7027,2.7027,2.7027,2.7027,2.7377,2.8113,2.8655,2.8835,2.9554,2.9913,2.9913,2.9913,2.9913,2.9927,3.0074,3.014,3.014,3.014,3.0394,3.0795,3.0795,3.0969,3.1303,3.1891,2.9518,2.5997,2.6232,2.3622,2.032,2.0737,2.0945,2.1362,2.1769,2.2392,2.2806,2.3221,2.3727,2.4258,2.4258,2.457,2.491,2.5005,2.5203,2.5411,2.5629,2.5827,2.5874,2.5106,2.5273,2.4744,2.1997,2.1449,2.0513,1.8302,1.786,1.786,1.786,1.6741,1.4747,1.118,0.9843,0.8057,0.4264,0.4039,0.4039,0.4039,0.3814,0.3589,0.3589,0.3589,0.3589,0.3589,0.383,0.3863,0.3681,0.3925,0.3959,0.3772,0.3772,0.3772,0.0,0.0,0.0,0.0,0.0,2.5293,0.0,0.0,0.0,0.0,0.0,0.0,0.0,0.0,0.0,0.0,0.0,0.0,0.0,0.0,0.0,0.0,0.0,0.0,0.0,2.7309,2.7214,2.7343,2.705,2.7087,2.7343,2.7194,2.7135,2.7135,2.7087,2.7279,2.792,2.8231,2.8809,2.926,2.9761,2.9913,2.9913,2.9913,2.9913,2.9913,2.9913,2.9913,2.9913,2.9913,3.006,3.0314,3.0662,3.0822,3.0969,3.1797,2.9518,2.5997,2.6232,2.3622,2.032,2.032,2.0737,2.1154,2.1154,2.1977,2.2599,2.2599,2.3308,2.4046,2.4046,2.4355,2.4502,2.4669,2.4743,2.5067,2.5189,2.5282,2.5254,2.4603,2.4557,2.3994,2.1653,2.1384,2.0513,1.8302,1.786,1.786,1.786,1.585,1.3399,1.0957,0.895,0.6943,0.4488,0.4264,0.4264,0.4264,0.3815,0.3589,0.3589,0.3589,0.3589,0.3589,0.4301,0.4333,0.3681,0.4405,0.4442,0.3772,0.3772,0.3772,0.0,0.0,0.0,0.0,2.4238,0.0,0.0,0.0,2.1437,2.0272,0.0,0.0,0.0,0.0,0.0,0.0,0.0,0.0,0.0,0.0,0.0,0.0,0.0,0.0,0.0,2.814,2.7745,2.7281,2.705,2.7087,2.7343,2.7367,2.7201,2.7201,2.7511,2.7801,2.8474,2.8577,2.9052,2.9547,2.9853,2.9913,2.9913,2.9913,2.9913,2.9913,2.9913,2.9913,2.9913,2.9913,2.994,3.002,3.0581,3.0955,3.1249,3.1877,2.9518,2.5997,2.6232,2.3622,2.032,2.032,2.0737,2.1154,2.1154,2.157,2.2184,2.2184,2.2468,2.277,2.277,2.3062,2.3364,2.3382,2.3524,2.3666,2.3719,2.3852,2.3923,2.3737,2.2779,2.1825,2.0757,2.0953,2.0513,1.8302,1.786,1.786,1.786,1.585,1.3399,1.0957,0.8724,0.6277,0.3815,0.3589,0.3589,0.3589,0.3589,0.3589,0.3589,0.3589,0.3589,0.3589,0.4301,0.4333,0.3681,0.4405,0.4442,0.3772,0.3772,0.3772,0.0,0.0,0.0,0.0,0.0,0.0,2.2443,0.0,2.0065,0.0,0.0,0.0,0.0,0.0,0.0,0.0,2.1839,0.0,0.0,0.0,0.0,0.0,0.0,0.0,0.0,0.0,0.0,0.0,2.7418,2.7628,2.6847,2.7084,2.7268,2.746,2.7498,2.789,2.8822,2.8717,2.923,2.9977,2.988,2.9913,2.9913,2.9913,2.9913,2.9913,2.9913,2.9913,2.9913,2.9913,2.9913,2.998,3.0568,3.0862,3.1049,3.1637,2.9384,2.5986,2.6082,2.3527,2.032,2.032,2.0529,2.0737,2.0737,2.1154,2.1587,2.1699,2.2134,2.2583,2.2697,2.2926,2.3154,2.3277,2.3365,2.3462,2.3576,2.3664,2.3664,2.3035,2.2549,2.1825,2.0316,1.9845,1.9405,1.8088,1.786,1.786,1.786,1.452,1.1848,1.073,0.7611,0.5159,0.4264,0.4039,0.4039,0.4039,0.3814,0.3589,0.3589,0.3589,0.3589,0.3589,0.4546,0.4585,0.3681,0.4658,0.4698,0.3772,0.3772,0.3772,2.55,0.0,0.0,0.0,0.0,0.0,0.0,0.0,0.0,0.0,1.9374,0.0,0.0,0.0,1.9699,2.0716,0.0,2.0729,0.0,0.0,0.0,0.0,0.0,0.0,0.0,0.0,0.0,2.6265,2.7171,2.7357,2.6522,2.7101,2.7548,2.7708,2.7635,2.8079,2.9244,2.8968,2.933,3.0354,3.006,2.9913,2.9913,2.9913,2.9913,2.9913,2.9913,2.9913,2.9913,2.9913,2.9967,3.0087,3.0595,3.0835,3.0982,3.0988,2.8812,2.6061,2.5471,2.31,2.032,2.032,2.032,2.032,2.032,2.0529,2.0987,2.1171,2.1568,2.2173,2.2371,2.2561,2.2734,2.288,2.2923,2.2949,2.3078,2.3104,2.3078,2.2711,2.2013,2.1096,2.0088,1.9405,1.8736,1.8088,1.786,1.7632,1.6969,1.3177,1.0504,0.9839,0.65,0.4264,0.4264,0.4264,0.4264,0.4264,0.3815,0.3589,0.3589,0.3589,0.3589,0.3589,0.4786,0.4827,0.3681,0.4911,0.4947,0.3772,0.3772,0.3772,0.0,0.0,0.0,2.4336,0.0,0.0,0.0,0.0,2.0269,0.0,1.9652,1.9458,1.9458,1.9241,1.9328,1.9979,2.0106,0.0,0.0,0.0,0.0,0.0,0.0,0.0,0.0,0.0,2.6724,2.4957,2.575,2.63,2.6073,2.7304,2.793,2.7917,2.7984,2.8604,2.9486,2.9205,2.9499,3.0354,3.006,2.9913,2.9913,2.9913,2.9913,2.9913,2.9913,2.9913,2.9913,2.9913,3.0087,3.0381,3.0675,3.0969,3.1089,2.9537,2.7893,2.6105,2.4099,2.2007,2.032,2.032,2.032,2.032,2.032,2.032,2.0361,2.0547,2.0718,2.0897,2.1075,2.1254,2.1384,2.1384,2.1384,2.1384,2.1408,2.1408,2.1612,2.2278,2.0505,1.9192,2.0278,2.0065,1.9192,1.8088,1.786,1.6969,1.4747,1.2284,0.9839,0.7616,0.5157,0.3589,0.3589,0.3589,0.3589,0.3589,0.3589,0.3589,0.3589,0.3589,0.3589,0.3589,0.433,0.4367,0.3681,0.4442,0.4476,0.3772,0.3772,0.3772,0.0,0.0,2.8726,2.8089,0.0,0.0,0.0,0.0,0.0,0.0,2.0318,2.0001,1.9881,1.9927,1.9998,2.026,2.0501,2.076,0.0,0.0,0.0,0.0,0.0,0.0,0.0,0.0,0.0,2.4315,2.5376,2.5581,2.4661,2.6187,2.7131,2.7099,2.7931,2.8617,2.9486,2.9379,2.9673,3.0354,3.006,2.9913,2.9913,2.9913,2.9913,2.9913,2.9913,2.9913,2.9927,3.0127,3.0274,3.0408,3.0889,3.1263,3.1367,2.9418,2.7604,2.5724,2.2391,2.0887,2.032,2.032,2.032,2.032,2.032,2.032,2.0385,2.0686,2.0807,2.0921,2.1222,2.1343,2.1384,2.1384,2.1384,2.1384,2.1384,2.1384,2.1612,2.2253,2.1384,2.0505,2.0505,2.0065,1.9192,1.8088,1.786,1.6969,1.452,1.2284,0.9839,0.7393,0.4933,0.3589,0.3589,0.3589,0.3589,0.3589,0.3589,0.3589,0.3589,0.3589,0.3589,0.3589,0.4786,0.5058,0.4367,0.4911,0.4947,0.4476,0.4008,0.3772,3.2751,3.2095,0.0,3.0173,2.9229,0.0,2.7195,0.0,2.3405,0.0,2.2743,2.2154,2.1346,2.132,2.1255,2.073,2.0912,2.1189,0.0,2.1162,0.0,0.0,0.0,0.0,0.0,0.0,2.4238,2.2704,2.3899,2.4286,2.3607,2.5436,2.6598,2.6827,2.7812,2.867,2.9325,2.9432,2.9726,3.0207,3.0114,3.002,2.9913,3.002,3.002,2.9913,2.9913,2.9913,2.994,3.0234,3.0421,3.0568,3.1036,3.0897,3.0498,2.841,2.6142,2.3644,2.1061,2.032,2.032,2.032,2.032,2.032,2.032,2.0369,2.0523,2.1002,2.1051,2.1059,2.1555,2.153,2.1384,2.1384,2.1384,2.1384,2.1384,2.1384,2.1595,2.2489,2.2042,2.1376,2.0945,2.0073,1.9192,1.8088,1.786,1.6969,1.452,1.2284,0.9839,0.7393,0.4933,0.3589,0.3589,0.3589,0.3589,0.3589,0.3589,0.3589,0.3589,0.3589,0.3604,0.3639,0.458,0.4619,0.4426,0.4929,0.5182,0.4711,0.4239,0.4008]},{"header":{"parameterUnit":"m.s-1","parameterCategory":1,"la1":30.6,"la2":29.2853,"lo1":-89.7004,"lo2":-87.6739,"dy":0.0162,"dx":0.0183,"nx":112,"ny":82,"refTime":"2023-04-27T00:00:00:Z","depth":0,"parameterNumber":3,"parameterNumberName":"V-component_of_WINDS"},"data":[0.0,0.0,0.0,0.0,0.0,0.0,0.0,0.0,0.0,0.0,0.0,0.0,0.0,0.0,0.0,0.0,0.0,0.0,0.0,0.0,0.0,0.0,0.0,0.0,0.0,0.0,0.0,0.0,0.0,0.0,0.0,0.0,0.0,0.0,0.0,0.0,0.0,0.0,0.0,0.0,0.0,0.0,0.0,0.0,0.0,0.0,0.0,0.0,0.0,0.0,0.0,0.0,0.0,0.0,0.0,0.0,0.0,0.0,0.0,0.0,0.0,0.0,0.0,0.0,0.0,0.0,0.0,0.0,0.0,0.0,0.0,0.0,0.0,0.0,0.0,0.0,0.0,0.0,0.0,0.0,0.0,0.0,0.0,0.0,0.0,0.0,0.0,0.0,0.0,0.0,-3.7557,-5.0133,-5.6854,-6.0723,-6.14,-6.1762,-5.6975,-4.5352,0.0,0.0,0.0,0.0,0.0,0.0,0.0,0.0,0.0,0.0,0.0,0.0,0.0,0.0,0.0,0.0,0.0,0.0,0.0,0.0,0.0,0.0,0.0,0.0,0.0,0.0,0.0,0.0,0.0,0.0,0.0,0.0,0.0,0.0,0.0,0.0,0.0,0.0,0.0,0.0,0.0,0.0,0.0,0.0,0.0,0.0,0.0,0.0,0.0,0.0,0.0,0.0,0.0,0.0,0.0,0.0,0.0,0.0,0.0,0.0,0.0,0.0,0.0,0.0,0.0,0.0,0.0,0.0,0.0,0.0,0.0,0.0,0.0,0.0,0.0,0.0,0.0,0.0,0.0,0.0,0.0,0.0,0.0,0.0,0.0,0.0,0.0,0.0,0.0,0.0,0.0,0.0,0.0,0.0,0.0,0.0,0.0,0.0,0.0,0.0,0.0,0.0,0.0,0.0,-4.5153,-5.8107,-6.1042,-6.2076,-6.2212,-6.3439,-5.8836,-4.6359,0.0,0.0,0.0,0.0,0.0,0.0,0.0,0.0,0.0,0.0,0.0,0.0,0.0,0.0,0.0,0.0,0.0,0.0,0.0,0.0,0.0,0.0,0.0,0.0,0.0,0.0,0.0,0.0,0.0,0.0,0.0,0.0,0.0,0.0,0.0,0.0,0.0,0.0,0.0,0.0,0.0,0.0,0.0,0.0,0.0,0.0,0.0,0.0,0.0,0.0,0.0,0.0,0.0,0.0,0.0,0.0,0.0,0.0,0.0,0.0,0.0,0.0,0.0,0.0,0.0,0.0,0.0,0.0,0.0,0.0,0.0,0.0,0.0,0.0,0.0,0.0,0.0,0.0,0.0,0.0,0.0,0.0,0.0,0.0,0.0,0.0,0.0,0.0,0.0,0.0,0.0,0.0,0.0,0.0,0.0,0.0,0.0,0.0,0.0,0.0,0.0,0.0,0.0,-4.4304,-5.4185,-6.0603,-6.1941,-6.2381,-6.2381,-6.3863,-5.9254,-4.6234,-4.6662,0.0,0.0,0.0,0.0,0.0,0.0,0.0,0.0,0.0,0.0,0.0,0.0,0.0,0.0,0.0,0.0,0.0,0.0,0.0,0.0,0.0,0.0,0.0,0.0,0.0,0.0,0.0,0.0,0.0,0.0,0.0,0.0,0.0,0.0,0.0,0.0,0.0,0.0,0.0,0.0,0.0,0.0,0.0,0.0,0.0,0.0,0.0,0.0,0.0,0.0,0.0,0.0,0.0,0.0,0.0,0.0,0.0,0.0,0.0,0.0,0.0,0.0,0.0,0.0,0.0,0.0,0.0,0.0,0.0,0.0,0.0,0.0,0.0,0.0,0.0,0.0,0.0,0.0,0.0,0.0,0.0,0.0,0.0,0.0,0.0,0.0,0.0,0.0,0.0,0.0,0.0,0.0,0.0,0.0,0.0,0.0,0.0,0.0,0.0,0.0,0.0,0.0,-5.2095,-5.9237,-6.1172,-6.2096,-6.2547,-6.2421,-6.4079,-5.9388,-4.5945,-4.7144,0.0,0.0,0.0,0.0,0.0,0.0,0.0,0.0,0.0,0.0,0.0,0.0,0.0,0.0,0.0,0.0,0.0,0.0,0.0,0.0,0.0,0.0,0.0,0.0,0.0,0.0,0.0,0.0,0.0,0.0,0.0,0.0,0.0,0.0,0.0,0.0,0.0,0.0,0.0,0.0,0.0,0.0,0.0,0.0,0.0,0.0,0.0,0.0,0.0,0.0,0.0,0.0,0.0,0.0,0.0,0.0,0.0,0.0,0.0,0.0,0.0,0.0,0.0,0.0,0.0,0.0,0.0,0.0,0.0,0.0,0.0,0.0,0.0,0.0,0.0,0.0,0.0,0.0,0.0,0.0,0.0,0.0,0.0,0.0,0.0,0.0,0.0,0.0,0.0,0.0,0.0,0.0,0.0,0.0,0.0,0.0,0.0,0.0,0.0,0.0,0.0,0.0,-4.978,-5.5895,-6.117,-6.2446,-6.2768,-6.2419,-6.4348,-5.9822,-4.6314,-4.7165,0.0,0.0,0.0,0.0,0.0,0.0,0.0,0.0,0.0,0.0,0.0,0.0,0.0,0.0,0.0,0.0,0.0,0.0,0.0,0.0,0.0,0.0,0.0,0.0,0.0,0.0,0.0,0.0,0.0,0.0,0.0,0.0,0.0,0.0,0.0,0.0,0.0,0.0,0.0,0.0,0.0,0.0,0.0,0.0,0.0,0.0,0.0,0.0,0.0,0.0,0.0,0.0,0.0,0.0,0.0,0.0,0.0,0.0,0.0,0.0,0.0,0.0,0.0,0.0,0.0,0.0,0.0,0.0,0.0,0.0,0.0,0.0,0.0,0.0,0.0,0.0,0.0,0.0,0.0,0.0,0.0,0.0,0.0,0.0,0.0,0.0,0.0,0.0,0.0,0.0,0.0,0.0,0.0,0.0,0.0,0.0,0.0,0.0,0.0,0.0,0.0,0.0,-5.3583,-6.0969,-6.3371,-6.4305,-6.4916,-6.5159,-6.5951,-6.0779,-4.7533,0.0,0.0,0.0,0.0,0.0,0.0,0.0,0.0,0.0,0.0,0.0,0.0,0.0,0.0,0.0,0.0,0.0,0.0,0.0,0.0,0.0,0.0,0.0,0.0,0.0,0.0,0.0,0.0,0.0,0.0,0.0,0.0,0.0,0.0,0.0,0.0,0.0,0.0,0.0,0.0,0.0,0.0,0.0,0.0,0.0,0.0,0.0,0.0,0.0,0.0,0.0,0.0,0.0,0.0,0.0,0.0,0.0,0.0,0.0,0.0,0.0,0.0,0.0,0.0,0.0,0.0,0.0,0.0,0.0,0.0,0.0,0.0,0.0,0.0,0.0,0.0,0.0,0.0,0.0,0.0,0.0,0.0,0.0,0.0,0.0,0.0,0.0,0.0,0.0,0.0,0.0,0.0,0.0,0.0,0.0,0.0,0.0,0.0,0.0,0.0,0.0,0.0,-4.4747,-5.607,-6.4247,-6.4628,-6.5699,-6.6526,-6.6812,-6.7497,-6.2053,-4.8398,0.0,0.0,0.0,0.0,0.0,0.0,0.0,0.0,0.0,0.0,0.0,0.0,0.0,0.0,0.0,0.0,0.0,0.0,0.0,0.0,0.0,0.0,0.0,0.0,0.0,0.0,0.0,0.0,0.0,0.0,0.0,0.0,0.0,0.0,0.0,0.0,0.0,0.0,0.0,0.0,0.0,0.0,0.0,0.0,0.0,0.0,0.0,0.0,0.0,0.0,0.0,0.0,0.0,0.0,0.0,0.0,0.0,0.0,0.0,0.0,0.0,0.0,0.0,0.0,0.0,0.0,0.0,0.0,0.0,0.0,0.0,0.0,0.0,0.0,0.0,0.0,0.0,0.0,0.0,0.0,0.0,0.0,0.0,0.0,0.0,0.0,0.0,0.0,0.0,0.0,0.0,0.0,0.0,0.0,0.0,0.0,0.0,0.0,0.0,0.0,0.0,0.0,-4.4939,-5.6172,-6.4247,-6.4738,-6.6391,-6.733,-6.682,-6.8597,-6.3513,0.0,0.0,0.0,0.0,0.0,0.0,0.0,0.0,0.0,0.0,0.0,0.0,0.0,0.0,0.0,0.0,0.0,0.0,0.0,0.0,0.0,0.0,0.0,0.0,0.0,0.0,0.0,0.0,0.0,0.0,0.0,0.0,0.0,0.0,0.0,0.0,0.0,0.0,0.0,0.0,0.0,0.0,0.0,0.0,0.0,0.0,0.0,0.0,0.0,0.0,0.0,0.0,0.0,0.0,0.0,0.0,0.0,0.0,0.0,0.0,0.0,0.0,0.0,0.0,0.0,0.0,0.0,0.0,0.0,0.0,0.0,0.0,0.0,0.0,0.0,0.0,0.0,0.0,0.0,0.0,0.0,0.0,0.0,0.0,0.0,0.0,0.0,0.0,0.0,0.0,0.0,0.0,0.0,0.0,0.0,0.0,0.0,0.0,0.0,0.0,0.0,0.0,0.0,-4.5823,-5.7992,-6.6705,-6.7152,-6.8505,-6.945,-6.9836,-7.0144,-6.4028,-4.9311,0.0,0.0,0.0,0.0,0.0,0.0,0.0,0.0,0.0,0.0,0.0,0.0,0.0,0.0,0.0,0.0,0.0,0.0,0.0,0.0,0.0,0.0,0.0,0.0,0.0,0.0,0.0,0.0,0.0,0.0,0.0,0.0,0.0,0.0,0.0,0.0,0.0,0.0,0.0,0.0,0.0,0.0,0.0,0.0,0.0,0.0,0.0,0.0,0.0,0.0,0.0,0.0,0.0,0.0,0.0,0.0,0.0,0.0,0.0,0.0,0.0,0.0,0.0,0.0,0.0,0.0,0.0,0.0,0.0,0.0,0.0,0.0,0.0,0.0,0.0,0.0,0.0,0.0,0.0,0.0,0.0,0.0,0.0,0.0,0.0,0.0,0.0,0.0,0.0,0.0,0.0,0.0,0.0,0.0,0.0,0.0,0.0,0.0,0.0,0.0,0.0,0.0,-4.5524,-5.8113,-6.7392,-6.8256,-6.9702,-7.0842,-7.1422,-7.1514,-6.6365,-5.4321,0.0,0.0,0.0,0.0,0.0,0.0,0.0,0.0,0.0,0.0,0.0,0.0,0.0,0.0,0.0,0.0,0.0,0.0,0.0,0.0,0.0,0.0,0.0,0.0,0.0,0.0,0.0,0.0,0.0,0.0,0.0,0.0,0.0,0.0,0.0,0.0,0.0,0.0,0.0,0.0,0.0,0.0,0.0,0.0,0.0,0.0,0.0,0.0,0.0,0.0,0.0,0.0,0.0,0.0,0.0,0.0,0.0,0.0,0.0,0.0,0.0,0.0,0.0,0.0,0.0,0.0,0.0,0.0,0.0,0.0,0.0,0.0,0.0,0.0,0.0,0.0,0.0,0.0,0.0,0.0,0.0,0.0,0.0,0.0,0.0,0.0,0.0,0.0,0.0,0.0,0.0,0.0,0.0,0.0,0.0,0.0,0.0,0.0,0.0,0.0,0.0,0.0,-4.4629,-5.7465,-6.7085,-6.8576,-7.0404,-7.1573,-7.1915,-7.2573,-6.9538,-6.1426,0.0,0.0,0.0,0.0,0.0,0.0,0.0,0.0,0.0,0.0,0.0,0.0,0.0,0.0,0.0,0.0,0.0,0.0,0.0,0.0,0.0,0.0,0.0,0.0,0.0,0.0,0.0,0.0,0.0,0.0,0.0,0.0,0.0,0.0,0.0,0.0,0.0,0.0,0.0,0.0,0.0,0.0,0.0,0.0,0.0,0.0,0.0,0.0,0.0,0.0,0.0,0.0,0.0,0.0,0.0,0.0,0.0,0.0,0.0,0.0,-3.7253,0.0,0.0,0.0,0.0,0.0,0.0,0.0,0.0,0.0,0.0,0.0,0.0,0.0,0.0,0.0,0.0,0.0,0.0,0.0,0.0,0.0,0.0,0.0,0.0,0.0,0.0,0.0,0.0,0.0,0.0,0.0,0.0,0.0,0.0,0.0,0.0,0.0,0.0,0.0,0.0,0.0,-4.584,-5.915,-6.8925,-6.9913,-7.125,-7.1975,-7.1915,-7.2459,-6.9169,-6.0665,-5.9016,0.0,0.0,0.0,0.0,0.0,0.0,0.0,0.0,0.0,0.0,0.0,0.0,0.0,0.0,0.0,0.0,0.0,0.0,0.0,0.0,0.0,0.0,0.0,0.0,0.0,0.0,0.0,0.0,0.0,0.0,0.0,0.0,0.0,0.0,0.0,0.0,0.0,0.0,0.0,0.0,0.0,0.0,0.0,0.0,0.0,0.0,0.0,0.0,0.0,0.0,0.0,0.0,0.0,0.0,0.0,0.0,0.0,0.0,0.0,0.0,-3.866,0.0,0.0,0.0,0.0,0.0,0.0,0.0,0.0,0.0,0.0,0.0,0.0,0.0,0.0,0.0,0.0,0.0,0.0,0.0,0.0,0.0,0.0,0.0,0.0,0.0,0.0,0.0,0.0,0.0,0.0,0.0,0.0,0.0,0.0,0.0,0.0,0.0,0.0,0.0,0.0,-4.5005,-5.8737,-6.8841,-6.9992,-7.1417,-7.2365,-7.248,-7.2779,-7.0992,-6.6458,-6.2745,0.0,0.0,0.0,0.0,0.0,0.0,0.0,0.0,0.0,0.0,0.0,0.0,0.0,0.0,0.0,0.0,0.0,0.0,0.0,0.0,0.0,0.0,0.0,0.0,0.0,0.0,0.0,0.0,0.0,0.0,0.0,0.0,0.0,0.0,0.0,0.0,0.0,0.0,0.0,0.0,0.0,0.0,0.0,0.0,0.0,0.0,0.0,0.0,0.0,0.0,0.0,0.0,0.0,-4.4149,-4.4892,-4.6055,-4.4931,-4.4939,-4.5987,-4.8247,-4.9368,-4.9222,-4.4003,0.0,0.0,0.0,0.0,0.0,0.0,0.0,0.0,0.0,0.0,0.0,0.0,0.0,0.0,0.0,0.0,0.0,0.0,0.0,0.0,0.0,0.0,0.0,0.0,-4.7105,-4.6967,-4.7725,0.0,0.0,0.0,0.0,0.0,0.0,0.0,0.0,0.0,0.0,0.0,-4.4309,-5.8423,-6.8851,-7.0201,-7.1655,-7.2761,-7.3145,-7.3199,-7.3145,-7.2982,-6.6425,-6.1996,0.0,0.0,0.0,0.0,0.0,0.0,0.0,0.0,0.0,0.0,0.0,0.0,0.0,0.0,0.0,0.0,0.0,0.0,0.0,0.0,0.0,0.0,0.0,0.0,0.0,0.0,0.0,0.0,0.0,0.0,0.0,0.0,-3.9452,-4.2392,0.0,0.0,0.0,0.0,0.0,0.0,0.0,0.0,0.0,0.0,0.0,0.0,0.0,-4.1204,-4.1149,-4.7264,-5.0788,-5.1601,-5.6378,-5.9051,-5.9799,-6.0241,-6.0521,-6.0391,-5.543,0.0,-5.1713,-5.0366,0.0,0.0,0.0,0.0,0.0,0.0,0.0,0.0,0.0,0.0,0.0,0.0,0.0,0.0,0.0,0.0,0.0,0.0,0.0,0.0,0.0,0.0,-6.2829,-6.422,-5.9777,-5.6987,0.0,-4.9269,-3.7309,-4.2917,-3.9304,-3.4694,0.0,0.0,0.0,0.0,0.0,0.0,-4.6553,-6.1335,-7.186,-7.2028,-7.2797,-7.3268,-7.3199,-7.3199,-7.3145,-7.2982,-7.195,-6.8311,-6.1573,-6.7445,0.0,0.0,0.0,0.0,0.0,0.0,0.0,0.0,0.0,0.0,0.0,0.0,0.0,0.0,0.0,0.0,0.0,0.0,0.0,0.0,0.0,0.0,0.0,0.0,0.0,0.0,0.0,0.0,0.0,-4.1443,-4.5316,-4.4501,-4.2977,-4.0134,0.0,0.0,0.0,0.0,0.0,0.0,0.0,0.0,0.0,-4.2058,-4.6008,-4.8069,-4.797,-5.4458,-5.8035,-5.8767,-6.1245,-6.3033,-6.3984,-6.3988,-6.4179,-6.4334,-6.1402,-5.9911,-5.9203,-5.4262,-5.1876,-5.0614,0.0,0.0,0.0,0.0,-3.3081,-3.6098,-3.6458,-4.1625,-4.8076,-4.8455,0.0,0.0,0.0,0.0,0.0,0.0,0.0,0.0,0.0,0.0,-6.2434,-6.677,-6.5335,-6.378,-6.6685,-5.7134,-4.8604,0.0,-4.5764,-3.9402,-3.4734,-3.7709,0.0,0.0,0.0,-5.3272,-5.3685,-6.4196,-7.172,-7.216,-7.3332,-7.3892,-7.3394,-7.3713,-7.3787,-7.3252,-7.3145,-7.1544,-6.8184,-7.101,-6.8092,0.0,0.0,0.0,0.0,0.0,0.0,0.0,0.0,0.0,0.0,0.0,0.0,0.0,0.0,0.0,0.0,0.0,0.0,0.0,0.0,0.0,0.0,0.0,0.0,0.0,0.0,0.0,0.0,-4.4249,-4.9484,-4.7002,-4.6533,-4.4441,0.0,0.0,0.0,0.0,0.0,0.0,-4.3728,-4.4624,-4.5915,-4.7633,-5.2776,-5.543,-5.5341,-6.0433,-6.3313,-6.3898,-6.393,-6.447,-6.5618,-6.5108,-6.524,-6.5719,-6.5549,-6.5523,-6.5112,-5.8516,-5.5372,-5.4504,-5.2382,-4.8407,-4.3658,-4.1849,-4.2481,-4.4469,-4.5165,-5.0401,-5.6765,-5.726,-5.6169,-5.4435,-5.2684,0.0,0.0,0.0,0.0,-4.8875,-5.528,-5.8274,-6.0998,-6.6496,-6.7937,-6.7959,-6.7297,-6.2081,-5.7757,0.0,-5.3085,-4.6247,-4.0426,-4.4714,0.0,-3.8896,0.0,-5.891,-5.9476,-6.654,-7.1765,-7.2389,-7.3535,-7.4041,-7.3447,-7.393,-7.4041,-7.341,-7.3305,-7.3252,-7.3199,-7.289,-7.0937,-6.7067,0.0,0.0,0.0,0.0,0.0,0.0,0.0,0.0,0.0,0.0,0.0,0.0,0.0,0.0,0.0,0.0,0.0,0.0,0.0,0.0,0.0,0.0,0.0,0.0,0.0,0.0,0.0,0.0,0.0,-5.1955,-5.5145,0.0,0.0,0.0,0.0,-4.203,-4.1904,-4.4813,-5.1092,-5.1931,-5.5071,-6.1392,-6.3076,-6.3924,-6.3893,-6.4482,-6.5129,-6.5899,-6.5623,-6.59,-6.6491,-6.6459,-6.6669,-6.691,-6.691,-6.6735,-6.6236,-6.457,-6.3948,-6.3196,-5.6029,-5.2979,-5.1778,-4.4873,-4.7001,-5.3333,-5.4078,-5.9395,-6.594,-6.6667,-6.2476,-5.5947,-4.9358,-4.6802,0.0,0.0,-5.093,-5.6034,-5.6723,-6.1929,-6.7134,-6.765,-6.8348,-6.8576,-6.7433,-6.236,-5.961,0.0,-6.0717,-5.5712,-5.475,0.0,-5.4462,-4.7172,-5.4556,-6.092,-6.0956,-6.8147,-7.3283,-7.332,-7.341,-7.341,-7.3372,-7.341,-7.341,-7.3372,-7.3372,-7.3357,-7.3199,-7.3037,-7.3384,-7.4174,-6.7442,0.0,0.0,0.0,0.0,0.0,0.0,0.0,0.0,0.0,0.0,0.0,0.0,0.0,0.0,0.0,0.0,0.0,0.0,0.0,0.0,0.0,0.0,0.0,0.0,0.0,0.0,0.0,0.0,-5.3169,-5.425,0.0,-5.186,-5.1338,-5.0645,-4.9438,-5.2413,-5.5777,-5.896,-5.9932,-6.1258,-6.3515,-6.4545,-6.4875,-6.4805,-6.5453,-6.5905,-6.6161,-6.6607,-6.6855,-6.7109,-6.7109,-6.7317,-6.7491,-6.7285,-6.7567,-6.8011,-6.7254,-6.6348,-6.5384,-6.297,-6.2131,-6.1865,-5.9292,-6.02,-6.2795,-6.3056,-6.495,-6.7281,-6.7546,-6.6252,-6.4021,-6.0968,-6.0116,-6.0175,-5.996,-6.2287,-6.4733,-6.4846,-6.7158,-6.9323,-6.9241,-6.9447,-6.9502,-6.9013,-6.7428,-6.6804,-6.8945,-6.2888,-5.764,-5.8472,-6.3063,-6.4202,-5.7026,-6.3414,-6.9024,-6.9024,-7.2034,-7.4153,-7.4153,-7.4635,-7.471,-7.419,-7.4153,-7.393,-7.341,-7.3372,-7.3357,-7.3199,-7.3335,-7.4288,-7.5952,-7.3212,-6.758,0.0,0.0,0.0,0.0,0.0,0.0,0.0,0.0,0.0,0.0,0.0,0.0,0.0,0.0,0.0,0.0,0.0,0.0,0.0,0.0,0.0,0.0,0.0,0.0,0.0,0.0,-5.3555,-5.3883,-5.5138,-5.5748,-5.515,-5.535,-5.5722,-5.6222,-5.995,-6.2786,-6.3987,-6.4563,-6.5014,-6.5338,-6.5778,-6.5911,-6.5708,-6.6256,-6.6511,-6.6511,-6.7317,-6.7437,-6.7109,-6.7437,-6.6186,-6.3816,-6.6492,-6.6606,-6.5093,-6.772,-6.8242,-6.7327,-6.7385,-6.7829,-6.8241,-6.7592,-6.7652,-6.8069,-6.7976,-6.8142,-6.8341,-6.8619,-6.8752,-6.891,-6.8808,-6.8725,-6.8625,-6.8637,-6.9185,-6.9716,-6.967,-7.0015,-7.023,-7.0148,-7.0271,-7.0457,-7.023,-6.828,-6.7625,-7.1377,-6.6969,-6.1937,-5.9835,-6.4114,-6.5033,-5.7198,-6.0911,-6.4658,-6.4785,-6.7963,-7.0273,-7.044,-7.3626,-7.5453,-7.4673,-7.2076,-7.1266,-7.3193,-7.0971,-7.0843,-7.3617,-7.1405,-7.1069,-7.296,-7.0346,-6.5829,-5.9491,0.0,0.0,0.0,0.0,0.0,0.0,0.0,0.0,0.0,0.0,0.0,0.0,0.0,0.0,0.0,0.0,0.0,0.0,0.0,0.0,0.0,0.0,0.0,-4.465,-5.0498,-5.4719,-5.4812,-5.8831,-6.1346,-6.0581,-6.1656,-6.2347,-6.2179,-6.3437,-6.4745,-6.602,-6.5623,-6.5917,-6.7438,-6.7266,-6.7029,-6.7029,-6.7046,-6.7037,-6.7037,-6.7737,-6.7599,-6.6649,-6.7631,-6.3618,-5.6378,-6.4597,-6.3964,-5.784,-6.6532,-7.0115,-6.9765,-6.8719,-6.9263,-7.0415,-6.8393,-6.8327,-6.911,-6.8633,-6.9069,-7.0021,-7.0666,-7.0196,-6.9759,-7.1416,-7.1028,-7.0168,-7.0854,-7.0912,-7.0672,-7.051,-7.0299,-7.0134,-7.0134,-7.0766,-7.1208,-7.1027,-6.463,-6.2055,-7.2849,-7.3506,-6.9349,-6.0267,-5.9631,-5.7352,-4.8322,-4.7673,0.0,-4.8805,-5.6631,-6.2253,-6.2695,-7.0349,-7.5176,-7.4635,-6.7028,-6.5472,-7.2775,-6.651,-6.6183,-7.4434,-6.7561,-6.4476,-6.6197,-5.9164,-5.9564,-6.7754,0.0,0.0,0.0,0.0,0.0,0.0,0.0,0.0,0.0,0.0,0.0,0.0,0.0,0.0,0.0,0.0,0.0,0.0,0.0,0.0,0.0,0.0,-5.1466,-5.1871,-5.3875,-5.6654,-6.0043,-6.2073,-6.313,-6.3362,-6.3678,-6.4514,-6.5804,-6.625,-6.7221,-6.9124,-6.3381,-6.016,-6.0377,-5.9911,-5.9433,-5.9232,-6.51,-6.8084,-6.8084,-6.8065,-6.7959,-6.7663,-6.7451,-6.6274,-6.4557,-6.7057,-6.7427,-6.6409,-6.8847,-7.0381,-7.1098,-7.0236,-7.0497,-7.1252,-6.9943,-7.0043,-6.9916,-6.4283,-6.6311,-7.1412,-7.1564,-7.1367,-7.105,-7.1285,-7.1045,-7.0801,-7.0821,-7.0994,-7.127,-7.1187,-7.1601,-7.1966,-7.1966,-7.2533,-7.3053,-7.3046,-7.196,-7.2014,-7.5334,-7.6145,-7.5311,-7.2303,-7.1818,-7.0937,-6.8367,-6.8198,-6.8378,-6.8509,-7.1119,-7.2795,-7.2297,-6.9136,-6.9136,-7.4174,-6.7157,-6.5856,-7.3589,-7.3066,-7.341,-7.5478,-7.4281,-7.4174,-7.5547,-6.8135,-6.5464,0.0,0.0,0.0,0.0,0.0,0.0,0.0,0.0,0.0,0.0,0.0,0.0,0.0,0.0,0.0,0.0,0.0,0.0,0.0,0.0,0.0,0.0,-5.231,-5.6594,-5.8662,-5.8966,-6.0229,-6.3476,-6.4366,-6.5014,-6.5523,-6.5879,-6.6492,-6.7529,-6.7952,-6.8705,-6.9679,-6.5224,-6.1083,-5.7717,-6.0431,-6.0206,-5.6577,-6.4767,-6.8892,-6.8892,-6.9212,-6.9074,-6.8681,-6.8476,-6.6614,-6.3599,-6.7197,-6.7198,-6.4948,-6.8909,-7.0709,0.0,0.0,0.0,0.0,0.0,-7.127,-7.0742,-6.6502,-6.8144,-7.2201,-7.2314,-7.2,-7.1611,-7.2147,-6.937,-6.6097,-6.646,-6.42,-6.2413,-6.5834,-6.7175,-6.8651,-7.2277,-7.3797,-7.4456,-7.4713,-7.262,-7.1955,-7.6324,-7.4441,0.0,-7.7191,-7.4242,-6.9953,-6.593,-6.5311,-6.5421,-6.5605,-6.9319,-7.18,-7.1525,-7.0513,-7.1414,-7.5288,-6.8274,0.0,0.0,0.0,-7.1974,-7.2146,-7.3011,0.0,0.0,0.0,-6.4911,-6.8847,-6.4355,0.0,0.0,-6.2519,-5.9116,0.0,0.0,0.0,0.0,0.0,0.0,0.0,0.0,0.0,0.0,0.0,0.0,0.0,0.0,0.0,0.0,-5.6402,-5.9961,-6.4421,-6.4601,-6.461,-6.556,-6.6204,-6.6823,-6.7521,-6.8104,-6.8392,-6.8253,-6.9071,-6.9459,-6.9317,0.0,0.0,0.0,0.0,-6.4727,-5.7385,-6.547,-6.9574,-6.9606,-7.046,-7.046,-6.9702,-7.0195,-6.6204,-5.9439,-6.6582,-6.573,-5.9868,-6.8341,-7.1104,-7.0125,-7.0248,-7.117,-7.2362,-7.1632,-7.137,-7.1465,-7.106,0.0,0.0,-7.2946,-7.2472,-7.1987,-7.3447,-6.7722,-6.0867,-6.18,-5.6601,-5.2421,-5.9667,-6.1929,-6.4267,-7.2049,-7.4597,-7.5378,-7.6076,-7.0257,-6.7481,-7.6474,-7.1489,-6.8641,-7.7567,-7.1843,-6.3166,-5.4626,-5.3359,-5.3514,-5.401,-6.1132,-6.6299,-6.668,0.0,0.0,-7.7233,-6.9963,-6.8568,-7.5939,-7.0731,-6.7802,-6.874,-6.9177,-6.6217,-5.9445,-5.9323,-6.3427,-7.1733,-7.1808,-7.5797,-8.2837,-6.836,-6.5374,0.0,0.0,0.0,0.0,0.0,0.0,0.0,0.0,0.0,0.0,0.0,0.0,0.0,0.0,0.0,-5.5812,-6.018,-6.4159,-6.6721,-6.7409,-6.7628,-6.7868,-6.7964,-6.8492,-6.962,-6.9917,-7.0209,-7.0655,-7.0921,-7.1245,-7.1722,-6.5552,-6.1184,-5.9787,-6.0617,-6.009,-5.7825,-6.6122,-7.0059,-6.9817,0.0,0.0,-7.1043,-7.0565,-6.9867,-6.9255,-7.1057,-7.1051,-6.9988,-7.1799,-7.2491,-7.21,-7.137,-7.0781,-6.976,-6.4414,-6.668,-7.1626,-6.5315,-6.79,-7.4096,-7.3945,-7.3635,-7.3322,-7.338,-7.214,0.0,-7.0579,-6.9275,-6.8391,-7.0566,-7.122,-7.1874,-7.4248,-7.5371,-7.6043,-7.6172,-7.5378,-7.5299,-7.7737,-7.6699,-7.627,-7.8716,-7.7529,-7.5645,-7.3764,-7.349,-7.3527,-7.3624,-7.5559,-7.6675,-7.6138,-7.2202,-7.2055,-7.8078,-7.1833,-7.1041,-7.9161,-7.8624,-7.8592,-7.985,-7.9397,-7.8711,-7.7827,-7.7827,-7.8707,-8.0542,-8.1228,-8.2413,-8.3945,-8.0123,-7.951,0.0,0.0,0.0,0.0,0.0,0.0,0.0,0.0,0.0,0.0,0.0,-4.9075,0.0,0.0,-5.4124,-5.7811,-6.0635,-6.3848,-6.8012,-6.9093,-6.9439,-6.9439,-6.9439,-6.9801,-7.0857,-7.0921,-7.1051,-7.1375,-7.1407,-7.144,-7.144,-6.786,-6.394,-5.9827,-6.3649,-6.3846,-5.9633,-6.7892,-7.2063,-7.2136,-7.2031,-7.2241,-7.2696,-7.2178,-7.215,-7.2678,-7.2638,-7.2696,-7.2792,-7.2792,-7.3088,-7.3452,-7.2396,-7.147,-7.0376,-6.7063,-6.8777,-7.2211,-6.8567,-7.0431,-7.4445,-7.4134,-7.3891,-7.3657,-7.3496,-7.0292,-6.6645,-6.6633,-6.3815,-6.1927,-6.6865,-6.8578,-7.0367,-7.555,-7.7375,-7.8005,-7.8012,-7.8592,-7.9069,-7.8869,-7.8796,-7.8851,-7.9054,-7.9116,-7.9116,-7.9116,-7.9116,-7.9266,-7.9679,-7.9889,-8.0009,-8.0047,-7.6457,-7.5772,-7.9855,-7.7228,-7.7409,-8.2205,-8.2634,-8.3176,-8.4212,-8.3868,-8.383,-8.425,-8.425,-8.425,-8.425,-8.4671,-8.49,-8.49,-8.4441,-8.448,0.0,0.0,0.0,0.0,0.0,0.0,0.0,0.0,-5.1178,-5.0601,-5.1578,-5.2704,-5.3059,-5.3325,-5.5227,-6.0874,-6.1958,-6.3984,-6.9319,-7.0671,-7.1083,-7.1213,-7.0986,-7.1148,-7.1958,-7.2022,-7.199,-7.1861,-7.1958,-7.1666,-7.0857,-7.1472,-6.8708,-6.1894,-6.8805,-6.972,-6.338,-7.0042,-7.369,-7.4078,-7.4078,-7.4192,-7.4371,-7.3841,-7.3805,-7.4003,-7.3591,-7.3385,-7.3385,-7.3385,-7.385,-7.4478,-7.3486,-7.272,-7.2244,-7.1942,-7.2279,-7.2948,-7.3378,-7.3891,-7.4308,-7.4062,-7.3852,-7.3692,-7.3692,-6.8383,-6.2471,-6.273,-5.8522,-5.5655,-6.3147,-6.6141,-6.9105,-7.7004,-7.9376,-7.9803,-7.9783,-8.0314,-8.0504,-7.9554,-7.9371,-7.9335,-7.9129,-7.9229,-7.9341,-7.9341,-7.9341,-7.9642,-8.0505,-8.0578,-8.081,-8.1521,-8.1605,-8.1846,-8.2598,-8.3107,-8.3906,-8.5092,-8.5016,-8.5246,-8.6009,-8.5855,-8.5817,-8.6008,-8.6008,-8.6008,-8.6008,-8.5855,-8.5741,-8.5741,-8.5741,-8.5664,-4.6345,-4.215,0.0,-4.3533,-4.7105,-5.0155,0.0,0.0,-6.0441,-5.7872,-6.091,-6.4004,-6.386,-6.4874,-6.6173,-6.7553,-6.8711,-7.0052,-7.206,-7.2864,-7.3447,-7.4063,-7.3026,-7.28,-7.4095,-7.4225,-7.3998,-7.3383,-7.3901,-7.3642,-7.2346,-7.2962,-7.2595,-7.1058,-7.2476,-7.2489,-7.0978,-7.2411,-7.3076,-7.2808,-7.2808,-7.3772,-7.5438,-7.4706,-7.5136,-7.6492,-7.5715,-7.5377,-7.5377,-7.5377,-7.5411,-7.5411,-7.4512,-7.4175,-7.4093,-7.2742,-7.2858,-7.3595,-7.3188,-7.3608,-7.4308,-7.4062,-7.3852,-7.3692,-7.3415,-7.2498,-7.1512,-7.1346,-7.1735,-7.252,-7.4212,-7.5836,-7.747,-7.9251,-7.9709,-7.981,-7.98,-7.9874,-7.9805,-7.9443,-7.9371,-7.9335,-7.9129,-7.9754,-8.0243,-8.0243,-8.0243,-8.0543,-8.1369,-8.1874,-8.2145,-8.2257,-8.3709,-8.5323,-8.697,-8.6815,-8.7041,-8.7924,-8.716,-8.7083,-8.7887,-8.708,-8.704,-8.7804,-8.7804,-8.7804,-8.7804,-8.704,-8.6658,-8.6658,-8.6658,-8.6237,-4.7657,0.0,0.0,0.0,-5.39,-5.7973,-5.7958,-6.1286,-6.4089,-6.2809,-6.4779,-6.6901,-6.7205,-6.5732,-6.5775,0.0,-6.9009,-6.8793,-7.2723,-7.3468,-7.3512,-7.3383,-6.9457,-6.6933,-6.7363,-7.1798,-7.2529,-6.7376,-7.1733,-7.4322,-7.3739,-7.3998,-7.4247,-7.4277,-7.4457,-7.4839,-7.5219,-7.5062,-7.5035,-7.5204,-7.4772,-7.4972,-7.5631,-7.5329,-7.559,-7.6183,-7.5845,-7.5709,-7.5709,-7.5709,-7.5709,-7.5642,-7.5085,-7.4966,-7.4796,-7.3142,-7.3071,-7.3704,-7.3233,-7.3589,-7.4157,-7.4036,-7.3737,-7.3415,-7.3334,-7.3694,-7.417,-7.4124,-7.5536,-7.7305,-7.8099,-7.9166,-8.021,-8.102,-8.1195,-8.1195,-8.1195,-8.1195,-8.0982,-8.0316,-8.0542,-8.0638,-7.9954,-8.0543,-8.1256,-8.1745,-8.1407,-8.1318,-8.2092,-8.2291,-8.2798,-8.3913,-8.4971,-8.6227,-8.776,-8.7963,-8.8375,-8.9186,-8.8768,-8.8883,-8.9609,-8.922,-8.895,-8.8797,-8.8797,-8.8568,-8.811,-8.7727,-8.7575,-8.7575,-8.7575,-8.7345,-4.9079,0.0,0.0,-5.5071,-5.9227,-6.3078,-6.3672,-6.5356,-6.6723,-6.671,-6.7851,-6.8965,-6.9198,-6.7196,-6.7113,-7.223,-7.0052,-6.9314,-7.363,-7.3836,-7.2682,-7.0311,-6.567,-6.0893,-5.6645,-6.554,-6.9912,-6.6035,-7.1356,-7.4743,-7.4322,-7.4897,-7.5147,-7.5218,-7.5503,-7.595,-7.6664,-7.6371,-7.6307,-7.6709,-7.6171,-7.5931,-7.6014,-7.6014,-7.6014,-7.6014,-7.5811,-7.5709,-7.5709,-7.5709,-7.5669,-7.562,-7.5355,-7.5287,-7.5035,-7.37,-7.3482,-7.3806,-7.3577,-7.3737,-7.401,-7.3931,-7.3657,-7.3369,-7.3786,-7.4447,-7.5178,-7.5591,-7.7265,-7.9028,-7.9677,-8.0521,-8.1489,-8.2039,-8.2186,-8.2186,-8.2186,-8.2186,-8.1975,-8.1207,-8.1508,-8.1643,-8.0854,-8.1407,-8.212,-8.2721,-8.2444,-8.2519,-8.3359,-8.366,-8.453,-8.6455,-8.6577,-8.7166,-8.8957,-8.9071,-8.9332,-9.0069,-8.9957,-9.0148,-9.0681,-9.0635,-9.0402,-9.002,-8.9982,-8.9829,-8.9485,-8.9218,-8.8988,-8.8797,-8.8797,-8.8644,0.0,0.0,-4.9126,-5.6793,-5.9801,-6.1798,-6.5763,-6.8218,-6.9586,-6.9425,-7.1068,-7.2343,-7.1496,-7.2854,-7.4322,-7.4484,-7.4451,-7.4678,-7.552,-7.4451,-7.1188,-6.4764,-6.3127,-5.6942,0.0,-5.5012,-6.6865,-7.3715,-7.5164,-7.5067,-7.3674,-7.5451,-7.5906,-7.4465,-7.5435,-7.5705,-7.5002,-7.5489,-7.5777,-7.5777,-7.5743,-7.6115,-7.686,-7.686,-7.686,-7.6826,-7.6048,-7.5709,-7.5709,-7.5709,-7.5552,-7.5367,-7.5333,-7.5159,-7.4878,-7.4475,-7.4365,-7.4343,-7.4097,-7.401,-7.401,-7.3772,-7.3496,-7.352,-7.4941,-7.5266,-7.5407,-7.689,-7.8494,-7.9786,-7.9822,-8.0959,-8.215,-8.2186,-8.2186,-8.2186,-8.2186,-8.2186,-8.2123,-8.1889,-8.1917,-8.1829,-8.1604,-8.2233,-8.2796,-8.2834,-8.3329,-8.4223,-8.5534,-8.6615,-8.8029,-9.0093,-8.8835,-8.8995,-9.1912,-9.0682,-9.0069,-9.08,-9.0721,-9.0681,-9.0719,-9.0635,-9.0937,-9.1701,-9.1701,-9.2121,-9.2962,-9.2083,-9.1281,-9.0517,-9.0517,-9.0058,-4.7659,0.0,-5.547,-5.8937,-6.2887,-6.6385,-6.8147,-7.0128,-7.1392,-7.0865,-6.9041,-6.726,-6.6563,-6.4253,-6.3871,-6.8123,-6.5665,-6.5953,-7.3876,-6.7143,-6.3027,-6.7587,-6.024,0.0,0.0,0.0,0.0,-6.0092,-6.9649,-7.5826,-7.6202,-7.6878,-7.7346,-7.7594,-7.751,-7.7581,-7.7646,-7.6898,-7.6487,-7.6487,-7.5946,-7.5845,-7.6115,-7.6115,-7.6115,-7.6082,-7.5811,-7.5899,-7.6216,-7.6216,-7.6017,-7.5784,-7.6104,-7.5518,-7.4629,-7.4764,-7.4857,-7.4752,-7.4176,-7.401,-7.4159,-7.5006,-7.5035,-7.5211,-7.6569,-7.7589,-7.835,-7.8819,-8.0143,-8.138,-8.138,-8.1835,-8.2186,-8.2186,-8.2186,-8.2333,-8.2884,-8.2994,-8.2932,-8.2705,-8.3143,-8.3244,-8.2542,-8.3096,-8.3914,-8.4805,-8.4959,-8.531,-8.6279,-8.742,-8.8935,-9.1052,-9.0291,-9.0415,-9.2254,-9.1405,-9.0795,-9.0991,-9.0877,-9.0799,-9.0719,-9.1132,-9.151,-9.1778,-9.2351,-9.2809,-9.3115,-9.2809,-9.2542,-9.2274,-9.2274,-9.2212,-5.086,-5.5477,-6.0636,-6.3335,-6.6883,-6.9793,-7.0192,-7.137,-7.2282,-7.1569,-6.9095,-6.6381,-6.4234,-6.1199,-6.0577,-6.4862,-6.2285,-6.312,-7.2509,-6.5764,-6.1733,-6.6727,-5.9287,-5.6432,0.0,0.0,0.0,-5.6228,-6.5295,-7.1561,-7.2854,-7.3361,-7.5226,-7.8749,-7.8689,-7.8523,-7.872,-7.7502,-7.6758,-7.6454,-7.5946,-7.5845,-7.6115,-7.6115,-7.4714,-7.2295,-7.5383,-7.531,-7.3208,-7.633,-7.7215,-7.6725,-7.6978,-7.6456,-7.5529,-7.5846,-7.608,-7.6169,-7.5154,-7.4929,-7.5324,-7.6324,-7.6577,-7.6756,-7.8098,-7.9142,-8.0034,-8.0568,-8.1446,-8.238,-8.2316,-8.2251,-8.2325,-8.2582,-8.2692,-8.2847,-8.3654,-8.3838,-8.3823,-8.3806,-8.4123,-8.4137,-8.358,-8.387,-8.4605,-8.6123,-8.6549,-8.7089,-8.8066,-8.9444,-9.1009,-9.2715,-9.1911,-9.1683,-9.2864,-9.1828,-9.11,-9.1028,-9.1145,-9.1259,-9.1179,-9.1858,-9.2427,-9.2733,-9.3268,-9.3726,-9.3994,-9.3994,-9.3841,-9.3573,-9.3667,-9.3678,-5.9168,-6.2384,-6.4422,-6.9557,-7.1248,-7.1692,-7.163,-7.2079,-7.2314,-7.1302,-7.063,-6.8818,0.0,0.0,-6.3357,-6.4246,-6.3848,-6.5427,-7.1348,-6.9647,-6.6289,0.0,0.0,0.0,0.0,0.0,0.0,-6.2408,0.0,-6.3871,-6.5227,-6.6511,-7.055,-7.8082,-7.8792,-7.8754,-7.8044,-7.7299,-7.6521,-7.5906,-7.5872,-7.6279,-7.712,-7.7086,-7.3189,-6.702,-7.5283,-7.4481,-6.7962,-7.6191,-7.8953,-7.8036,-7.8036,-7.7773,-7.7476,-7.7476,-7.8027,-7.8415,-7.7056,-7.683,-7.7362,-7.7919,-7.8027,-7.8134,-7.9501,-8.0034,-8.049,-8.1798,-8.2444,-8.2633,-8.2544,-8.2481,-8.2665,-8.3475,-8.3566,-8.3691,-8.4499,-8.4646,-8.4779,-8.5106,-8.4781,-8.4488,-8.4815,-8.4588,-8.4943,-8.6795,-8.8226,-8.9549,-9.0762,-9.2563,-9.4095,-9.498,-9.3595,-9.2941,-9.371,-9.2138,-9.1105,-9.1143,-9.1681,-9.2021,-9.2059,-9.2737,-9.3573,-9.4376,-9.4452,-9.4834,-9.5598,-9.5598,-9.5216,-9.4452,-9.4753,-9.4477,-5.7293,-6.2549,-6.8613,-7.0806,-7.1919,-7.2397,-7.2316,-7.2789,-7.1982,-6.7382,-6.2977,-5.8339,0.0,0.0,0.0,-5.8398,-5.5278,0.0,-6.6091,-6.2383,0.0,0.0,0.0,-6.4097,-6.761,-6.9495,0.0,0.0,-6.9189,-7.2932,-7.4662,-7.5525,-7.7104,-7.9635,-7.9297,-7.9025,-7.8822,-7.7536,-7.7414,-7.8407,-7.7858,-7.8418,-7.9826,-7.9425,-7.8272,-7.6586,-7.9093,-7.9258,-7.7731,-7.9436,-8.0155,-8.0152,-7.9477,-7.8845,-7.8384,-7.889,-7.9213,-7.9423,-7.9652,-7.8985,-7.8171,-7.9281,-7.9532,-7.9783,-8.1167,-8.1688,-8.1856,-8.2242,-8.2508,-8.2781,-8.3208,-8.3291,-8.3447,-8.4162,-8.4278,-8.4499,-8.5306,-8.549,-8.5692,-8.6238,-8.6175,-8.5956,-8.6067,-8.6793,-8.7809,-8.9246,-9.0971,-9.2253,-9.2401,-9.3755,-9.498,-9.5865,-9.5018,-9.4441,-9.4634,-9.3097,-9.2294,-9.2757,-9.2334,-9.2291,-9.2776,-9.3612,-9.4146,-9.4338,-9.4949,-9.5407,-9.5598,-9.5598,-9.5484,-9.5293,-9.5598,-9.5777,-6.261,-6.6691,-7.0923,-7.2174,-7.2604,-7.1917,-6.9307,-6.92,-6.7995,-6.2028,-5.8065,0.0,0.0,0.0,0.0,0.0,0.0,0.0,-6.3641,-6.0874,-5.9601,0.0,-6.4339,0.0,-7.3835,-7.4792,-7.3613,0.0,-7.0377,-7.1439,-7.334,-7.3803,-7.5938,-8.0107,-7.9803,-7.9431,-7.9126,-7.8735,-7.8768,-7.9453,-7.9366,-7.995,-8.107,-8.0742,-7.8716,-7.5803,0.0,-7.9755,-7.7308,-8.0659,-8.2284,-8.2421,-8.1635,-8.1017,-8.074,-8.1178,-8.1459,-8.1791,-8.2123,-8.1571,-8.0771,-8.1117,-8.1124,-8.1197,-8.2039,-8.2444,-8.2581,-8.2849,-8.3113,-8.346,-8.4018,-8.4138,-8.4359,-8.5073,-8.519,-8.5343,-8.6151,-8.6334,-8.6391,-8.6734,-8.6892,-8.7022,-8.7291,-8.8116,-8.9373,-9.1272,-9.2518,-9.3521,-9.4366,-9.5137,-9.5749,-9.6249,-9.5518,-9.498,-9.498,-9.3787,-9.3174,-9.3524,-9.3332,-9.3406,-9.382,-9.4534,-9.4911,-9.4872,-9.5331,-9.5598,-9.5598,-9.5598,-9.5598,-9.5598,-9.6095,-9.6404,-6.924,-7.1198,-7.2199,-7.3352,-7.3084,-7.1233,-6.6023,-6.4768,-6.2887,-5.6971,0.0,-5.3299,-4.9437,0.0,-4.9331,-5.4832,0.0,-5.7617,-6.1031,-6.1969,-6.291,-6.4558,-6.4789,-6.7695,-7.4897,-7.5718,-7.6181,-7.704,-7.0401,-6.7034,-6.873,-6.8992,-7.2481,-8.0006,-8.0209,-7.9971,-7.9426,-8.0097,-8.0375,-8.0095,-8.0805,-8.1484,-8.2013,-8.1809,-7.8086,-7.2105,-7.9499,-7.9044,-7.379,-8.1181,-8.4447,-8.4588,-8.3647,-8.3427,-8.3603,-8.3603,-8.3988,-8.4495,-8.404,-8.3878,-8.3767,-8.2892,-8.2444,-8.2288,-8.2491,-8.2655,-8.2966,-8.3613,-8.3962,-8.4336,-8.4829,-8.4985,-8.5206,-8.5986,-8.6103,-8.6151,-8.6848,-8.6995,-8.7084,-8.7042,-8.746,-8.7935,-8.8654,-8.9272,-9.0512,-9.2967,-9.3519,-9.4253,-9.6058,-9.6288,-9.6288,-9.6288,-9.5634,-9.5211,-9.5326,-9.4518,-9.4095,-9.421,-9.4638,-9.4865,-9.4865,-9.5347,-9.5643,-9.5643,-9.5598,-9.5598,-9.5598,-9.5598,-9.5643,-9.5691,-9.6304,-9.6619,-6.4357,-6.7795,-7.2664,-7.3124,-7.2732,-7.1778,-7.0183,-6.6953,0.0,0.0,0.0,-5.0142,-4.8089,-4.7972,0.0,-5.4746,0.0,0.0,0.0,0.0,-6.4222,0.0,0.0,0.0,0.0,0.0,0.0,0.0,0.0,-7.6709,-7.7043,-7.7648,-7.8691,-8.0175,-8.0209,-8.0474,-8.1146,-8.0716,-8.1534,-8.3555,-8.345,-8.4151,-8.5517,-8.4776,-8.3661,-8.2488,-8.3582,0.0,-8.2203,-8.3134,-8.4257,-8.53,-8.388,-8.412,-8.5189,-8.5189,-8.525,-8.5298,-8.441,-8.4003,-8.3704,-8.2638,-8.2251,-8.2333,-8.2994,-8.3309,-8.3613,-8.4396,-8.4747,-8.506,-8.5714,-8.5869,-8.6023,-8.6696,-8.6811,-8.6848,-8.6995,-8.72,-8.7579,-8.8265,-8.8646,-8.9349,-9.0644,-9.1922,-9.3031,-9.3994,-9.5099,-9.594,-9.6249,-9.6288,-9.6288,-9.6288,-9.6172,-9.6326,-9.7019,-9.6326,-9.6097,-9.6713,-9.6174,-9.5789,-9.5708,-9.5738,-9.5768,-9.5768,-9.5643,-9.5598,-9.5598,-9.5598,-9.5738,-9.6021,-9.6404,-9.6732,-6.8593,-7.0485,-7.3106,-7.3788,-7.2999,-7.0727,-6.5775,0.0,0.0,0.0,-4.8332,-4.6665,-4.5391,0.0,0.0,0.0,0.0,0.0,0.0,0.0,0.0,0.0,0.0,0.0,0.0,0.0,0.0,0.0,0.0,-7.5271,-7.9498,-8.0006,-8.0209,-8.0209,-8.0641,-8.116,-8.1603,-8.2202,-8.3253,-8.472,-8.5066,-8.581,-8.6921,-8.6148,-8.563,-8.5312,-8.468,-8.1945,-7.8317,-8.2276,-8.2297,-8.025,-8.3308,-8.5238,-8.6226,-8.6226,-8.5905,-8.5436,-8.4805,-8.4506,-8.4203,-8.317,-8.281,-8.2884,-8.3382,-8.3852,-8.4396,-8.5243,-8.5861,-8.6377,-8.7053,-8.7206,-8.7316,-8.7545,-8.7325,-8.6995,-8.6995,-8.7463,-8.8035,-8.8575,-8.958,-9.0764,-9.2035,-9.3326,-9.4401,-9.5041,-9.5867,-9.6358,-9.6288,-9.6673,-9.6903,-9.6903,-9.6903,-9.725,-9.8096,-9.7827,-9.7558,-9.7443,-9.702,-9.6558,-9.6019,-9.5938,-9.5856,-9.5856,-9.5729,-9.5729,-9.5734,-9.5821,-9.5982,-9.6166,-9.658,-9.6888,-7.3191,-7.3813,-7.3813,-7.4381,-7.298,-6.9585,-6.1846,-5.8802,0.0,0.0,-4.5488,-4.4647,-4.4487,0.0,0.0,0.0,0.0,0.0,0.0,0.0,0.0,0.0,0.0,0.0,0.0,0.0,0.0,0.0,0.0,0.0,-7.9837,-8.0209,-8.0276,-8.0442,-8.1256,-8.1792,-8.2222,-8.3777,-8.4801,-8.5273,-8.6211,-8.6958,-8.746,-8.6713,-8.609,-8.5558,-8.474,-7.9658,-7.2604,-8.0788,-8.0184,-7.4911,-8.2597,-8.6078,-8.6821,-8.7007,-8.6611,-8.5967,-8.5678,-8.5438,-8.5124,-8.4419,-8.4058,-8.3948,-8.4228,-8.4772,-8.5508,-8.6538,-8.7016,-8.7353,-8.8056,-8.8059,-8.7949,-8.7949,-8.7472,-8.7068,-8.7215,-8.7766,-8.8349,-8.8956,-9.0298,-9.1779,-9.2919,-9.4008,-9.5058,-9.578,-9.6136,-9.6363,-9.6594,-9.7134,-9.7634,-9.8019,-9.7904,-9.8134,-9.8981,-9.9058,-9.8711,-9.7827,-9.7712,-9.7212,-9.6213,-9.5981,-9.5941,-9.5941,-9.5856,-9.5856,-9.5859,-9.6059,-9.6166,-9.6304,-9.6773,-9.7027,-7.1987,-7.4305,-7.455,-7.4276,-7.2045,-6.8946,-6.5742,0.0,0.0,-5.2017,-4.7987,-4.588,-4.846,-4.8322,-4.908,0.0,0.0,-5.0223,0.0,0.0,0.0,0.0,0.0,0.0,0.0,0.0,0.0,0.0,0.0,0.0,-8.0175,-8.0209,-8.0542,-8.1413,-8.1509,-8.2405,-8.4148,-8.4685,-8.5386,-8.632,-8.7027,-8.7431,-8.746,-8.6968,-8.6338,-8.5558,-8.474,-7.9363,0.0,-7.9976,-7.9007,-7.329,-8.2154,-8.6078,-8.6895,-8.7675,-8.7935,-8.7799,-8.7406,-8.6795,-8.625,-8.6581,-8.6187,-8.571,-8.6444,-8.6738,-8.7105,-8.8647,-8.8096,-8.7215,-8.7986,-8.7655,-8.7105,-8.7105,-8.7068,-8.7215,-8.7949,-8.8133,-8.8647,-9.0186,-9.0937,-9.1836,-9.3199,-9.3991,-9.4756,-9.5738,-9.5941,-9.6366,-9.7437,-9.7518,-9.8096,-9.9673,-9.9135,-9.9019,-9.9904,-9.9981,-9.9596,-9.875,-9.8673,-9.798,-9.6365,-9.6136,-9.6098,-9.6098,-9.5941,-9.5859,-9.581,-9.6097,-9.6304,-9.656,-9.6888,-9.7149,-7.4364,-7.5281,-7.4774,-7.4494,-7.2311,-6.901,-6.4232,0.0,0.0,-5.0959,-4.8042,-4.6448,-4.732,-4.6321,-4.656,-5.0504,-4.9494,0.0,0.0,0.0,0.0,0.0,0.0,0.0,0.0,0.0,0.0,0.0,0.0,0.0,-8.0006,-8.0209,-8.0706,-8.191,-8.2516,-8.3536,-8.5045,-8.5806,-8.6463,-8.7095,-8.7365,-8.7628,-8.7858,-8.765,-8.7118,-8.6264,-8.5483,-7.7222,0.0,-7.7965,-7.5953,-6.6248,-8.0184,-8.5781,-8.6189,-8.6882,-8.7116,-8.6989,-8.673,-8.704,-8.7494,-8.7688,-8.8169,-8.8573,-8.7912,-8.8059,-8.861,-8.9234,-8.9307,-8.9234,-8.9564,-8.905,-8.8206,-8.7252,-8.7362,-8.7802,-8.8133,-8.8977,-8.9892,-9.0868,-9.1853,-9.299,-9.4478,-9.4878,-9.5277,-9.6385,-9.6708,-9.6943,-9.7518,-9.848,-9.9327,-9.9981,-9.9788,-9.9904,-10.0789,-10.0789,-10.0481,-9.9635,-9.9558,-9.9058,-9.7865,-9.775,-9.7443,-9.6943,-9.6866,-9.6866,-9.7052,-9.7214,-9.7711,-9.8536,-9.8219,-9.8167,-7.4719,-7.6066,-7.5259,-7.4684,-7.2079,-6.8023,0.0,0.0,0.0,-4.9901,-4.7971,-4.6852,-4.6299,-4.4825,-4.5194,-4.9597,-4.9688,-5.228,-6.1232,0.0,0.0,0.0,0.0,0.0,0.0,0.0,0.0,0.0,0.0,0.0,-7.9972,-8.0641,-8.1379,-8.2571,-8.3242,-8.4335,-8.5918,-8.6746,-8.7268,-8.7497,-8.7628,-8.6555,-8.4469,-8.6994,-8.6264,-8.3213,-8.4916,-7.7231,0.0,-7.8013,-7.5707,-6.5058,-7.9863,-8.5595,-8.5706,-8.6597,-8.673,-8.6528,-8.7261,-8.7862,-8.8386,-8.9014,-8.9711,-9.0115,-8.9454,-8.9491,-8.9821,-9.0041,-9.0188,-9.0188,-8.9968,-8.9307,-8.8463,-8.7582,-8.7802,-8.8316,-8.8793,-8.9821,-9.0809,-9.1616,-9.2625,-9.3649,-9.4839,-9.5148,-9.5485,-9.6456,-9.6932,-9.7364,-9.7827,-9.9211,-10.0173,-10.0404,-10.0481,-10.0712,-10.1289,-10.1289,-10.0981,-10.0173,-10.0096,-9.9712,-9.8827,-9.8788,-9.8519,-9.7904,-9.7827,-9.7939,-9.8238,-9.8341,-9.8916,-9.9755,-9.939,-9.9085,-7.142,-7.6813,-7.6427,-7.4969,-7.0738,-6.5931,0.0,0.0,0.0,-4.9692,-4.8159,-4.7088,-4.6512,-4.5637,-4.635,-5.0631,-5.0743,-5.2276,-5.7924,0.0,0.0,0.0,0.0,0.0,0.0,0.0,0.0,0.0,0.0,0.0,-8.0209,-8.144,-8.2661,-8.3536,-8.3585,-8.4693,-8.6925,-8.7298,-8.7497,-8.7497,-8.7921,-8.3778,-7.5967,-8.4321,-8.3124,-7.4978,-8.2363,-8.0467,0.0,-8.101,-7.9522,-7.2965,-8.2043,-8.5595,-8.5781,-8.7265,-8.7275,-8.6989,-8.9873,-8.9808,-8.8888,-9.1068,-9.0702,-8.9711,-9.1289,-9.1216,-9.0739,-9.1546,-9.0629,-8.9234,-8.8426,-8.7619,-8.7215,-8.7986,-8.8206,-8.8647,-9.0225,-9.0592,-9.0956,-9.2288,-9.2997,-9.3499,-9.4047,-9.4492,-9.5007,-9.561,-9.6336,-9.7308,-9.8709,-9.9595,-10.0404,-10.1212,-10.1289,-10.1289,-10.1289,-10.1289,-10.0981,-10.0173,-10.0096,-9.9712,-9.8827,-9.8788,-9.8788,-9.8788,-9.8788,-9.8859,-9.8979,-9.9305,-9.9569,-9.9716,-9.9995,-9.9729,-6.3606,-6.5924,-6.527,-6.5742,-6.4177,-6.1652,-5.8752,0.0,0.0,-5.0262,-4.886,-4.8,-4.806,-4.7141,-4.7585,-5.1455,-5.1515,-5.3556,0.0,0.0,0.0,0.0,0.0,0.0,0.0,0.0,0.0,0.0,0.0,0.0,-8.1199,-8.1968,-8.2769,-8.3934,-8.4823,-8.6065,-8.7767,-8.7895,-8.7921,-8.7921,-8.8021,-8.3935,-7.6554,-8.4479,-8.3677,-7.63,-8.3398,-8.1644,-7.4483,-8.2117,-8.0037,-7.3074,-8.208,-8.5595,-8.5669,-8.5879,-8.7193,-8.8901,-8.9003,-8.9782,-9.0847,-9.1546,-9.1473,-9.1143,-9.1657,-9.1253,-9.0776,-9.1583,-9.1033,-9.0188,-8.9931,-8.9271,-8.872,-8.8977,-8.9454,-8.9968,-9.0482,-9.1318,-9.2209,-9.296,-9.3499,-9.4198,-9.5393,-9.5172,-9.5325,-9.6951,-9.7509,-9.8102,-9.9322,-10.0287,-10.1019,-10.1289,-10.1289,-10.1289,-10.1289,-10.1289,-10.1212,-10.0904,-10.0904,-10.0789,-10.0519,-10.0519,-10.0212,-9.9712,-9.9814,-10.0001,-10.0197,-10.0507,-10.0704,-10.0891,-10.0977,-10.0304,0.0,-5.6511,-5.6285,-6.1388,-6.1306,0.0,0.0,0.0,0.0,0.0,-4.9584,-4.9491,-4.8667,-4.8758,-4.933,-5.0795,-5.2846,-5.553,0.0,0.0,0.0,0.0,0.0,0.0,0.0,0.0,0.0,0.0,0.0,0.0,-8.1909,-8.2945,-8.3851,-8.4865,-8.5662,-8.6738,-8.8084,-8.8084,-8.8084,-8.8084,-8.8084,-8.3935,-7.6518,-8.4442,-8.3788,-7.659,-8.373,-8.3915,0.0,-8.4151,-8.277,-7.83,-8.388,-8.6264,-8.6462,-8.6148,-8.7313,-8.9055,-8.9117,-8.9895,-9.0996,-9.1583,-9.1803,-9.1693,-9.1069,-9.0776,-9.0702,-9.1216,-9.0776,-9.0152,-9.0152,-8.9784,-8.9491,-8.9784,-9.0262,-9.0774,-9.1245,-9.1966,-9.2914,-9.3934,-9.4366,-9.5101,-9.6591,-9.6237,-9.6287,-9.7696,-9.8257,-9.8822,-9.9577,-10.0632,-10.1289,-10.1289,-10.1289,-10.1289,-10.1289,-10.1289,-10.1289,-10.1289,-10.1289,-10.1289,-10.1289,-10.1289,-10.1096,-10.0596,-10.08,-10.0993,-10.1308,-10.1617,-10.1789,-10.1885,-10.2,-10.118,0.0,0.0,0.0,0.0,0.0,0.0,0.0,0.0,0.0,0.0,0.0,0.0,0.0,-5.0629,-5.1716,-4.9387,-5.4758,-5.7828,0.0,0.0,0.0,0.0,0.0,0.0,0.0,0.0,0.0,0.0,0.0,0.0,-8.2356,-8.4425,-8.5735,-8.6244,-8.6244,-8.6843,-8.8084,-8.8084,-8.7861,-8.7279,-8.7861,-8.3456,-7.5146,-8.4036,-8.353,0.0,-8.3619,-8.6895,-8.6895,-8.6895,-8.6858,-8.6821,-8.6858,-8.7378,-8.8021,-8.7665,-8.7608,-8.8022,-8.9889,-9.0115,-8.9821,-9.1253,-9.173,-9.151,-8.9968,-9.0078,-9.0665,-9.0629,-9.0078,-8.9528,-8.9564,-8.9564,-8.9711,-9.0482,-9.0811,-9.1137,-9.2325,-9.2714,-9.3295,-9.5065,-9.5516,-9.5983,-9.7414,-9.7604,-9.7642,-9.8001,-9.8754,-9.9434,-9.973,-10.0709,-10.1289,-10.1289,-10.1289,-10.1289,-10.1289,-10.1289,-10.1289,-10.1289,-10.1289,-10.1289,-10.1289,-10.1289,-10.1289,-10.1289,-10.1606,-10.193,-10.2178,-10.2608,-10.2789,-10.2789,-10.2789,-10.2281,-4.996,0.0,-4.9462,-5.1678,-5.2461,0.0,0.0,0.0,0.0,0.0,0.0,0.0,0.0,0.0,-5.5613,-5.3036,-5.6344,-5.8831,0.0,0.0,0.0,0.0,0.0,0.0,0.0,0.0,0.0,0.0,0.0,-8.3585,-8.4701,-8.5475,-8.6422,-8.7591,-8.7655,-8.7757,-8.8084,-8.8084,-8.5039,-7.9086,-8.5212,-8.0764,-6.7756,-8.1764,-8.3825,-7.6772,-8.4506,-8.7787,-8.7787,-8.7787,-8.7415,-8.6858,-8.7527,-8.7836,-8.7794,-8.7563,-8.8612,-9.0029,-8.9782,-9.0372,-9.1216,-9.0959,-9.1289,-9.162,-9.0629,-9.0886,-9.14,-9.0776,-9.0482,-9.0482,-9.1069,-9.0776,-9.0519,-9.1326,-9.2414,-9.3122,-9.2684,-9.38,-9.4704,-9.45,-9.534,-9.6361,-9.7248,-9.7451,-9.7972,-9.9466,-9.9431,-9.9625,-10.0574,-10.1016,-10.1289,-10.1289,-10.1289,-10.1289,-10.1289,-10.1289,-10.1289,-10.1289,-10.1289,-10.1289,-10.1289,-10.1289,-10.1402,-10.1606,-10.2109,-10.2413,-10.2593,-10.2694,-10.2789,-10.2789,-10.2789,-10.2281,-5.1516,-5.0593,-4.9605,-4.9264,-4.9739,-5.0164,0.0,0.0,0.0,0.0,0.0,0.0,0.0,0.0,0.0,0.0,-5.5534,0.0,0.0,0.0,0.0,0.0,0.0,0.0,0.0,0.0,0.0,0.0,0.0,-8.4613,-8.5435,-8.6317,-8.7188,-8.8084,-8.8084,-8.8084,-8.8084,-8.8084,-8.4247,-7.6708,-8.4395,-8.1912,-7.0825,-8.2702,-8.5815,-8.1893,-8.2206,-8.4542,-8.7761,-8.3962,-8.4384,-8.7415,-8.7836,-8.8117,-8.8248,-8.7645,-8.8625,-9.0287,-8.9635,-9.0225,-9.1253,-9.1179,-9.1216,-9.1179,-9.0739,-9.1179,-9.162,-9.0849,-9.0592,-9.0702,-9.1143,-9.1216,-9.1253,-9.1693,-9.2959,-9.3797,-9.3054,-9.4677,-9.6117,-9.5809,-9.702,-9.8212,-9.8618,-9.9036,-9.9454,-10.0189,-10.008,-10.0199,-10.088,-10.1208,-10.1289,-10.1289,-10.1289,-10.1289,-10.1289,-10.1289,-10.1289,-10.1289,-10.1289,-10.1289,-10.1289,-10.14,-10.1703,-10.2085,-10.2381,-10.2595,-10.2789,-10.2789,-10.2789,-10.2789,-10.2789,-10.2515,-5.3479,-5.1997,-5.0749,-5.1804,-5.1391,-5.0628,0.0,0.0,0.0,0.0,0.0,0.0,0.0,0.0,0.0,0.0,0.0,0.0,0.0,0.0,0.0,0.0,0.0,0.0,0.0,0.0,0.0,0.0,0.0,-8.5508,-8.5771,-8.6917,-8.773,-8.8084,-8.8084,-8.8084,-8.8084,-8.8084,-8.4395,-7.7182,-8.4542,-8.4183,-7.7291,-8.4754,-8.8084,-8.7687,0.0,0.0,-8.7539,-8.047,-8.1764,-8.827,-8.8191,-8.8535,-8.8877,-8.7992,-8.8446,-8.9445,-8.9598,-9.0041,-9.0702,-9.14,-9.1253,-9.0776,-9.0629,-9.1179,-9.1657,-9.0996,-9.0776,-9.0776,-9.0776,-9.1289,-9.1913,-9.2059,-9.3245,-9.4281,-9.3924,-9.5725,-9.7461,-9.7794,-9.915,-10.0304,-10.0506,-10.0925,-10.1102,-10.0718,-10.0586,-10.0696,-10.0962,-10.1208,-10.1289,-10.1289,-10.1289,-10.1289,-10.1289,-10.1289,-10.1289,-10.1289,-10.1289,-10.1328,-10.1404,-10.16,-10.1996,-10.2507,-10.2499,-10.262,-10.2789,-10.2789,-10.2789,-10.2789,-10.2789,-10.2789,-5.3516,-5.3238,-5.4422,-6.0348,-5.8341,-5.4547,-5.3426,0.0,0.0,0.0,0.0,0.0,0.0,0.0,0.0,0.0,0.0,0.0,0.0,0.0,0.0,0.0,0.0,0.0,0.0,0.0,0.0,0.0,0.0,0.0,-8.7157,-8.7693,-8.8021,-8.8084,-8.8084,-8.8084,-8.8084,-8.8084,-8.4136,-7.6445,-8.4347,-8.3988,-7.6656,-8.4495,-8.8084,-8.8047,0.0,-8.692,-8.801,-8.6708,-8.7365,-8.9161,-8.9867,-8.96,-8.8893,-8.9381,-8.9104,-8.8643,-8.9931,-9.0519,-9.0629,-9.0739,-9.1179,-9.1473,-9.0812,-9.1179,-9.1767,-9.1657,-9.162,-9.162,-9.162,-9.1693,-9.2095,-9.3387,-9.4756,-9.5938,-9.6366,-9.7703,-9.8857,-9.8656,-9.9518,-10.0393,-10.0906,-10.121,-10.142,-10.1617,-10.1024,-10.0825,-10.117,-10.1288,-10.1289,-10.1289,-10.1289,-10.1289,-10.1289,-10.1289,-10.1289,-10.1289,-10.1289,-10.1402,-10.16,-10.1891,-10.2201,-10.2523,-10.2683,-10.2811,-10.2789,-10.2789,-10.2789,-10.2789,-10.2789,-10.2789,-5.3517,-5.3518,-5.4903,-6.064,-5.7974,-5.4382,-5.6135,0.0,0.0,0.0,0.0,0.0,0.0,0.0,0.0,0.0,0.0,0.0,0.0,0.0,0.0,0.0,0.0,0.0,0.0,0.0,0.0,0.0,0.0,0.0,-8.6434,-8.7507,-8.8084,-8.8084,-8.8084,-8.8084,-8.8084,-8.8084,-8.4284,-7.6818,-8.4432,-8.4136,-7.7028,-8.4643,-8.8084,-8.7861,0.0,-8.3925,-8.7724,-8.3171,-8.422,-8.8678,-8.8822,-8.8553,-8.8162,-8.8809,-8.8676,-8.8426,-9.0041,-9.0335,-9.0115,-9.0959,-9.1216,-9.1179,-9.1216,-9.151,-9.1803,-9.1803,-9.1803,-9.1803,-9.1803,-9.242,-9.3028,-9.3196,-9.5357,-9.7195,-9.6364,-9.849,-10.0403,-9.967,-10.0988,-10.1886,-10.1324,-10.1611,-10.1696,-10.1197,-10.0795,-10.0825,-10.1171,-10.1289,-10.1289,-10.1289,-10.1289,-10.1289,-10.1289,-10.1289,-10.1289,-10.1289,-10.14,-10.16,-10.1891,-10.2201,-10.2413,-10.271,-10.2802,-10.2789,-10.2789,-10.2789,-10.2789,-10.2789,-10.2789,-10.2789,-5.3917,-5.3915,-5.4804,-5.8968,0.0,-5.378,-5.8389,0.0,0.0,0.0,0.0,0.0,0.0,0.0,0.0,0.0,0.0,0.0,0.0,0.0,0.0,0.0,0.0,0.0,0.0,0.0,0.0,0.0,0.0,0.0,-8.6109,-8.7396,-8.8084,-8.8084,-8.8084,-8.8084,-8.8084,-8.8084,-8.5297,-7.98,-8.5408,-8.516,-7.991,-8.5519,-8.8084,-8.7724,-8.1333,-8.2049,-8.7316,-8.0828,-8.2123,-8.8021,-8.773,-8.7608,-8.7763,-8.7904,-8.7912,-8.8133,-8.9564,-8.9638,-8.9381,-9.0996,-9.1106,-9.0739,-9.1546,-9.1803,-9.1803,-9.1803,-9.1876,-9.202,-9.202,-9.2811,-9.3619,-9.3342,-9.5757,-9.7734,-9.6604,-9.9188,-10.1508,-10.0862,-10.2319,-10.3124,-10.1779,-10.1784,-10.1719,-10.07,-10.0604,-10.0825,-10.1171,-10.1289,-10.1289,-10.1289,-10.1289,-10.1289,-10.1289,-10.1289,-10.1289,-10.1289,-10.1616,-10.1807,-10.2094,-10.2381,-10.2595,-10.2789,-10.2789,-10.2789,-10.2789,-10.2789,-10.2789,-10.2789,-10.2789,-10.2789,-5.511,-5.5041,-5.5327,-5.7808,0.0,0.0,-5.9895,0.0,0.0,0.0,0.0,0.0,0.0,0.0,0.0,0.0,0.0,0.0,0.0,0.0,0.0,0.0,0.0,0.0,0.0,0.0,0.0,0.0,0.0,0.0,-8.781,-8.8047,-8.8084,-8.8084,-8.8084,-8.8084,-8.8084,-8.8084,-8.7861,-8.7291,-8.7861,-8.7861,-8.7291,-8.7898,-8.8084,-8.8047,-8.7464,-8.7093,-8.6858,-8.6276,-8.6708,-8.7794,-8.7794,-8.8043,-8.8299,-8.7431,-8.7105,-8.7215,-8.8059,-8.8316,-8.8536,-9.0152,-9.0665,-9.0739,-9.1546,-9.1803,-9.1803,-9.1803,-9.2126,-9.2542,-9.2542,-9.2647,-9.3165,-9.4854,-9.6251,-9.7431,-9.8704,-10.0403,-10.1889,-10.2385,-10.2623,-10.25,-10.2315,-10.1578,-10.1111,-10.07,-10.0604,-10.0825,-10.1171,-10.1289,-10.1289,-10.1289,-10.1289,-10.1289,-10.1289,-10.1289,-10.1289,-10.1289,-10.1616,-10.1807,-10.2094,-10.2381,-10.2595,-10.2789,-10.2789,-10.2789,-10.2789,-10.2789,-10.2789,-10.2789,-10.2789,-10.2789,-5.4925,-5.4856,-5.5519,-5.8515,0.0,0.0,0.0,0.0,0.0,0.0,0.0,0.0,0.0,0.0,0.0,0.0,0.0,0.0,0.0,0.0,0.0,0.0,0.0,0.0,0.0,0.0,0.0,0.0,0.0,0.0,-8.6787,-8.7598,-8.8084,-8.8084,-8.8084,-8.8084,-8.8084,-8.8084,-8.8084,-8.8084,-8.8084,-8.8084,-8.8084,-8.8084,-8.8084,-8.8047,-8.7527,-8.7081,-8.6784,-8.6697,-8.6857,-8.709,-8.7349,-8.7519,-8.7504,-8.7105,-8.6995,-8.7142,-8.7912,-8.8206,-8.8463,-9.0078,-9.0592,-9.0739,-9.1546,-9.1803,-9.1803,-9.1803,-9.2565,-9.3202,-9.2721,-9.3498,-9.4624,-9.5329,-9.6938,-9.8643,-9.9618,-10.1065,-10.2461,-10.3193,-10.3677,-10.3605,-10.2487,-10.1995,-10.1605,-10.07,-10.0604,-10.0825,-10.1171,-10.1289,-10.1289,-10.1289,-10.1289,-10.1289,-10.1289,-10.1289,-10.1404,-10.1504,-10.1817,-10.1996,-10.2094,-10.2499,-10.2714,-10.2789,-10.2789,-10.2789,-10.2789,-10.2789,-10.2789,-10.2789,-10.2789,-10.2789,-5.493,-5.4896,0.0,0.0,0.0,0.0,0.0,0.0,0.0,0.0,0.0,0.0,0.0,0.0,0.0,0.0,0.0,0.0,0.0,0.0,0.0,0.0,0.0,0.0,0.0,0.0,0.0,0.0,0.0,0.0,0.0,-8.7561,-8.8084,-8.8084,-8.8084,-8.8084,-8.8084,-8.8084,-8.8084,-8.8084,-8.8084,-8.8084,-8.8084,-8.8084,-8.7935,-8.7675,-8.7341,-8.6784,-8.6078,-8.6474,-8.6571,-8.6555,-8.704,-8.7169,-8.6995,-8.6995,-8.6995,-8.7105,-8.7619,-8.7839,-8.8096,-8.9711,-9.0225,-9.0445,-9.1473,-9.1803,-9.1913,-9.2278,-9.3213,-9.402,-9.3891,-9.488,-9.5894,-9.5793,-9.7503,-9.9248,-9.9732,-10.1078,-10.2509,-10.3162,-10.3698,-10.3586,-10.2487,-10.2108,-10.1605,-10.07,-10.0604,-10.0825,-10.1171,-10.1289,-10.1289,-10.1289,-10.1289,-10.1289,-10.1289,-10.1289,-10.1402,-10.1703,-10.1983,-10.2101,-10.2205,-10.2608,-10.2789,-10.2789,-10.2789,-10.2789,-10.2789,-10.2789,-10.2789,-10.2789,-10.2789,-10.2789,-5.5543,-5.5543,0.0,0.0,0.0,0.0,0.0,0.0,0.0,0.0,0.0,0.0,0.0,0.0,0.0,0.0,0.0,0.0,0.0,0.0,0.0,0.0,0.0,0.0,0.0,0.0,0.0,0.0,0.0,0.0,0.0,-8.8084,-8.8084,-8.8084,-8.8084,-8.8084,-8.8084,-8.8084,-8.8084,-8.8084,-8.8084,-8.8084,-8.8084,-8.8084,-8.7601,-8.6858,-8.7712,-8.6672,-8.4518,-8.6152,-8.6597,-8.6389,-8.6838,-8.6995,-8.6995,-8.6995,-8.6995,-8.6995,-8.6995,-8.7031,-8.7288,-8.8904,-8.9417,-8.9711,-9.1326,-9.1803,-9.2095,-9.3435,-9.416,-9.4959,-9.6245,-9.6724,-9.676,-9.6375,-9.768,-9.8997,-9.8997,-10.0189,-10.1491,-10.2289,-10.2408,-10.2298,-10.2298,-10.1616,-10.1035,-10.07,-10.0604,-10.0825,-10.1171,-10.1289,-10.1289,-10.1289,-10.1289,-10.1289,-10.1289,-10.1289,-10.1364,-10.1703,-10.1983,-10.2205,-10.2507,-10.2694,-10.2789,-10.2789,-10.2789,-10.2789,-10.2789,-10.2789,-10.2789,-10.2789,-10.2789,-10.2789,-5.6715,0.0,0.0,0.0,0.0,0.0,0.0,0.0,0.0,0.0,0.0,0.0,0.0,0.0,0.0,0.0,0.0,0.0,0.0,0.0,0.0,0.0,0.0,0.0,0.0,0.0,0.0,0.0,0.0,0.0,0.0,-8.8084,-8.8084,-8.8084,-8.8084,-8.8084,-8.8084,-8.8084,-8.8084,-8.8084,-8.8084,-8.8084,-8.8084,-8.8084,-8.7601,-8.6821,-8.7081,-8.6449,-8.5335,-8.6127,-8.6648,-8.7003,-8.699,-8.6995,-8.6995,-8.6995,-8.6995,-8.6995,-8.6995,-8.7362,-8.8023,-8.9087,-8.9784,-9.0445,-9.1473,-9.2565,-9.3424,-9.3684,-9.4958,-9.6212,-9.6513,-9.744,-9.8182,-9.811,-9.8922,-9.9872,-10.048,-10.143,-10.2213,-10.2332,-10.2315,-10.2108,-10.1578,-10.14,-10.1205,-10.071,-10.078,-10.1,-10.1288,-10.1289,-10.1289,-10.1289,-10.1289,-10.1289,-10.1289,-10.1289,-10.1508,-10.1983,-10.2085,-10.2205,-10.2507,-10.2694,-10.2789,-10.2789,-10.2789,-10.2789,-10.2789,-10.2789,-10.2789,-10.2789,-10.2789,-10.2789,-5.7725,0.0,0.0,0.0,0.0,0.0,0.0,0.0,0.0,0.0,0.0,0.0,0.0,0.0,0.0,0.0,0.0,0.0,0.0,0.0,0.0,0.0,0.0,0.0,0.0,0.0,0.0,0.0,0.0,0.0,0.0,-8.8084,-8.8084,-8.8084,-8.8084,-8.8084,-8.8084,-8.8084,-8.8084,-8.8084,-8.775,-8.775,-8.8084,-8.8084,-8.7601,-8.6784,-8.6449,-8.6165,-8.5992,-8.6222,-8.673,-8.7305,-8.71,-8.6995,-8.6995,-8.6995,-8.6995,-8.6995,-8.6995,-8.7545,-8.8316,-8.916,-8.9968,-9.0739,-9.1546,-9.2783,-9.3998,-9.4503,-9.5844,-9.729,-9.7781,-9.8551,-9.9236,-9.9288,-9.9896,-10.0693,-10.1605,-10.1893,-10.1991,-10.226,-10.1995,-10.1691,-10.1199,-10.1316,-10.1306,-10.071,-10.0875,-10.1167,-10.1288,-10.1289,-10.1289,-10.1289,-10.1289,-10.1289,-10.1289,-10.1402,-10.1594,-10.2109,-10.2183,-10.24,-10.2608,-10.2714,-10.2789,-10.2789,-10.2789,-10.2789,-10.2789,-10.2789,-10.2789,-10.2789,-10.2789,-10.2789,0.0,0.0,0.0,0.0,0.0,0.0,0.0,0.0,0.0,0.0,0.0,0.0,0.0,0.0,0.0,0.0,0.0,0.0,0.0,0.0,0.0,0.0,0.0,0.0,0.0,0.0,0.0,0.0,0.0,0.0,0.0,-8.8084,-8.8084,-8.8084,-8.8084,-8.8084,-8.8084,-8.8084,-8.8084,-8.8084,-8.723,-8.7192,-8.7973,-8.7973,-8.7527,-8.6747,-8.5929,-8.6017,-8.6608,-8.6454,-8.6804,-8.7305,-8.7064,-8.6995,-8.6995,-8.6995,-8.6995,-8.6995,-8.6995,-8.7582,-8.8426,-8.916,-9.0005,-9.0849,-9.1729,-9.293,-9.4325,-9.5604,-9.6914,-9.8215,-9.946,-9.9796,-9.9888,-10.0109,-10.0731,-10.1529,-10.2327,-10.1801,-10.1388,-10.2108,-10.1616,-10.1085,-10.1009,-10.1202,-10.1203,-10.068,-10.1008,-10.1289,-10.1289,-10.1289,-10.1289,-10.1289,-10.1289,-10.1289,-10.1289,-10.15,-10.1807,-10.207,-10.2381,-10.2595,-10.2789,-10.2789,-10.2789,-10.2789,-10.2789,-10.2789,-10.2789,-10.2789,-10.2789,-10.2789,-10.2789,-10.2789,0.0,0.0,0.0,0.0,0.0,0.0,0.0,0.0,0.0,0.0,0.0,0.0,0.0,0.0,0.0,0.0,0.0,0.0,0.0,0.0,0.0,0.0,0.0,0.0,0.0,0.0,0.0,0.0,0.0,0.0,-8.8084,-8.8084,-8.8084,-8.8084,-8.8084,-8.8084,-8.8084,-8.8084,-8.8084,-8.8084,-8.723,-8.6895,-8.7081,-8.7081,-8.6969,-8.6747,-8.5929,-8.6041,-8.6796,-8.711,-8.7349,-8.7431,-8.7132,-8.6995,-8.6995,-8.6995,-8.6995,-8.6995,-8.6995,-8.7949,-8.9197,-8.9344,-9.0372,-9.1766,-9.3,-9.4392,-9.5757,-9.699,-9.797,-9.8788,-9.9569,-9.9796,-9.9986,-10.0722,-10.0988,-10.1405,-10.2201,-10.2184,-10.1881,-10.1388,-10.1199,-10.0895,-10.0213,-10.052,-10.088,-10.1088,-10.1171,-10.1289,-10.1289,-10.1289,-10.1289,-10.1289,-10.1289,-10.1289,-10.1289,-10.15,-10.1807,-10.207,-10.2381,-10.2595,-10.2789,-10.2789,-10.2789,-10.2789,-10.2789,-10.2789,-10.2789,-10.2789,-10.2789,-10.2789,-10.2789,-10.3218,0.0,0.0,0.0,0.0,0.0,0.0,0.0,0.0,0.0,0.0,0.0,0.0,0.0,0.0,0.0,0.0,0.0,0.0,0.0,0.0,0.0,0.0,0.0,0.0,0.0,0.0,0.0,0.0,0.0,-8.8084,-8.8084,-8.8084,-8.8084,-8.8084,-8.8084,-8.8084,-8.8084,-8.7675,-8.749,-8.7452,-8.6226,-8.5632,-8.5669,-8.6041,-8.6004,-8.5669,-8.6004,-8.6128,-8.6215,-8.7147,-8.7431,-8.7402,-8.7132,-8.6995,-8.6995,-8.6995,-8.6995,-8.7068,-8.7435,-8.839,-8.9491,-8.9858,-9.1247,-9.2893,-9.3578,-9.5241,-9.6975,-9.7643,-9.8498,-9.9373,-9.9683,-10.0099,-10.0592,-10.1502,-10.1995,-10.2411,-10.279,-10.2904,-10.2677,-10.1805,-10.1388,-10.082,-9.9948,-10.0227,-10.0825,-10.121,-10.1289,-10.1289,-10.1289,-10.1289,-10.1289,-10.1289,-10.1289,-10.1404,-10.1511,-10.1688,-10.1996,-10.2285,-10.2514,-10.2694,-10.2789,-10.2789,-10.2789,-10.2789,-10.2789,-10.2789,-10.2789,-10.2789,-10.2789,-10.2789,-10.2789,-10.3296,0.0,0.0,0.0,0.0,0.0,0.0,0.0,0.0,0.0,0.0,0.0,0.0,0.0,0.0,0.0,0.0,0.0,0.0,0.0,0.0,0.0,0.0,0.0,0.0,0.0,0.0,0.0,0.0,0.0,-8.7935,-8.8084,-8.8084,-8.801,-8.7861,-8.7861,-8.7787,-8.7675,-8.6932,-8.6598,-8.6561,-8.5112,-8.4406,-8.4406,-8.5075,-8.5038,-8.448,-8.5929,-8.6103,-8.5534,-8.6897,-8.7468,-8.7305,-8.71,-8.6995,-8.6995,-8.6995,-8.6995,-8.7142,-8.7912,-8.872,-8.9564,-9.0478,-9.2045,-9.3678,-9.4177,-9.572,-9.7475,-9.7835,-9.8725,-9.9607,-9.9607,-10.0403,-10.1388,-10.1995,-10.298,-10.3776,-10.3776,-10.37,-10.3397,-10.2677,-10.1805,-10.0912,-10.0094,-10.0315,-10.0825,-10.121,-10.1289,-10.1289,-10.1289,-10.1289,-10.1289,-10.1289,-10.1289,-10.1402,-10.1703,-10.1906,-10.2205,-10.2507,-10.2694,-10.2789,-10.2789,-10.2789,-10.2789,-10.2789,-10.2789,-10.2789,-10.2789,-10.2789,-10.2789,-10.2789,-10.2984,-10.3491,0.0,0.0,0.0,0.0,0.0,0.0,0.0,0.0,0.0,0.0,0.0,0.0,0.0,0.0,0.0,0.0,0.0,0.0,0.0,0.0,0.0,0.0,0.0,0.0,0.0,0.0,0.0,0.0,-8.7378,-8.7304,-8.8047,-8.8084,-8.775,-8.7007,-8.6969,-8.6635,-8.5929,-8.5818,-8.5743,-8.5743,-8.4852,-8.4406,-8.4406,-8.4518,-8.448,-8.4443,-8.5372,-8.5584,-8.5534,-8.6897,-8.7468,-8.7305,-8.71,-8.6995,-8.6995,-8.6995,-8.6995,-8.7142,-8.7912,-8.872,-8.9598,-9.0858,-9.1949,-9.3219,-9.5531,-9.5966,-9.6064,-9.7966,-9.8605,-9.8773,-9.8773,-10.0403,-10.1995,-10.1388,-10.298,-10.461,-10.461,-10.4079,-10.3586,-10.3397,-10.2184,-10.102,-10.0604,-10.0595,-10.0825,-10.121,-10.1289,-10.1289,-10.1289,-10.1289,-10.1289,-10.1289,-10.1289,-10.1402,-10.1703,-10.1906,-10.2205,-10.2507,-10.2694,-10.2789,-10.2789,-10.2789,-10.2789,-10.2789,-10.2789,-10.2789,-10.2789,-10.2789,-10.2789,-10.2789,-10.3608,-10.4389,0.0,0.0,0.0,0.0,0.0,0.0,0.0,0.0,0.0,0.0,0.0,0.0,0.0,0.0,0.0,0.0,0.0,0.0,0.0,0.0,0.0,0.0,0.0,0.0,0.0,0.0,0.0,0.0,-8.6598,-8.6486,-8.7341,-8.6932,-8.6524,-8.6152,-8.6115,-8.5966,-8.5595,-8.5149,-8.4703,-8.4257,-8.4332,-8.4406,-8.4406,-8.4852,-8.5075,-8.5112,-8.5929,-8.6178,-8.6164,-8.7082,-8.7468,-8.7305,-8.71,-8.6995,-8.6995,-8.6995,-8.6995,-8.7178,-8.8463,-8.9297,-9.0052,-9.1579,-9.297,-9.4322,-9.5493,-9.6121,-9.6608,-9.762,-9.7863,-9.7863,-9.7863,-9.9379,-10.082,-10.0516,-10.2298,-10.4079,-10.4079,-10.4193,-10.4003,-10.3094,-10.1991,-10.1192,-10.071,-10.0696,-10.088,-10.1326,-10.1289,-10.1289,-10.1289,-10.1289,-10.1289,-10.1289,-10.14,-10.16,-10.1891,-10.2201,-10.2396,-10.271,-10.2802,-10.2789,-10.2789,-10.2789,-10.2789,-10.2789,-10.2789,-10.2789,-10.2789,-10.2789,-10.2789,-10.2789,-10.3687,-10.4584,0.0,0.0,0.0,0.0,0.0,0.0,0.0,0.0,0.0,0.0,0.0,0.0,0.0,0.0,0.0,0.0,0.0,0.0,0.0,0.0,0.0,0.0,0.0,0.0,0.0,0.0,0.0,0.0,-8.5743,-8.5632,-8.6449,-8.5929,-8.5521,-8.5298,-8.5298,-8.5186,-8.5,-8.4369,-8.3886,-8.3514,-8.4109,-8.4592,-8.5038,-8.5632,-8.6041,-8.6264,-8.6573,-8.6634,-8.6582,-8.7165,-8.7335,-8.7237,-8.7064,-8.6995,-8.6995,-8.6995,-8.7142,-8.7509,-8.9044,-8.9978,-9.0786,-9.2459,-9.3887,-9.5045,-9.5386,-9.6042,-9.6726,-9.6954,-9.6991,-9.7067,-9.7257,-9.8545,-9.9872,-10.0099,-10.1691,-10.3397,-10.3776,-10.4382,-10.4382,-10.2904,-10.2175,-10.1611,-10.1015,-10.1023,-10.1085,-10.1288,-10.1289,-10.1289,-10.1289,-10.1289,-10.1289,-10.1289,-10.1466,-10.1778,-10.2109,-10.2303,-10.2582,-10.2781,-10.2789,-10.2789,-10.2789,-10.2789,-10.2789,-10.2789,-10.2789,-10.2789,-10.2789,-10.2789,-10.2906,-10.3218,-10.3999,-10.4897,0.0,0.0,0.0,0.0,0.0,0.0,0.0,0.0,0.0,0.0,0.0,0.0,0.0,0.0,0.0,0.0,0.0,0.0,0.0,0.0,0.0,0.0,0.0,0.0,0.0,0.0,0.0,0.0,-8.4926,-8.4815,-8.5632,-8.5632,-8.5261,-8.448,-8.4443,-8.4109,-8.3329,-8.3254,-8.3626,-8.4332,-8.4369,-8.5186,-8.6672,-8.6709,-8.7192,-8.7935,-8.7005,-8.6508,-8.6352,-8.7003,-8.72,-8.6995,-8.6995,-8.6995,-8.6995,-8.6995,-8.7472,-8.8313,-8.9707,-9.0683,-9.1622,-9.3455,-9.4085,-9.4387,-9.5658,-9.5551,-9.5096,-9.593,-9.6158,-9.6347,-9.7105,-9.8545,-9.9986,-10.082,-10.1691,-10.279,-10.4382,-10.4799,-10.4496,-10.37,-10.301,-10.2398,-10.1817,-10.1284,-10.1085,-10.1288,-10.1289,-10.1289,-10.1289,-10.1289,-10.1289,-10.1289,-10.1466,-10.1778,-10.2109,-10.2303,-10.2582,-10.2781,-10.2789,-10.2789,-10.2789,-10.2789,-10.2789,-10.2789,-10.2789,-10.2789,-10.2789,-10.2789,-10.3218,-10.4116,-10.4897,-10.5795,0.0,0.0,0.0,0.0,0.0,0.0,0.0,0.0,0.0,0.0,0.0,0.0,0.0,0.0,0.0,0.0,0.0,0.0,0.0,0.0,0.0,0.0,0.0,0.0,0.0,0.0,0.0,0.0,0.0,-8.0748,-8.4629,-8.1377,-8.0748,-8.3552,-8.3626,-8.3477,-8.318,-8.318,-8.3589,-8.4406,-8.4926,-8.5743,-8.6821,-8.7378,-8.7724,-8.7858,-8.7396,-8.7156,-8.7091,-8.7224,-8.7169,-8.6995,-8.6995,-8.6995,-8.6995,-8.6995,-8.7509,-8.8386,-8.9707,-9.0945,-9.2107,-9.3631,-9.4328,-9.4621,-9.512,-9.5058,-9.4869,-9.5172,-9.5248,-9.5475,-9.6309,-9.737,-9.8697,-10.0592,-10.1691,-10.2601,-10.3776,-10.4003,-10.389,-10.37,-10.3284,-10.2675,-10.1894,-10.1494,-10.121,-10.1327,-10.1289,-10.1289,-10.1289,-10.1289,-10.1289,-10.1289,-10.1696,-10.1996,-10.2094,-10.2484,-10.2714,-10.2789,-10.2789,-10.2789,-10.2789,-10.2789,-10.2789,-10.2789,-10.2789,-10.2789,-10.2789,-10.2789,-10.3218,-10.4116,-10.5014,-10.5912,-5.9844,0.0,0.0,0.0,0.0,0.0,0.0,0.0,0.0,0.0,0.0,0.0,0.0,0.0,0.0,0.0,0.0,0.0,0.0,0.0,0.0,0.0,0.0,0.0,0.0,0.0,0.0,0.0,0.0,0.0,-8.3812,-8.0452,-7.9875,-8.3106,-8.318,-8.318,-8.318,-8.3121,-8.3529,-8.4309,-8.5163,-8.577,-8.6227,-8.7502,-8.7661,-8.6952,-8.7341,-8.7497,-8.7431,-8.7268,-8.7169,-8.6995,-8.6995,-8.6995,-8.6995,-8.6995,-8.7794,-8.9092,-9.0137,-9.1596,-9.3047,-9.4085,-9.4599,-9.4844,-9.4793,-9.4793,-9.4793,-9.4793,-9.4793,-9.5058,-9.6233,-9.7333,-9.8583,-10.0289,-10.1312,-10.2108,-10.298,-10.3586,-10.4003,-10.4003,-10.3489,-10.2935,-10.2323,-10.1733,-10.1289,-10.1289,-10.1289,-10.1289,-10.1289,-10.1289,-10.1289,-10.14,-10.1807,-10.2101,-10.2205,-10.2608,-10.2789,-10.2789,-10.2789,-10.2789,-10.2789,-10.2789,-10.2789,-10.2789,-10.2789,-10.2789,-10.2789,-10.2789,-10.3413,-10.4584,-10.5092,-10.599,0.0,0.0,0.0,0.0,0.0,0.0,0.0,0.0,0.0,0.0,0.0,0.0,0.0,0.0,0.0,0.0,0.0,0.0,0.0,0.0,0.0,0.0,0.0,0.0,0.0,0.0,0.0,0.0,-8.3069,-8.3069,-8.318,-8.318,-8.318,-8.318,-8.318,-8.318,-8.318,-8.2964,-8.3274,-8.4089,-8.4941,-8.5286,-8.517,-8.7142,-8.6931,-8.517,-8.6759,-8.7365,-8.7268,-8.7064,-8.6995,-8.6995,-8.6995,-8.6995,-8.6995,-8.6995,-8.8428,-9.0515,-9.0932,-9.2599,-9.4561,-9.4857,-9.4996,-9.4996,-9.4844,-9.4793,-9.4793,-9.4793,-9.4793,-9.5172,-9.6878,-9.8545,-9.9796,-9.9796,-10.0516,-10.1312,-10.2108,-10.3586,-10.4799,-10.4799,-10.3869,-10.3077,-10.3126,-10.2074,-10.1327,-10.1289,-10.1289,-10.1289,-10.1289,-10.1289,-10.1402,-10.1703,-10.1906,-10.2183,-10.2507,-10.2694,-10.2789,-10.2789,-10.2789,-10.2789,-10.2789,-10.2789,-10.2789,-10.2789,-10.2789,-10.2789,-10.2789,-10.2789,-10.3687,-10.5404,-10.5482,-10.6419,-5.8527,0.0,0.0,0.0,0.0,0.0,0.0,0.0,0.0,0.0,0.0,0.0,0.0,0.0,0.0,0.0,0.0,0.0,0.0,0.0,0.0,0.0,0.0,0.0,0.0,0.0,0.0,0.0,-8.0008,-7.9542,-8.3032,-8.318,-8.318,-8.318,-8.318,-8.318,-8.318,-8.2964,-8.3312,-8.4164,-8.4262,-8.4606,-8.5133,-8.5704,-8.554,-8.4977,-8.6045,-8.6421,-8.6182,-8.6114,-8.6481,-8.6958,-8.6371,-8.6481,-8.6995,-8.6995,-8.8428,-9.0515,-9.0932,-9.2599,-9.4561,-9.4857,-9.4996,-9.4996,-9.4844,-9.4793,-9.4793,-9.4793,-9.4793,-9.5172,-9.6878,-9.8545,-9.9796,-9.9796,-10.0895,-10.1995,-10.2298,-10.3586,-10.4799,-10.4799,-10.3672,-10.288,-10.3116,-10.2024,-10.1129,-10.1288,-10.1289,-10.1289,-10.1289,-10.1289,-10.1402,-10.1703,-10.1906,-10.2183,-10.2507,-10.2694,-10.2789,-10.2789,-10.2789,-10.2789,-10.2789,-10.2789,-10.2789,-10.2789,-10.2789,-10.2789,-10.2789,-10.3413,-10.4311,-10.5404,-10.6693,-10.7512,-5.9334,-5.9475,0.0,0.0,0.0,0.0,-5.9721,-6.1952,0.0,0.0,0.0,0.0,0.0,0.0,0.0,0.0,0.0,0.0,0.0,0.0,0.0,0.0,0.0,0.0,0.0,-8.318,-8.318,-8.318,-8.0585,-8.023,-8.3069,-8.318,-8.318,-8.318,-8.318,-8.318,-8.318,-8.2941,-8.3041,-8.3559,-8.3767,-8.3861,-8.3945,-8.4737,-8.4599,-8.3852,-8.5095,-8.5324,-8.4792,-8.4792,-8.5453,-8.6444,-8.5967,-8.6077,-8.6591,-8.7252,-8.8885,-9.0849,-9.1484,-9.3121,-9.5007,-9.5143,-9.5143,-9.5045,-9.4946,-9.4844,-9.4793,-9.4793,-9.5286,-9.6082,-9.7067,-9.8545,-9.9796,-9.9796,-10.082,-10.1881,-10.2184,-10.3397,-10.4307,-10.4307,-10.339,-10.2665,-10.2619,-10.1667,-10.1085,-10.1288,-10.1289,-10.1289,-10.1289,-10.1289,-10.1398,-10.1807,-10.1996,-10.2186,-10.2595,-10.2714,-10.2789,-10.2789,-10.2789,-10.2789,-10.2789,-10.2789,-10.2789,-10.2789,-10.2789,-10.3218,-10.3882,-10.3999,-10.4702,-10.599,-10.7395,-10.802,-6.0135,-6.0171,-6.0107,-6.0107,0.0,0.0,-5.9186,-6.2056,0.0,0.0,0.0,0.0,0.0,0.0,0.0,0.0,0.0,0.0,0.0,0.0,0.0,0.0,0.0,0.0,-8.318,-8.318,-8.318,-8.318,-8.318,-8.318,-8.318,-8.318,-8.318,-8.318,-8.318,-8.318,-8.318,-8.288,-8.2696,-8.2733,-8.3281,-8.3051,-8.226,-8.3982,-8.3871,-8.226,-8.3999,-8.4228,-8.3398,-8.3398,-8.4352,-8.5783,-8.571,-8.5783,-8.6114,-8.7619,-8.9516,-9.1414,-9.2241,-9.387,-9.5598,-9.5463,-9.5324,-9.5191,-9.5045,-9.4895,-9.4844,-9.4793,-9.6006,-9.7295,-9.7295,-9.8545,-9.9796,-9.9796,-10.0516,-10.1388,-10.2108,-10.3094,-10.37,-10.3511,-10.301,-10.2512,-10.1932,-10.1322,-10.1004,-10.1288,-10.1289,-10.1289,-10.1289,-10.1289,-10.1508,-10.2007,-10.2094,-10.2285,-10.2811,-10.2789,-10.2789,-10.2789,-10.2789,-10.2789,-10.2789,-10.2789,-10.2789,-10.2789,-10.2789,-10.3687,-10.5404,-10.4584,-10.5092,-10.6888,-10.759,-10.802,0.0,0.0,0.0,0.0,0.0,0.0,-5.9561,-5.9313,-5.9927,0.0,0.0,0.0,0.0,0.0,0.0,0.0,0.0,0.0,0.0,0.0,0.0,0.0,0.0,0.0,-8.318,-8.318,-8.318,-8.318,-8.318,-8.318,-8.318,-8.318,-8.318,-8.318,-8.318,-8.318,-8.318,-8.288,-8.2696,-8.2696,-8.2564,-8.2398,-8.2186,-8.2582,-8.2545,-8.226,-8.328,-8.3544,-8.3398,-8.3398,-8.4352,-8.5747,-8.5086,-8.5637,-8.6885,-8.7839,-8.9516,-9.1414,-9.2241,-9.387,-9.5598,-9.5463,-9.5371,-9.5324,-9.5045,-9.4996,-9.4946,-9.4844,-9.6006,-9.7295,-9.7295,-9.8545,-9.9796,-9.9796,-10.1009,-10.2108,-10.2298,-10.3511,-10.4193,-10.279,-10.2505,-10.2342,-10.1884,-10.1224,-10.0793,-10.1171,-10.1289,-10.1289,-10.1289,-10.1289,-10.1508,-10.2007,-10.2094,-10.2285,-10.2811,-10.2789,-10.2789,-10.2789,-10.2789,-10.2789,-10.2789,-10.2789,-10.2789,-10.2789,-10.2789,-10.3687,-10.5404,-10.5209,-10.599,-10.7786,-10.7903,-10.802,0.0,0.0,0.0,-6.0262,0.0,0.0,0.0,-5.943,-6.0246,0.0,0.0,0.0,0.0,0.0,0.0,0.0,0.0,0.0,0.0,0.0,0.0,0.0,0.0,0.0,-8.2468,-8.2898,-8.2994,-8.2468,-8.2898,-8.2994,-8.2468,-8.2898,-8.318,-8.318,-8.318,-8.318,-8.3024,-8.2819,-8.2633,-8.2571,-8.2316,-8.2186,-8.2186,-8.2186,-8.2186,-8.2223,-8.2627,-8.281,-8.281,-8.281,-8.3508,-8.4609,-8.4609,-8.5086,-8.6004,-8.7619,-8.9516,-9.1414,-9.2241,-9.387,-9.5598,-9.5509,-9.5463,-9.5371,-9.5239,-9.5094,-9.4996,-9.4895,-9.6058,-9.7295,-9.7295,-9.8545,-9.991,-10.0289,-10.1085,-10.1919,-10.279,-10.3586,-10.3776,-10.2598,-10.2315,-10.2083,-10.1311,-10.0909,-10.0825,-10.121,-10.1289,-10.1289,-10.1289,-10.14,-10.171,-10.2085,-10.2222,-10.2379,-10.2802,-10.2811,-10.2811,-10.2811,-10.2781,-10.2789,-10.2789,-10.2789,-10.2789,-10.2789,-10.321,-10.4108,-10.5404,-10.5786,-10.6684,-10.802,-10.802,-10.802,0.0,0.0,0.0,0.0,0.0,-5.8518,0.0,0.0,0.0,0.0,0.0,0.0,0.0,0.0,0.0,0.0,0.0,0.0,0.0,0.0,0.0,0.0,0.0,0.0,0.0,-8.103,-8.1926,-8.1719,-8.2638,-8.275,-8.1719,-8.2468,-8.2898,-8.2898,-8.275,-8.2728,-8.2843,-8.2573,-8.2497,-8.2628,-8.2325,-8.2186,-8.2186,-8.2186,-8.2186,-8.2186,-8.2186,-8.2186,-8.2186,-8.2186,-8.259,-8.3287,-8.4242,-8.4682,-8.5086,-8.7362,-8.9516,-9.1414,-9.2241,-9.387,-9.5598,-9.5598,-9.5509,-9.5417,-9.5417,-9.5191,-9.5045,-9.5045,-9.6161,-9.7347,-9.7347,-9.8599,-10.0131,-10.0814,-10.1118,-10.1481,-10.2939,-10.3319,-10.3205,-10.2478,-10.2289,-10.19,-10.0786,-10.0604,-10.0825,-10.121,-10.1289,-10.1289,-10.1289,-10.1504,-10.1778,-10.2109,-10.2304,-10.2499,-10.2792,-10.2802,-10.2802,-10.2802,-10.282,-10.2789,-10.2789,-10.2789,-10.2789,-10.2789,-10.37,-10.448,-10.5404,-10.6198,-10.7095,-10.802,-10.802,-10.802,0.0,0.0,0.0,0.0,-5.8878,0.0,0.0,0.0,-5.85,-5.8873,0.0,0.0,0.0,0.0,0.0,0.0,0.0,0.0,0.0,0.0,0.0,0.0,0.0,0.0,0.0,-7.5263,-7.8896,-8.1533,-8.2638,-8.275,-8.1719,-8.1793,-8.1889,-8.1889,-8.1044,-8.1316,-8.2696,-8.1833,-8.2039,-8.3438,-8.2582,-8.2186,-8.2186,-8.2186,-8.2186,-8.2186,-8.2186,-8.2186,-8.2186,-8.2186,-8.226,-8.248,-8.4022,-8.5049,-8.5857,-8.7582,-8.9516,-9.1414,-9.2241,-9.387,-9.5598,-9.5598,-9.5509,-9.5417,-9.5417,-9.5324,-9.5143,-9.5143,-9.636,-9.7654,-9.7654,-9.8909,-10.0203,-10.0279,-10.0887,-10.1496,-10.1724,-10.2295,-10.2599,-10.18,-10.1699,-10.1588,-10.0895,-10.0734,-10.0825,-10.121,-10.1289,-10.1289,-10.1289,-10.1504,-10.1778,-10.2109,-10.2285,-10.262,-10.282,-10.2789,-10.2789,-10.2789,-10.2789,-10.2789,-10.2789,-10.2789,-10.2789,-10.2789,-10.37,-10.448,-10.5404,-10.6198,-10.7095,-10.802,-10.802,-10.802,0.0,0.0,0.0,0.0,0.0,0.0,-6.2083,0.0,-5.9109,0.0,0.0,0.0,0.0,0.0,0.0,0.0,-5.7642,0.0,0.0,0.0,0.0,0.0,0.0,0.0,0.0,0.0,0.0,0.0,-7.8514,-7.8565,-7.7968,-8.0363,-8.1496,-8.0896,-8.1007,-8.1575,-8.2534,-8.166,-8.1975,-8.3492,-8.2655,-8.2186,-8.2186,-8.2186,-8.2186,-8.2186,-8.2186,-8.2186,-8.2186,-8.2186,-8.2186,-8.237,-8.3985,-8.4792,-8.5306,-8.6921,-8.9108,-9.1377,-9.1715,-9.3491,-9.5598,-9.5598,-9.5554,-9.5509,-9.5509,-9.5417,-9.54,-9.5896,-9.6838,-9.7817,-9.8312,-9.9302,-10.0291,-10.0824,-10.1205,-10.1624,-10.2118,-10.2499,-10.2499,-10.1801,-10.171,-10.1588,-10.0984,-10.0919,-10.1004,-10.1288,-10.1289,-10.1289,-10.1289,-10.1703,-10.2009,-10.2094,-10.2413,-10.2722,-10.2802,-10.2811,-10.2811,-10.2811,-10.2781,-10.2789,-10.2789,-10.2789,-10.2789,-10.2789,-10.4119,-10.5017,-10.5404,-10.6695,-10.7593,-10.802,-10.802,-10.802,-6.6865,0.0,0.0,0.0,0.0,0.0,0.0,0.0,0.0,0.0,-5.9627,0.0,0.0,0.0,-5.8449,-5.8097,0.0,-5.8133,0.0,0.0,0.0,0.0,0.0,0.0,0.0,0.0,0.0,-7.366,-7.5161,-7.5676,-7.4896,-7.8707,-8.0577,-7.9902,-8.0258,-8.0973,-8.2012,-8.124,-8.1691,-8.3398,-8.259,-8.2186,-8.2186,-8.2186,-8.2186,-8.2186,-8.2186,-8.2186,-8.2186,-8.2186,-8.2333,-8.2663,-8.4058,-8.4719,-8.5123,-8.6906,-8.9336,-9.164,-9.1846,-9.3517,-9.5598,-9.5598,-9.5598,-9.5598,-9.5598,-9.5554,-9.5654,-9.6494,-9.7286,-9.7991,-9.8867,-9.9706,-10.0468,-10.1115,-10.1306,-10.142,-10.1992,-10.2106,-10.1992,-10.1394,-10.1387,-10.1423,-10.099,-10.1004,-10.1091,-10.1288,-10.1289,-10.1289,-10.1402,-10.1807,-10.2078,-10.2183,-10.2607,-10.2802,-10.2802,-10.2802,-10.2802,-10.2802,-10.282,-10.2789,-10.2789,-10.2789,-10.2789,-10.2789,-10.4382,-10.528,-10.5404,-10.7114,-10.7894,-10.802,-10.802,-10.802,0.0,0.0,0.0,-6.5966,0.0,0.0,0.0,0.0,-6.1018,0.0,-6.0481,-5.9887,-5.9887,-5.9218,-5.8614,-5.8437,-5.8393,0.0,0.0,0.0,0.0,0.0,0.0,0.0,0.0,0.0,-7.0537,-7.0477,-7.4256,-7.5843,-7.4143,-7.7105,-7.8872,-7.8836,-7.7941,-7.8589,-8.1012,-8.0241,-8.1048,-8.3398,-8.259,-8.2186,-8.2186,-8.2186,-8.2186,-8.2186,-8.2186,-8.2186,-8.2186,-8.2186,-8.2663,-8.3471,-8.4278,-8.5086,-8.5998,-8.8275,-9.0527,-9.2561,-9.3184,-9.4382,-9.5598,-9.5598,-9.5598,-9.5598,-9.5598,-9.5598,-9.5789,-9.6668,-9.7471,-9.8311,-9.9152,-9.9992,-10.0604,-10.0604,-10.0604,-10.0604,-10.0718,-10.0718,-10.0595,-10.049,-10.0787,-10.1085,-10.0793,-10.0875,-10.1085,-10.1288,-10.1289,-10.1402,-10.171,-10.1879,-10.2183,-10.2491,-10.2683,-10.2789,-10.2789,-10.2789,-10.2789,-10.2789,-10.2789,-10.2789,-10.2789,-10.2789,-10.2789,-10.2789,-10.4402,-10.53,-10.5404,-10.7095,-10.7915,-10.802,-10.802,-10.802,0.0,0.0,-7.3869,-7.223,0.0,0.0,0.0,0.0,0.0,0.0,-6.1167,-6.0654,-6.0735,-6.0432,-6.0203,-6.0115,-5.9538,-5.9034,0.0,0.0,0.0,0.0,0.0,0.0,0.0,0.0,0.0,-6.6806,-6.7872,-6.8421,-6.8218,-7.3439,-7.6089,-7.5478,-7.7794,-7.9706,-8.1012,-8.0718,-8.1525,-8.3398,-8.259,-8.2186,-8.2186,-8.2186,-8.2186,-8.2186,-8.2186,-8.2186,-8.2223,-8.2774,-8.3177,-8.3544,-8.4866,-8.5894,-8.677,-8.8562,-9.0288,-9.1978,-9.4171,-9.5196,-9.5598,-9.5598,-9.5598,-9.5598,-9.5598,-9.5598,-9.5904,-9.7318,-9.7891,-9.8426,-9.984,-10.0413,-10.0604,-10.0604,-10.0604,-10.0604,-10.0604,-10.0604,-10.0595,-10.0375,-10.0604,-10.0787,-10.0787,-10.0875,-10.1085,-10.1288,-10.1289,-10.1402,-10.1703,-10.1879,-10.2183,-10.2507,-10.2694,-10.2789,-10.2789,-10.2789,-10.2789,-10.2789,-10.2789,-10.2789,-10.2789,-10.2789,-10.2789,-10.2789,-10.4382,-10.5308,-10.53,-10.7114,-10.7894,-10.7915,-10.8011,-10.802,-7.6231,-7.7483,0.0,-7.6112,-7.4679,0.0,-7.1779,0.0,-6.5639,0.0,-6.5127,-6.4339,-6.3336,-6.2808,-6.217,-6.1069,-6.0305,-5.9836,0.0,-5.9348,0.0,0.0,0.0,0.0,0.0,0.0,-6.2328,-6.3235,-6.392,-6.4526,-6.4861,-7.0845,-7.4081,-7.3707,-7.7463,-7.9853,-8.0571,-8.0865,-8.1672,-8.2994,-8.2737,-8.248,-8.2186,-8.248,-8.248,-8.2186,-8.2186,-8.2186,-8.226,-8.3067,-8.3581,-8.3985,-8.527,-8.6648,-8.7948,-8.9423,-9.1169,-9.3099,-9.4998,-9.5598,-9.5598,-9.5598,-9.5598,-9.5598,-9.5598,-9.5828,-9.6554,-9.8808,-9.9037,-9.9075,-10.1406,-10.1292,-10.0604,-10.0604,-10.0604,-10.0604,-10.0604,-10.0604,-10.0519,-10.0403,-10.0462,-10.0566,-10.0696,-10.0913,-10.1085,-10.1288,-10.1289,-10.1402,-10.1703,-10.1879,-10.2183,-10.2507,-10.2694,-10.2789,-10.2789,-10.2789,-10.2789,-10.2789,-10.2789,-10.2789,-10.2789,-10.2789,-10.3218,-10.4194,-10.49,-10.5797,-10.6705,-10.7504,-10.7883,-10.7905,-10.7885,-10.8011]}]]